     2              OBSERVATION DATA    GPS                 RINEX VERSION / TYPE
teqc 1997Jul24 19970814                                     PGM / RUN BY / DATE
                                                            COMMENT
BIT 2 OF LLI FLAGS DATA COLLECTED UNDER A-S CONDITION       COMMENT
BIT 2 OF LLI FLAGS DATA COLLECTED UNDER A-S CONDITION       COMMENT
Original Marker Name: 1110                                  COMMENT
Campaign Name: hpgn california 1991                         COMMENT
4-Character Station Name: 1110                              COMMENT
6-Character Antenna Code: TRMSST                            COMMENT
Vertical Measurement Point: TGP                             COMMENT
Vertical Offset to Rinex Ref. Point: 0.0629                 COMMENT
Radial Measurement Point: OGP                               COMMENT
Radial Offset to Rinex Ref. Point: 0.2413                   COMMENT
Antenna Height from Field Measurement: 1.5800 m             COMMENT
Original XYZ: -2333135.5495 -4807498.3738 3470371.8971      COMMENT
New XYZ position is based on association with SCEC monument COMMENT
E1D0I0K3+0011. Position of that monument is believed to be  COMMENT
valid to within 1 m horizontally; vertical accuracy         COMMENT
should be no worse than 3-times this value.                 COMMENT
                                                            COMMENT
Revised Rinex header created by UCSD GPS archive for        COMMENT
GSAC on 12-Apr-1999 (1999:102) 05:13:16 GMT                 COMMENT
For assistance contact dagnew@ucsd.edu or hjohnson@ucsd.edu COMMENT
                                                            COMMENT
HPGN CALIF STA 11-10                                        MARKER NAME
unknown CALIF DEPT TRANSPORTATION                           OBSERVER / AGENCY
622 TRIMBLE 4000 SST NP 4.30 / SP 4.20                      REC # / TYPE / VERS
123 TR 4000SST L1/L2 GEO                                    ANT # / TYPE
 -2333139.0000 -4807501.0000  3470371.0000                  APPROX POSITION XYZ
        1.4986        0.0000        0.0000                  ANTENNA: DELTA H/E/N
     1     1     0                                          WAVELENGTH FACT L1/2
     3    C1    L1    L2                                    # / TYPES OF OBSERV
     0                                                      INTERVAL
  1991     4    10    21    54   30.000000                  TIME OF FIRST OBS
  1991     4    11     2    46   15.000000                  TIME OF LAST OBS
     0                                                      # OF SATELLITES
                                                            END OF HEADER
 91  4 10 21 54 30.0000000  0  6G 2G 6G11G16G18G19
  21966459.7344     -86483.08547
  23799005.4144         -0.45255
  22909841.484          -0.48516
  24009796.0704         -0.08555
  22139295.7274         -0.19957
  21044765.3914         -0.14757
 91  4 10 21 54 45.0000000  0  6G 2G 6G11G16G18G19
  21962075.938     -109515.193 7
  23793993.3594     -26343.29345
  22912148.8524      12137.48646
  24010776.6884       5156.46045
  22148636.180       49081.763 7
  21047233.555       12966.956 7
 91  4 10 21 55  0.0000000  0  6G 2G 6G11G16G18G19
  21957691.3054    -132556.11247        -0.04372
  23788964.609      -52767.025 5        -0.35731
  22914474.141       24344.977 6        -0.34431
  24011769.0474      10358.59645        -0.17271
  22157975.7034      98161.69547        -0.21072
  21049692.0234      25904.35147        -0.35372
 91  4 10 21 55 15.0000000  0  6G 2G 6G11G16G18G19
  21953310.7424    -155583.87347    -17943.65762
  23783922.000      -79249.700 5    -20636.05721
  22916811.898       36643.760 6      9583.14321
  24012770.0164      15627.87345      4105.73361
  22167319.6644     147261.44347     38259.24462
  21052155.5704      38833.49547     10074.30162
 91  4 10 21 55 30.0000000  0  6G 2G 6G11G16G18G19
  21948932.9384    -178584.45647    -35866.10362
  23778876.3674    -105777.45845    -41306.89161
  22919172.719       49047.802 6     19248.64221
  24013789.672       20978.315 5      8274.85321
  22176668.8834     196394.48547     76544.63462
  21054618.0474      51768.68647     20153.67162
 91  4 10 21 55 45.0000000  0  6G 2G 6G11G16G18G19
  21944563.8524    -201544.41747    -53756.88862
  23773821.2504    -132336.70345    -62002.27661
  22921558.719       61570.627 6     29006.71221
  24014825.938       26423.563 5     12517.86321
  22186028.0784     245574.07247    114866.29762
  21057080.3134      64723.63447     30248.44062
 91  4 10 21 56  0.0000000  0  6G 2G 6G11G16G18G19
  21940203.859     -224455.007 7    -71609.21422
  23768762.195     -158918.696 5    -82715.43921
  22923963.930       74221.062 6     38864.20221
  24015883.2664      31972.22545     16841.41961
  22195397.453      294808.921 6    153231.04422
  21059549.8984      77707.08847     40365.41062
 91  4 10 21 56 15.0000000  0  6G 2G 6G11G16G18G19
  21935854.2974    -247309.94047    -89418.16262
  23763702.9844    -185517.24245   -103441.38361
  22926395.938       87005.211 6     48825.88921
  24016958.2114      37630.41945     21250.38461
  22204777.7504     344105.01147    191643.45061
  21062028.8984      90725.63647     50509.73662
 91  4 10 21 56 30.0000000  0  6G 2G 6G11G16G18G19
  21931516.9534    -270104.89647   -107180.38062
  23758636.4384    -212128.21345   -124177.14761
  22928854.570       99927.136 6
  24018057.7664      43402.00745     25747.66161
  22214171.1724     393466.19547    230106.61762
  21064513.4614     103783.22947
 91  4 10 21 56 45.0000000  0  6G 2G 6G11G16G18G19
  21927189.6804    -292840.21347   -124896.11762
  23753572.195     -238751.952 5   -144922.74921
  22931339.664      112986.721 7
  24019173.2194      49286.82745     30333.21261
  22223576.484      442892.000 7    268620.13222
  21067007.5554     116879.86547
 91  4 10 21 57  0.0000000  0  6G 2G 6G11G16G18G19
  21922877.1564    -315507.47647   -142558.83362
  23748503.9534    -265379.98245   -165671.72061
  22933852.031      126192.097 7     79361.16221
  24020321.0634      55293.06044     35013.38061
  22232995.4774     492390.47147    307190.25161
  21069507.2424     130023.82747     81131.69762
 91  4 10 21 57 15.0000000  0  6G 2G 6G11G16G18G19
  21918575.219     -338110.974 7   -160171.86022
  23743436.5474    -292016.60645   -186427.42861
  22936393.508      139539.170 6     89761.48821
  24021484.4844      61416.47045     39784.81461
  22242427.4144     541957.31547    345813.66861
  21072017.070      143211.145 7     91407.52622
 91  4 10 21 57 30.0000000  0  6G 2G 6G11G16G18G19
  21914288.703     -360640.465 7   -177727.20222
  23738367.8284    -318651.56745   -207181.81861
  22938963.4224     153038.06846    100280.17262
  24022675.1884      67666.99545     44655.33061
  22251875.352      591602.390 6    384498.07721
  21074535.6414     156452.09247    101725.13862
 91  4 10 21 57 45.0000000  0  6G 2G 6G11G16G18G19
  21910014.398     -383102.255 7   -195229.81022
  23733295.3134    -345291.22345   -227939.86561
  22941559.8754     166682.44747    110912.16261
  24023886.719       74038.439 5     49620.03821
  22261337.102      641319.117 6    423238.27021
  21077065.0394     169740.54147    112079.77262
 91  4 10 21 58  0.0000000  0  6G 2G 6G11G16G18G19
  21905752.516     -405494.660 7   -212678.37722
  23728224.6724    -371934.04545   -248700.43361
  22944182.0164     180473.83746    121658.67761
  24025123.977       80532.218 5     54680.03921
  22270811.719      691108.715 7    462035.24322
  21079603.8674     183078.16447    122472.72162
 91  4 10 21 58 15.0000000  0  6G 2G 6G11G16G18G19
  21901505.4694    -427816.92347   -230072.25962
  23723157.117     -398579.185 5   -269462.74121
  22946836.055      194412.927 6    132520.32521
  24026382.8444      87148.83345     59835.83161
  22280299.6724     740971.93047    500889.58162
  21082151.5314     196465.68647    132904.55562
 91  4 10 21 58 30.0000000  0  6G 2G 6G11G16G18G19
  21897269.734     -450070.578 7   -247412.68622
  23718085.6564    -425228.25945   -290228.12261
  22949516.117      208498.107 6    143495.80821
  24027665.547       93886.512 5     65085.87721
  22289802.102      790906.895 7    539799.84722
  21084707.203      209901.469 7    143373.97922
 91  4 10 21 58 45.0000000  0  6G 2G 6G11G16G18G19
  21893047.5394    -472255.60647   -264699.64762
  23713014.0554    -451881.33045   -310996.71761
  22952223.0864     222729.35346    154585.11761
  24028970.734      100745.364 6     70430.36821
  22299317.7114     840913.06247    578765.59362
  21087274.9384     223385.72747    153881.18862
 91  4 10 21 59  0.0000000  0  6G 2G 6G11G16G18G19
  21888839.4614    -494369.95447   -281931.50662
  23707940.3914    -478536.28945   -331766.62161
  22954960.664      237108.610 7    165789.75421
  24030298.219      107727.240 5     75870.80121
  22308847.5634     890992.37847    617788.33461
  21089850.3054     236920.59046    164427.82562
 91  4 10 21 59 15.0000000  0  6G 2G 6G11G16G18G19
  21884645.430     -516409.426 7   -299105.04322
  23702869.211     -505188.980 5   -352534.84421
  22957726.383      251640.062 6    177112.97921
  24031650.7194     114836.19145     81410.18861
  22318392.9304     941148.96747    656871.28062
  21092434.6644     250510.37947    175017.26662
 91  4 10 21 59 30.0000000  0  6G 2G 6G11G16G18G19
  21880464.6954    -538380.19047   -316225.03162
  23697797.719     -531845.646 5   -373306.14321
  22960517.539      266317.336 6    188549.83521
  24033024.7814     122065.99345     87043.74861
  22327950.4844     991376.13147    696009.22262
  21095031.1174     264148.91347    185644.68962
 91  4 10 21 59 45.0000000  0  6G 2G 6G11G16G18G19
  21876297.602     -560279.388 7   -333289.25622
  23692724.1024    -558503.41445   -394078.30461
  22963340.313      281143.258 6    200102.51121
  24034427.1334     129419.30045     92773.55661
  22337522.078     1041676.560 7    735204.24921
  21097635.2194     277839.14847    196312.40162
 91  4 10 22  0  0.0000000  0  6G 2G 6G11G16G18G19
  21872144.250     -582105.470 7   -350296.50922
  23687650.516     -585160.678 5   -414850.06921
  22966190.766      296119.363 6    211772.21521
  24035852.063      136897.536 5     98600.69721
  22347108.414     1092051.929 7    774457.68022
  21100249.2974     291582.78647    207021.72362
 91  4 10 22  0 15.0000000  0  6G 2G 6G11G16G18G19
  21868004.938     -603859.107 7   -367247.31322
  23682577.5554    -611818.05745   -435621.92761
  22969068.9384     311245.00646    223558.43561
  24037299.258      144500.024 5    104524.66321
  22356708.875     1142501.040 7    813768.55921
  21102873.7664     305379.26447    217772.22062
 91  4 10 22  0 30.0000000  0  6G 2G 6G11G16G18G19
  21863878.242     -625543.004 7   -384143.77822
  23677504.914     -638478.324 5   -456396.02421
  22971973.789      326517.277 6    235458.91821
  24038765.8674     152224.05345    110543.32761
  22366322.695     1193020.806 7    853134.50521
  21105511.5474     319225.83247    228561.74662
 91  4 10 22  0 45.0000000  0  6G 2G 6G11G16G18G19
  21859763.633     -647167.650 7   -400994.06722
  23672428.539     -665152.073 5   -477180.62121
  22974905.813      341925.847 6    247465.61321
  24040255.844      160058.992 5    116648.43121
  22375947.3594    1243600.57447    892547.19561
  21108151.8444     333112.22047    239382.31863
 91  4 10 22  1  0.0000000  0  6G 2G 6G11G16G18G19
  21855661.492     -668719.290 7   -417787.46922
  23667354.1094    -691825.51245   -497964.99161
  22977867.844      357484.343 6    259589.12821
  24041771.672      168018.220 5    122850.38321
  22385586.031     1294253.911 7    932017.21722
  21110805.5164     347052.27647    250244.68663
 91  4 10 22  1 15.0000000  0  6G 2G 6G11G16G18G19
  21851576.109     -690194.584 7   -434521.38222
  23662277.2194    -718495.42145   -518746.59361
  22980858.023      373195.807 6    271831.83921
  24043311.586      176104.885 5    129151.62521
  22395240.4384    1344983.53447    971546.67961
  21113468.0704     361049.18547    261151.36263
 91  4 10 22  1 30.0000000  0  6G 2G 6G11G16G18G19
  21847502.422     -711594.760 7   -451196.76422
  23657203.5314    -745162.84345   -539526.27261
  22983876.156      389059.187 6    284192.93121
  24044873.977      184317.794 5    135551.23621
  22404908.6024    1395788.10347   1011134.53261
  21116143.7584     375102.00247    272101.60463
 91  4 10 22  1 45.0000000  0  6G 2G 6G11G16G18G19
  21843445.000     -732918.895 7   -467812.88922
  23652128.758     -771826.965 5   -560303.36321
  22986922.914      405075.174 6    296672.93821
  24046462.906      192657.612 5    142049.74521
  22414590.273     1446668.474 7   1050781.46121
  21118828.8134     389211.61947    283096.10163
 91  4 10 22  2  0.0000000  0  6G 2G 6G11G16G18G19
  21839400.813     -754164.634 7   -484367.93322
  23647055.8594    -798485.49445   -581076.09061
  22989999.9384     421246.10246    309273.66161
  24048074.0704     201126.52045    148648.83461
  22424287.4694    1497626.61447   1090488.98161
  21121525.4384     403380.48847    294136.77463
 91  4 10 22  2 15.0000000  0  6G 2G 6G11G16G18G19
  21835373.422     -775334.761 7   -500864.05022
  23641981.4454    -825141.29945   -601846.70061
  22993108.086      437568.899 6    321992.74321
  24049705.945      209721.784 5    155346.39521
  22433999.219     1548659.546 7   1130254.78721
  21124231.5634     417605.94347    305221.53963
 91  4 10 22  2 30.0000000  0  6G 2G 6G11G16G18G19
  21831358.625     -796432.529 7   -517303.79022
  23636911.6644    -851797.53745   -622617.64761
  22996240.430      454040.300 6    334827.60921
  24051368.375      218439.696 5    162139.51621
  22443724.4614    1599763.77947   1170076.14661
  21126949.9304     431884.73847    316347.87163
 91  4 10 22  2 45.0000000  0  6G 2G 6G11G16G18G19
  21827357.469     -817457.761 7   -533687.00922
  23631837.5004    -878454.10545   -643388.85861
  22999404.8204     470660.33146    347778.29061
  24053045.992      227280.580 5    169028.44321
  22453462.8594    1650939.05747   1209952.86961
  21129674.5004     446217.05447    327515.90263
 91  4 10 22  3  0.0000000  0  6G 2G 6G11G16G18G19
  21823370.445     -838407.591 7   -550011.47022
  23626764.820     -905108.132 5   -664158.06521
  23002593.3594     487431.83646    360847.00361
  24054754.4304     236247.07045    176015.26561
  22463213.7664    1702187.96547   1249886.95961
  21132415.7344     460605.94447    338728.02063
 91  4 10 22  3 15.0000000  0  6G 2G 6G11G16G18G19
  21819397.383     -859283.940 7   -566278.67222
  23621692.9224    -931761.55545   -684926.81161
  23005816.3594     504352.84946    374032.21661
  24056483.484      245336.932 5    183098.21021
  22472980.9384    1753508.51547   1289876.87961
  21135161.5944     475049.56947    349982.78263
 91  4 10 22  3 30.0000000  0  6G 2G 6G11G16G18G19
  21815439.148     -880086.890 7   -582488.68322
  23616622.0314    -958414.40345   -705695.10161
  23009063.9844     521423.23746    387333.82061
  24058238.8674     254549.92745    190277.09861
  22482761.0704    1804900.28146   1329922.28961
  21137920.4924     489547.81147    361280.11063
 91  4 10 22  3 45.0000000  0  6G 2G 6G11G16G18G19
  21811495.445     -900815.072 7   -598640.43322
  23611551.0394    -985065.39345   -726461.95161
  23012339.3134     538644.18946    400752.75361
  24060016.2584     263887.64345    197553.17961
  22492554.2274    1856364.31046   1370024.00661
  21140692.2974     504102.30047    372621.26263
 91  4 10 22  4  0.0000000  0  6G 2G 6G11G16G18G19
  21807565.695     -921464.603 7   -614730.89422
  23606478.938    -1011710.566 5   -747224.25321
  23015646.8914     556019.51746    414291.97561
  24061816.3914     273353.83845    204929.36861
  22502361.8204    1907904.12546   1410184.77961
  21143475.0704     518716.91347    384009.27163
 91  4 10 22  4 15.0000000  0  6G 2G 6G11G16G18G19
  21803650.109     -942038.335 7   -630762.29322
  23601407.773    -1038352.708 5   -767984.19521
  23018983.5784     573546.35646    427949.25861
  24063642.1644     282945.48745    212403.31661
  22512184.3444    1959517.00946   1450402.48861
  21146263.6334     533388.93147    395442.00863
 91  4 10 22  4 30.0000000  0  6G 2G 6G11G16G18G19
  21799749.516     -962538.831 7   -646736.62022
  23596340.6094   -1064994.55945   -788743.92361
  23022347.4144     591221.99046    441722.48361
  24065490.8524     292659.58345    219972.67661
  22522018.1804    2011199.77446   1490674.64461
  21149069.2034     548115.84247    406917.51763
 91  4 10 22  4 45.0000000  0  6G 2G 6G11G16G18G19
  21795861.789     -982969.301 7   -662656.38822
  23591269.4064   -1091639.16245   -809505.76961
  23025738.3204     609043.25846    455609.19061
  24067363.664      302492.933 5    227634.94321
  22531866.5864    2062948.99046   1530998.58061
  21151879.0634     562894.65547    418433.46963
 91  4 10 22  5  0.0000000  0  6G 2G 6G11G16G18G19
  21791987.531    -1003327.963 7   -678520.19622
  23586198.086    -1118284.726 5   -830268.38321
  23029157.6644     627011.76646    469610.62361
  24069257.6024     312447.35045    235391.57561
  22541726.9384    2114766.46946   1571375.71561
  21154700.8364     577727.17747    429991.27563
 91  4 10 22  5 15.0000000  0  6G 2G 6G11G16G18G19
  21788127.445    -1023612.416 7   -694326.18722
  23581129.039    -1144928.928 5   -851029.93121
  23032604.9924     645129.78547    483728.55961
  24071173.4304     322524.65145    243243.95061
  22551600.4384    2166654.22446   1611807.60461
  21157534.7034     592615.79647    441592.79463
 91  4 10 22  5 30.0000000  0  6G 2G 6G11G16G18G19
  21784280.6024   -1043826.03847   -710076.97262
  23576057.836    -1171575.201 5   -871793.09721
  23036079.6334     663394.01847    497960.42561
  24073115.469      332721.520 5    251189.51221
  22561487.8754    2218608.59346   1652291.40261
  21160381.6024     607557.38547    453235.58763
 91  4 10 22  5 45.0000000  0  6G 2G 6G11G16G18G19
  21780447.523    -1063967.720 7   -725771.70922
  23570986.188    -1198222.472 5   -892557.03821
  23039582.3054     681805.21947    512306.81761
  24075078.7974     343038.64845    259228.76261
  22571388.0394    2270630.28746   1692827.65961
  21163232.7974     622553.04947    464920.51663
 91  4 10 22  6  0.0000000  0  6G 2G 6G11G16G18G19
  21776629.539    -1084031.167 7   -741405.47622
  23565914.516    -1224864.244 5   -913316.69721
  23043116.3834     700369.66647    526772.61661
  24077065.6724     353482.55645    267366.80761
  22581301.0164    2322725.46446   1733421.17261
  21166101.2974     637609.11646    476652.51263
 91  4 10 22  6 15.0000000  0  6G 2G 6G11G16G18G19
  21772825.0864   -1104020.67747   -756981.63462
  23560848.227    -1251504.868 5   -934075.45321
  23046678.2274     719083.01647    541354.43861
  24079077.6724     364048.89345    275600.25561
  22591226.922     2374889.387 6   1774068.25821
  21168971.7974     652721.37947    488428.29663
 91  4 10 22  6 30.0000000  0  6G 2G 6G11G16G18G19
  21769036.180    -1123936.035 7   -772500.00822
  23555776.836    -1278144.138 5   -954833.17621
  23050265.2344     737945.31747    556052.33461
  24081109.508      374737.577 5    283929.04521
  22601167.1644    2427122.37346   1814769.15961
  21171864.2034     667890.21946    500248.16663
 91  4 10 22  6 45.0000000  0  6G 2G 6G11G16G18G19
  21765260.6414   -1143776.69247   -787960.16962
  23550708.781    -1304781.634 5   -975589.51021
  23053884.8284     756957.02147    570866.64361
  24083167.375      385548.884 5    292353.37421
  22611119.977     2479424.352 6   1855523.81521
  21174755.4534     683116.15547    512112.52863
 91  4 10 22  7  0.0000000  0  6G 2G 6G11G16G18G19
  21761497.9534   -1163545.43047   -803364.29962
  23545639.164    -1331419.988 5   -996346.50221
  23057528.7814     776115.18547    585795.07461
  24085244.695      396479.653 5    300870.77521
  22621084.070     2531792.302 6   1896329.87721
  21177667.6804     698396.60447    524019.36963
 91  4 10 22  7 15.0000000  0  6G 2G 6G11G16G18G19
  21757750.250    -1183241.487 7   -818711.79322
  23540569.5164   -1358058.55245  -1017103.66561
  23061204.4924     795420.47147    600838.15761
  24087347.0474     407530.81745    309482.02461
  22631063.1954    2584226.86946   1937187.85761
  21180582.1254     713732.32147    535969.27663
 91  4 10 22  7 30.0000000  0  6G 2G 6G11G16G18G19
  21754015.5864   -1202868.02447   -834005.11062
  23535500.0634   -1384700.43845  -1037863.41661
  23064904.2194     814869.64846    615993.35961
  24089476.7194     418698.98845    318184.42461
  22641052.727     2636724.581 6   1978095.03321
  21183510.8754     729120.25147    547959.87163
 91  4 10 22  7 45.0000000  0  6G 2G 6G11G16G18G19
  21750293.3594   -1222424.98347   -849244.21362
  23530431.273    -1411345.356 5  -1058625.53121
  23068631.9304     834462.80546    631260.74661
  24091621.859      429984.324 5    326978.12821
  22651055.0084    2689285.34546   2019051.34061
  21186449.5004     744560.78647    559991.45563
 91  4 10 22  8  0.0000000  0  6G 2G 6G11G16G18G19
  21746586.500    -1241908.557 7   -864426.13622
  23525357.5864   -1437989.78645  -1079387.27261
  23072389.9064     854203.35346    646642.98861
  24093792.727      441390.140 5    335865.70321
  22661069.8364    2741912.39546   2060059.30461
  21189400.6564     760057.53947    572066.84463
 91  4 10 22  8 15.0000000  0  6G 2G 6G11G16G18G19
  21742892.9384   -1261316.90047   -879549.43162
  23520290.1334   -1464631.88745  -1100147.20361
  23076175.7344     874093.15746    662141.53261
  24095989.6024     452917.98645    344848.36761
  22671097.5944    2794607.40546   2101120.21461
  21192356.8594     775612.40547    584187.51963
 91  4 10 22  8 30.0000000  0  6G 2G 6G11G16G18G19
  21739212.6804   -1280654.82047   -894617.85362
  23515220.0474   -1491276.19345  -1120908.84561
  23079988.2274     894127.46746    677752.68261
  24098200.8594     464563.29345    353922.56461
  22681137.836     2847365.369 6   2142230.18221
  21195328.1954     791220.85947    596349.94863
 91  4 10 22  8 45.0000000  0  6G 2G 6G11G16G18G19
  21735546.9454   -1299919.37947   -909629.10862
  23510150.8914   -1517919.91545  -1141670.03361
  23083827.7194     914308.97046    693478.52761
  24100441.8444     476328.61045    363090.29161
  22691189.8204    2900188.86746   2183391.22061
  21198308.8134     806885.68847    608556.30663
 91  4 10 22  9  0.0000000  0  6G 2G 6G11G16G18G19
  21731893.3204   -1319118.20147   -924589.14662
  23505077.047    -1544570.678 5  -1162436.71221
  23087694.5704     934629.78746    709312.92961
  24102702.211      488206.252 5    372345.50521
  22701252.273     2953070.254 6   2224597.35921
  21201300.0554     822599.70647    620800.99763
 91  4 10 22  9 15.0000000  0  6G 2G 6G11G16G18G19
  21728253.1174   -1338247.25847   -939494.81862
  23500005.086    -1571224.389 5  -1183205.68621
  23091589.1644     955093.97946    725259.05261
  24104987.563      500200.219 5    381691.37021
  22711326.6884    3006013.34546   2265851.58861
  21204299.2734     838366.88547    633087.11263
 91  4 10 22  9 30.0000000  0  6G 2G 6G11G16G18G19
  21724627.211    -1357303.194 7   -954343.51822
  23494933.6724   -1597877.66345  -1203974.33261
  23095511.8524     975704.77546    741319.40961
  24107288.2194     512313.60445    391130.31061
  22721414.344     3059021.070 6   2307156.17621
  21207310.6724     854190.67747    645417.34063
 91  4 10 22  9 45.0000000  0  6G 2G 6G11G16G18G19
  21721014.195    -1376288.090 7   -969136.85722
  23489861.3284   -1624532.62645  -1224744.27661
  23099460.8524     996459.97246    757492.28561
  24109617.5314     524543.69245    400660.16061
  22731513.633     3112091.042 6   2348509.26521
  21210331.4384     870069.01447    657790.07063
 91  4 10 22 10  0.0000000  0  6G 2G 6G11G16G18G19
  21717414.797    -1395201.951 7   -983874.85222
  23484787.672    -1651188.992 5  -1245515.33721
  23103437.2504    1017359.63146    773777.73961
  24111967.383      536890.935 5    410281.33221
  22741623.859     3165223.175 6   2389910.79721
  21213366.6564     886002.07247    670205.44163
 91  4 10 22 10 15.0000000  0  6G 2G 6G11G16G18G19
  21713830.031    -1414042.610 7   -998555.80223
  23479715.672    -1677844.911 5  -1266286.04421
  23107441.1884    1038405.53346    790177.14261
  24114337.1414     549357.15945    419995.18861
  22751746.477     3218419.195 6   2431362.10421
  21216407.4844     901992.02647    682665.14863
 91  4 10 22 10 30.0000000  0  6G 2G 6G11G16G18G19
  21710257.953    -1432810.296 7  -1013179.89322
  23474641.9694   -1704500.47445  -1287056.47361
  23111475.9924    1059597.42146    806690.30261
  24116734.0704     561941.94745    429801.42761
  22761882.711     3271678.766 6   2472862.93521
  21219461.1024     918038.83547    695169.15663
 91  4 10 22 10 45.0000000  0  6G 2G 6G11G16G18G19
  21706700.578    -1451505.888 7  -1027747.81023
  23469573.102    -1731156.547 5  -1307827.29721
  23115535.1804    1080934.30946    823316.44161
  24119152.7114     574644.05945    439699.10761
  22772028.086     3325000.651 6   2514412.32021
  21222526.1954     934141.73647    707716.87063
 91  4 10 22 11  0.0000000  0  6G 2G 6G11G16G18G19
  21703156.555    -1470124.139 7  -1042255.46222
  23464499.781    -1757807.837 5  -1328594.40621
  23119624.0394    1102421.25246    840059.51561
  24121592.508      587468.504 5    449692.10721
  22782188.273     3378389.711 6   2556014.04921
  21225602.3594     950306.05647    720312.44263
 91  4 10 22 11 15.0000000  0  6G 2G 6G11G16G18G19
  21699627.867    -1488669.492 7  -1056706.31522
  23459426.344    -1784458.727 5  -1349361.20621
  23123739.5474    1124053.84546    856916.07961
  24124054.8054     600411.11045    459777.17761
  22792360.367     3431841.365 6   2597664.54621
  21228687.8054     966527.39347    732952.44663
 91  4 10 22 11 30.0000000  0  6G 2G 6G11G16G18G19
  21696113.648    -1507137.660 7  -1071097.01622
  23454357.086    -1811104.861 5  -1370124.29221
  23127886.7424    1145836.18946    873889.32861
  24126540.391      613475.712 5    469957.31521
  22802544.516     3485359.983 6   2639367.23021
  21231788.7114     982810.08147    745640.25363
 91  4 10 22 11 45.0000000  0  6G 2G 6G11G16G18G19
  21692613.1094   -1525532.98347  -1085430.96662
  23449286.398    -1837750.781 5  -1390887.22821
  23132057.2114    1167763.80346    890975.77461
  24129049.938      626657.896 5    480229.07221
  22812741.242     3538940.673 6   2681118.28021
  21234896.7114     999149.76747    758372.47163
 91  4 10 22 12  0.0000000  0  6G 2G 6G11G16G18G19
  21689128.1414   -1543849.62147  -1099703.60062
  23444215.8284   -1864390.49745  -1411645.32361
  23136259.7424    1189842.26146    908179.76461
  24131580.5944     639963.33045    490596.86261
  22822949.375     3592588.698 6   2722921.80021
  21238017.7664    1015552.64447    771153.93563
 91  4 10 22 12 15.0000000  0  6G 2G 6G11G16G18G19
  21685656.9534   -1562087.56447  -1113914.91662
  23439147.9144   -1891024.08345  -1432398.64561
  23140491.5004    1212071.53146    925501.26761
  24134136.180      653391.686 5    501060.43221
  22833171.594     3646303.875 6   2764777.63521
  21241150.4304    1032018.77847    783984.68763
 91  4 10 22 12 30.0000000  0  6G 2G 6G11G16G18G19
  21682201.7194   -1580247.78947  -1128065.67363
  23434082.7734   -1917652.42946  -1453147.88561
  23144749.9384    1234450.35046    942939.30061
  24136715.305      666942.035 5    511619.06821
  22843405.3284    3700085.09946   2806684.93961
  21244296.5164    1048547.28347    796864.03863
 91  4 10 22 12 45.0000000  0  6G 2G 6G11G16G18G19
  21678761.0394   -1598326.15547  -1142152.64362
  23429015.7894   -1944271.30546  -1473889.74261
  23149034.7734    1256982.86646    960497.09861
  24139320.180      680618.278 5    522275.80521
  22853653.859     3753936.329 6   2848646.79421
  21247453.7814    1065142.21847    809795.15663
 91  4 10 22 13  0.0000000  0  6G 2G 6G11G16G18G19
  21675336.3204   -1616321.25147  -1156174.73162
  23423952.000    -1970879.353 5  -1494623.17821
  23153352.1884    1279670.33946    978175.64061
  24141947.7114     694421.56245    533031.52161
  22863915.2814    3807858.60646   2890664.00461
  21250627.3674    1081805.13847    822779.24863
 91  4 10 22 13 15.0000000  0  6G 2G 6G11G16G18G19
  21671927.0554   -1634236.16447  -1170134.33862
  23418891.867    -1997479.476 5  -1515350.42721
  23157698.9774    1302509.63146    995972.49361
  24144595.9924     708348.49245    543883.60761
  22874188.273     3861848.689 6   2932734.05821
  21253808.4384    1098533.15547    835814.06263
 91  4 10 22 13 30.0000000  0  6G 2G 6G11G16G18G19
  21668534.1804   -1652067.69647  -1184028.97762
  23413831.2664   -2024068.34245  -1536068.90561
  23162075.1174    1325503.88646   1013890.09061
  24147270.164      722402.236 5    554834.49021
  22884476.313     3915909.715 6   2974859.39221
  21257005.5314    1115329.72947    848902.29663
 91  4 10 22 13 45.0000000  0  6G 2G 6G11G16G18G19
  21665156.2034   -1669818.99947  -1197861.09862
  23408771.039    -2050649.223 5  -1556781.17321
  23166479.7194    1348649.75346   1031925.82661
  24149967.7344     736579.61245    565881.73161
  22894775.8754    3970038.26446   3017037.33461
  21260212.6644    1132191.68847    862041.48163
 91  4 10 22 14  0.0000000  0  6G 2G 6G11G16G18G19
  21661794.0084   -1687484.40747  -1211626.28662
  23403717.2664   -2077216.35346  -1577482.71661
  23170914.008     1371952.858 6   1050084.07821
  24152691.070      750886.045 5    577029.50221
  22905091.1724    4024239.56246   3059271.96561
  21263434.8054    1149124.92947    875236.20963
 91  4 10 22 14 15.0000000  0  6G 2G 6G11G16G18G19
  21658448.6334   -1705064.70647  -1225325.16062
  23398664.773    -2103770.499 6  -1598174.16021
  23175379.1254    1395412.06346   1068363.97461
  24155438.1484     765320.34345    588276.91961
  22915417.883     4078512.339 6   3101562.29621
  21266670.5314    1166128.70747    888485.89963
 91  4 10 22 14 30.0000000  0  6G 2G 6G11G16G18G19
  21655119.4694   -1722560.93847  -1238958.52762
  23393613.0784   -2130312.71346  -1618856.29061
  23179872.086     1419026.212 6   1086764.59621
  24158207.563      779881.747 5    599623.38321
  22925759.8524    4132855.45646   3143907.43161
  21269918.9534    1183202.02547    901789.77963
 91  4 10 22 14 45.0000000  0  6G 2G 6G11G16G18G19
  21651804.7734   -1739977.82047  -1252530.06362
  23388562.961    -2156847.841 5  -1639532.91121
  23184394.266     1442790.399 6   1105282.12921
  24161004.742      794564.859 5    611064.67721
  22936113.7344    4187263.83846   3186303.42361
  21273180.8204    1200340.21847    915144.20363
 91  4 10 22 15  0.0000000  0  6G 2G 6G11G16G18G19
  21648506.7344   -1757311.05847  -1266036.42362
  23383516.3054   -2183371.30646  -1660200.44261
  23188946.8594    1466708.90246   1123919.92061
  24163819.047      809374.124 5    622604.27821
  22946480.4144    4241741.90346   3228753.71361
  21276456.5784    1217547.59947    928552.54563
 91  4 10 22 15 15.0000000  0  6G 2G 6G11G16G18G19
  21645224.1804   -1774559.08347  -1279476.38562
  23378470.750    -2209881.641 5  -1680857.74221
  23193527.016     1490783.150 6   1142679.05421
  24166664.8204     824310.66645    634243.05761
  22956861.2894    4296290.80846   3271259.20861
  21279742.9924    1234826.00647    942016.23163
 91  4 10 22 15 30.0000000  0  6G 2G 6G11G16G18G19
  21641957.8754   -1791723.72447  -1292851.37063
  23373427.8134   -2236380.51345  -1701506.11161
  23198136.367     1515011.255 6   1161558.08421
  24169527.9694     839372.82845    645979.72461
  22967255.0554    4350908.36246   3313818.18661
  21283045.5314    1252173.76747    955533.95863
 91  4 10 22 15 45.0000000  0  6G 2G 6G11G16G18G19
  21638708.2274   -1808804.26547  -1306160.82562
  23368388.8364   -2262867.13745  -1722144.94561
  23202776.836     1539393.740 6   1180557.40421
  24172422.1804     854560.86745    657814.47461
  22977661.8914    4405595.14146   3356431.10761
  21286359.5634    1269591.65747    969106.33063
 91  4 10 22 16  0.0000000  0  6G 2G 6G11G16G18G19
  21635472.7424   -1825804.87447  -1319407.99662
  23363349.4304   -2289345.79245  -1742777.55661
  23207445.633     1563926.305 6   1199673.67421
  24175332.531      869870.458 5    669743.93421
  22988080.6334    4460346.63046   3399094.45261
  21289685.7734    1287075.52847    982730.11763
 91  4 10 22 16 15.0000000  0  6G 2G 6G11G16G18G19
  21632253.0864   -1842726.29647  -1332593.46063
  23358311.078    -2315817.095 5  -1763404.45021
  23212143.0004    1588607.96246   1218906.12061
  24178269.9304     885300.78745    681767.48161
  22998511.9144    4515161.73646   3441807.36461
  21293026.2194    1304624.59447    996404.70263
 91  4 10 22 16 30.0000000  0  6G 2G 6G11G16G18G19
  21629048.5474   -1859568.53547  -1345717.22463
  23353276.219    -2342281.127 5  -1784025.66821
  23216866.031     1613438.535 6   1238254.60521
  24181226.8364     900851.73245    693885.00461
  23008956.8594    4570040.34046   3484569.75661
  21296380.5314    1322239.04047   1010130.23363
 91  4 10 22 16 45.0000000  0  6G 2G 6G11G16G18G19
  21625856.6804   -1876334.94347  -1358781.89363
  23348238.977    -2368740.951 5  -1804643.62321
  23221621.516     1638414.538 6   1257716.41221
  24184210.2974     916519.51545    706093.58461
  23019410.383     4624978.896 6   3527378.86321
  21299741.1884    1339915.76747   1023904.30163
 91  4 10 22 17  0.0000000  0  6G 2G 6G11G16G18G19
  21622680.1254   -1893026.33147  -1371788.10662
  23343203.9064   -2395197.45645  -1825258.98361
  23226400.219     1663534.973 6   1277290.76221
  24187212.7894     932303.17045    718392.46061
  23029875.336     4679976.158 6   3570233.71121
  21303121.6484    1357653.87947   1037726.19563
 91  4 10 22 17 15.0000000  0  6G 2G 6G11G16G18G19
  21619519.2114   -1909637.37147  -1384731.70862
  23338172.0314   -2421645.26745  -1845867.56561
  23231208.641     1688805.266 6   1296981.88121
  24190241.930      948208.225 5    730785.90821
  23040353.875     4735037.209 6   3613138.26321
  21306505.578     1375459.125 7   1051600.40023
 91  4 10 22 17 30.0000000  0  6G 2G 6G11G16G18G19
  21616372.7974   -1926171.31647  -1397615.23662
  23333141.3204   -2448087.48545  -1866471.79261
  23236045.6564    1714222.02046   1316787.13561
  24193291.289      964231.009 5    743271.09321
  23050842.008     4790158.541 6   3656089.79021
  21309906.8834    1393328.17347   1065524.32363
 91  4 10 22 17 45.0000000  0  6G 2G 6G11G16G18G19
  21613242.1724   -1942628.00847  -1410438.56463
  23328108.617    -2474524.013 5  -1887071.57921
  23240908.883     1739785.046 6   1336706.35921
  24196362.203      980371.256 5    755847.82721
  23061344.023     4845340.325 6   3699088.42121
  21313318.4844    1411261.47547   1079498.31163
 91  4 10 22 18  0.0000000  0  6G 2G 6G11G16G18G19
  21610124.078    -1959008.346 7  -1423202.39123
  23323080.9534   -2500955.94445  -1907667.79161
  23245802.3284    1765493.11846   1356738.61461
  24199455.359      996627.747 5    768515.11921
  23071855.414     4900580.917 6   3742132.86921
  21316746.164     1429257.766 7   1093521.38323
 91  4 10 22 18 15.0000000  0  6G 2G 6G11G16G18G19
  21607021.758    -1975311.773 7  -1435906.28723
  23318050.2734   -2527382.27045  -1928259.64061
  23250721.758     1791347.000 6   1376884.47821
  24202569.117     1013001.331 5    781273.66521
  23082377.836     4955880.930 6   3785223.62221
  21320180.008     1447317.984 7   1107594.26823
 91  4 10 22 18 30.0000000  0  6G 2G 6G11G16G18G19
  21603935.031    -1991534.887 7  -1448547.59623
  23313022.2344   -2553799.69745  -1948844.56061
  23255670.453     1817349.827 6   1397146.41121
  24205709.3984    1029494.84745    794125.67761
  23092914.492     5011243.631 6   3828363.21321
  21323634.2114    1465445.61747   1121719.68263
 91  4 10 22 18 45.0000000  0  6G 2G 6G11G16G18G19
  21600862.250    -2007680.843 7  -1461128.79123
  23307998.3054   -2580211.17945  -1969424.83761
  23260646.297     1843498.311 6   1417521.83721
  24208870.3754    1046105.20845    807068.71861
  23103460.328     5066665.516 6   3871548.93821
  21327091.211     1483637.956 7   1135895.51623
 91  4 10 22 19  0.0000000  0  6G 2G 6G11G16G18G19
  21597803.148    -2023754.045 7  -1473653.29123
  23302970.461    -2606621.245 5  -1990004.00921
  23265649.555     1869787.752 6   1438007.10321
  24212049.1644    1062827.72445    820099.15961
  23114017.344     5122141.592 6   3914776.87021
  21330567.4694    1501890.30147   1150118.11563
 91  4 10 22 19 15.0000000  0  6G 2G 6G11G16G18G19
  21594759.5864   -2039751.34447  -1486118.64863
  23297946.4304   -2633026.55845  -2010579.49261
  23270679.016     1896221.328 6   1458604.67621
  24215255.016     1079665.631 4    833219.48821
  23124585.6724    5177675.11346   3958049.56661
  21334050.109     1520205.932 7   1164390.02223
 91  4 10 22 19 30.0000000  0  6G 2G 6G11G16G18G19
  21591729.5634   -2055672.52047  -1498524.68063
  23292923.0554   -2659426.97046  -2031151.15061
  23275735.9534    1922798.98046   1479314.51661
  24218480.922     1096618.622 4    846429.51321
  23135164.0554    5233265.94046   4001366.92661
  21337551.031     1538585.310 7   1178711.60723
 91  4 10 22 19 45.0000000  0  6G 2G 6G11G16G18G19
  21588714.453    -2071517.851 7  -1510871.62022
  23287901.656    -2685822.723 5  -2051719.15621
  23280822.8914    1949520.21446   1500136.25561
  24221727.5004    1113686.10145    859728.75461
  23145752.2664    5288913.30946   4044728.32761
  21341056.0314    1557028.35447   1193082.79963
 91  4 10 22 20  0.0000000  0  6G 2G 6G11G16G18G19
  21585711.969    -2087288.419 7  -1523160.29723
  23282878.3284   -2712214.74845  -2072284.27861
  23285934.0394    1976383.85046   1521068.89861
  24224998.5004    1130867.10244    873116.43661
  23156353.664     5344616.165 6   4088132.98821
  21344578.813     1575533.885 7   1207502.68723
 91  4 10 22 20 15.0000000  0  6G 2G 6G11G16G18G19
  21582725.914    -2102983.016 7  -1535389.78022
  23277856.289    -2738601.824 5  -2092845.55121
  23291073.547     2003390.902 6   1542113.38021
  24228291.8914    1148162.42343    886593.18561
  23166963.586     5400375.583 6   4131581.70221
  21348111.906     1594103.311 7   1221972.34823
 91  4 10 22 20 30.0000000  0  6G 2G 6G11G16G18G19
  21579754.922    -2118599.262 7  -1547558.21122
  23272835.9384   -2764981.43346  -2113400.98461
  23296240.336     2030543.766 6   1563271.42621
  24231604.0864    1165574.29144    900160.82461
  23177585.6174    5456193.57846   4175076.04761
  21351661.023     1612739.015 7   1236493.65923
 91  4 10 22 20 45.0000000  0  6G 2G 6G11G16G18G19
  21576797.211    -2134141.214 7  -1559668.74523
  23267818.5084   -2791357.63545  -2133953.77561
  23301434.352     2057838.025 6   1584539.66021
  24234937.6954    1183098.20744    913815.68261
  23188218.8364    5512065.63046   4218612.54261
  21355215.5864    1631437.17847   1251063.64863
 91  4 10 22 21  0.0000000  0  6G 2G 6G11G16G18G19
  21573853.094    -2149609.835 7  -1571722.14223
  23262798.070    -2817731.367 5  -2154504.62321
  23306654.813     2085272.571 6   1605917.20321
  24238293.406     1200733.356 4    927557.24621
  23198860.7274    5567990.67246   4262190.31361
  21358786.781     1650196.989 7   1265681.66523
 91  4 10 22 21 15.0000000  0  6G 2G 6G11G16G18G19
  21570923.6334   -2165006.25447  -1583719.28163
  23257781.0084   -2844103.61545  -2175054.34461
  23311902.438     2112846.100 6   1627403.04521
  24241672.7034    1218478.36344    941384.41561
  23209512.7584    5623967.49346   4305808.42961
  21362367.211     1669017.436 7   1280346.92923
 91  4 10 22 21 30.0000000  0  6G 2G 6G11G16G18G19
  21568008.0394   -2180324.95847  -1595655.86363
  23252763.7274   -2870468.83745  -2195598.56761
  23317177.148     2140564.101 6   1649001.46321
  24245070.883     1236338.613 4    955301.40021
  23220176.0474    5680001.24646   4349470.91561
  21365961.891     1687904.191 7   1295063.86623
 91  4 10 22 21 45.0000000  0  6G 2G 6G11G16G18G19
  21565108.0234   -2195568.50847  -1607533.88663
  23247744.8754   -2896829.46845  -2216139.22261
  23322477.102     2168423.783 6   1670710.28321
  24248488.2274    1254311.35044    969306.04361
  23230849.4924    5736089.00446   4393175.48361
  21369566.883     1706854.699 7   1309830.48123
 91  4 10 22 22  0.0000000  0  6G 2G 6G11G16G18G19
  21562220.9534   -2210737.09047  -1619353.49163
  23242730.9534   -2923185.54145  -2236676.31861
  23327806.484     2196424.765 6   1692529.20421
  24251934.313     1272396.228 4    983398.04621
  23241531.789     5792230.436 6   4436921.87021
  21373186.648     1725868.940 7   1324646.75823
 91  4 10 22 22 15.0000000  0  6G 2G 6G11G16G18G19
  21559348.5004   -2225828.70447  -1631113.12363
  23237717.1884   -2949535.14045  -2257208.38161
  23333161.078     2224568.905 6   1714459.68221
  24255397.078     1290595.028 4    997578.82121
  23252226.9064    5848427.23246   4480711.39761
  21376817.820     1744948.984 7   1339514.30523
 91  4 10 22 22 30.0000000  0  6G 2G 6G11G16G18G19
  21556491.8284   -2240845.16547  -1642814.19663
  23232704.3594   -2975879.95245  -2277736.71161
  23338544.648     2252854.205 6   1736500.15621
  24258882.273     1308905.161 4   1011846.36021
  23262931.0864    5904677.14346   4524542.31561
  21380462.297     1764092.986 7   1354431.69323
 91  4 10 22 22 45.0000000  0  6G 2G 6G11G16G18G19
  21553648.7194   -2255783.57647  -1654454.45763
  23227692.1094   -3002217.06245  -2298259.03361
  23343953.328     2281283.462 6   1758652.80121
  24262387.680     1327329.788 4   1026203.09021
  23273645.023     5960983.154 6   4568416.93921
  21384115.852     1783304.150 7   1369401.41523
 91  4 10 22 23  0.0000000  0  6G 2G 6G11G16G18G19
  21550821.6644   -2270642.34047  -1666032.65363
  23222680.5704   -3028544.95546  -2318774.18161
  23349390.977     2309858.041 6   1780918.68721
  24265916.438     1345870.569 4   1040650.37621
  23284370.9774    6017346.37146   4612336.15861
  21387785.164     1802584.224 7   1384424.83223
 91  4 10 22 23 15.0000000  0  6G 2G 6G11G16G18G19
  21548008.7194   -2285421.45547  -1677548.78763
  23217674.5314   -3054863.14946  -2339281.77161
  23354857.2114    2338577.73046   1803297.63861
  24269464.7814    1364526.84044   1055187.59261
  23295108.2814    6073766.57846   4656299.76661
  21391466.438     1821933.233 7   1399501.96523
 91  4 10 22 23 30.0000000  0  6G 2G 6G11G16G18G19
  21545211.344    -2300124.417 7  -1689005.58823
  23212665.406    -3081175.229 6  -2359784.59521
  23360349.8914    2367438.88046   1825786.81761
  24273038.8914    1383294.95144   1069812.00761
  23305854.078     6130240.176 6   4700304.98621
  21395162.039     1841347.770 7   1414630.15723
 91  4 10 22 23 45.0000000  0  6G 2G 6G11G16G18G19
  21542427.8284   -2314748.94047  -1700401.26063
  23207660.6564   -3107479.04146  -2380280.97661
  23365868.5394    2396443.67846   1848387.92361
  24276629.797     1402176.957 4   1084525.14821
  23316611.2974    6186769.04946   4744353.27961
  21398869.070     1860830.254 7   1429811.29323
 91  4 10 22 24  0.0000000  0  6G 2G 6G11G16G18G19
  21539660.1484   -2329294.94147  -1711735.75263
  23202656.758    -3133774.450 6  -2400770.80321
  23371416.3444    2425591.93946   1871100.83361
  24280242.820     1421172.768 4   1099326.99821
  23327379.859     6243352.972 6   4788444.45321
  21402591.672     1880380.971 7   1445045.60223
 91  4 10 22 24 15.0000000  0  6G 2G 6G11G16G18G19
  21536906.570    -2343765.206 7  -1723011.22923
  23197654.0084   -3160063.86046  -2421255.96161
  23376987.8134    2454880.74546   1893923.24461
  24283882.492     1440279.539 4   1114215.26021
  23338157.7504    6299989.01546   4832576.25161
  21406321.859     1899997.148 7   1460330.92223
 91  4 10 22 24 30.0000000  0  6G 2G 6G11G16G18G19
  21534166.742    -2358161.013 7  -1734228.68323
  23192653.1884   -3186348.56146  -2441737.44861
  23382588.867     2484308.572 6   1916853.99621
  24287532.789     1459496.024 3   1129189.05821
  23348944.453     6356675.826 6   4876747.60621
  21410067.047     1919677.675 7   1475666.37923
 91  4 10 22 24 45.0000000  0  6G 2G 6G11G16G18G19
  21531441.766    -2372481.764 7  -1745387.65923
  23187651.133    -3212627.795 6  -2462214.67321
  23388215.6954    2513876.08246   1939893.58361
  24291215.586     1478822.629 4   1144248.63721
  23359741.188     6413413.643 6   4920958.70421
  21413823.383     1939423.344 7   1491052.59423
 91  4 10 22 25  0.0000000  0  6G 2G 6G11G16G18G19
  21528730.938    -2386725.529 7  -1756486.64223
  23182651.4534   -3238899.84246  -2482686.31061
  23393868.297     2543584.769 6   1963043.18821
  24294911.1954    1498260.66944   1159395.07361
  23370549.414     6470203.778 6   4965210.56321
  21417594.445     1959236.145 7   1506491.11923
 91  4 10 22 25 15.0000000  0  6G 2G 6G11G16G18G19
  21526035.2584   -2400893.42347  -1767526.50363
  23177653.078    -3265165.554 6  -2503152.99221
  23399549.219     2573433.249 6   1986301.71921
  24298634.984     1517808.948 4   1174627.36321
  23381364.5704    6527044.83846   5009502.11161
  21421376.578     1979114.977 7   1521981.09423
 91  4 10 22 25 30.0000000  0  6G 2G 6G11G16G18G19
  21523352.859    -2414987.168 7  -1778508.59323
  23172655.8284   -3291426.75546  -2523616.17061
  23405255.102     2603419.657 6   2009667.72221
  24302374.070     1537465.350 4   1189943.92221
  23392191.367     6583935.289 6   5053832.13721
  21425175.250     1999058.153 7   1537521.21023
 91  4 10 22 25 45.0000000  0  6G 2G 6G11G16G18G19
  21520685.5164   -2429005.39647  -1789431.82763
  23167659.297    -3317681.665 6  -2544074.43521
  23410988.289     2633545.331 6   2033142.25121
  24306131.469     1557231.001 3   1205345.62421
  23403026.5784    6640876.12146   5098201.43361
  21428980.391     2019067.426 7   1553112.82823
 91  4 10 22 26  0.0000000  0  6G 2G 6G11G16G18G19
  21518031.813    -2442946.022 7  -1800294.59523
  23162665.1414   -3343928.29046  -2564526.24861
  23416749.0474    2663812.18846   2056726.79261
  24309916.875     1577108.022 3   1220834.14721
  23413872.906     6697869.516 6   5142611.68221
  21432801.266     2039144.979 7   1568757.65923
 91  4 10 22 26 15.0000000  0  6G 2G 6G11G16G18G19
  21515393.8054   -2456812.03647  -1811099.22763
  23157672.1884   -3370169.63746  -2584973.95661
  23422533.055     2694216.955 6   2080418.79521
  24313717.500     1597093.203 3   1236406.86321
  23424727.0784    6754911.75946   5187059.99561
  21436634.773     2059287.706 7   1584453.27323
 91  4 10 22 26 30.0000000  0  6G 2G 6G11G16G18G19
  21512768.789    -2470603.884 7  -1821846.06723
  23152679.6564   -3396406.10246  -2605417.85661
  23428345.1884    2724759.01546   2104217.77461
  24317545.5784    1617185.87043
  23435590.563     6812002.091 6   5231545.78021
  21440479.914     2079495.236 7
 91  4 10 22 26 45.0000000  0  6G 2G 6G11G16G18G19
  21510159.188    -2484319.907 7  -1832533.82123
  23147687.688    -3422635.706 6  -2625856.39621
  23434184.344     2755439.859 6   2128124.90121
  24321389.773     1637387.420 3
  23446465.6174    6869142.15546   5276070.31661
  21444337.180     2099769.557 7
 91  4 10 22 27  0.0000000  0  6G 2G 6G11G16G18G19
  21507562.578    -2497964.354 7  -1843165.80523
  23142696.031    -3448862.676 6  -2646292.90121
  23440047.7974    2786255.16246   2152136.79361
  24325249.250     1657693.245 4
  23457346.367     6926327.557 6   5320630.17621
  21448207.648     2120106.595 7
 91  4 10 22 27 15.0000000  0  6G 2G 6G11G16G18G19
  21504979.781    -2511537.213 7  -1853742.00523
  23137705.7894   -3475087.03346  -2666727.36661
  23445936.5474    2817204.74746   2176253.31561
  24329138.227     1678103.338 4
  23468238.0944    6983557.90746   5365225.06461
  21452089.672     2140506.396 7
 91  4 10 22 27 30.0000000  0  6G 2G 6G11G16G18G19
  21502410.688    -2525036.263 7  -1864260.69223
  23132717.586    -3501306.236 6  -2687157.81921
  23451851.8524    2848290.71246   2200476.11861
  24333041.3284    1698620.00143
  23479136.820     7040835.370 6   5409856.65721
  21455984.156     2160971.399 7
 91  4 10 22 27 45.0000000  0  6G 2G 6G11G16G18G19
  21499855.797    -2538461.438 7  -1874721.81423
  23127729.391    -3527520.052 6  -2707584.07021
  23457793.5234    2879512.95946   2224805.09861
  24336964.4224    1719242.65644   1331586.06961
  23490046.727     7098159.489 6   5454524.60721
  21459889.984     2181501.678 7   1679684.82623
 91  4 10 22 28  0.0000000  0  6G 2G 6G11G16G18G19
  21497315.039    -2551814.662 7  -1885126.87223
  23122742.430    -3553730.561 6  -2728007.74321
  23463759.7664    2910869.14046   2249238.45561
  24340908.8134    1739969.21044   1347736.51461
  23500962.141     7155528.076 6   5499227.20121
  21463809.078     2202095.401 7   1695731.86423
 91  4 10 22 28 15.0000000  0  6G 2G 6G11G16G18G19
  21494788.648    -2565092.322 7  -1895473.04723
  23117753.7034   -3579934.02346  -2748425.94361
  23469754.4454    2942362.78546   2273778.92161
  24344873.3364    1760803.10045   1363970.60561
  23511889.773     7212944.680 6   5543967.21721
  21467741.086     2222756.357 7   1711831.29123
 91  4 10 22 28 30.0000000  0  6G 2G 6G11G16G18G19
  21492276.188    -2578297.095 7  -1905762.42723
  23112769.5394   -3606133.13746  -2768840.74061
  23475771.8134    2973990.90446   2298424.17661
  24348856.7034    1781741.52045   1380286.14761
  23522823.2424    7270406.30546   5588742.31561
  21471683.867     2243482.009 7   1727981.12623
 91  4 10 22 28 45.0000000  0  6G 2G 6G11G16G18G19
  21489776.773    -2591430.365 7  -1915996.09123
  23107783.6254   -3632329.06446  -2789253.05961
  23481816.2814    3005752.04446   2323173.08561
  24352866.094     1802782.861 4   1396681.84921
  23533766.938     7327911.343 6   5633551.23421
  21475640.836     2264271.048 7   1744180.35723
 91  4 10 22 29  0.0000000  0  6G 2G 6G11G16G18G19
  21487291.352    -2604487.385 7  -1926170.34123
  23102800.9144   -3658516.97546  -2809659.13361
  23487888.0164    3037650.71646   2348029.15561
  24356889.688     1823931.441 5   1413161.17521
  23544719.352     7385464.257 6   5678397.47621
  21479612.211     2285128.469 7   1760432.87323
 91  4 10 22 29 15.0000000  0  6G 2G 6G11G16G18G19
  21484821.281    -2617469.538 7  -1936286.25223
  23097818.9774   -3684698.07946  -2830059.89961
  23493983.4304    3069685.39146   2372991.20061
  24360934.078     1845185.986 5   1429723.01821
  23555679.547     7443063.414 6   5723279.73121
  21483591.422     2306052.910 7   1776737.61423
 91  4 10 22 29 30.0000000  0  6G 2G 6G11G16G18G19
  21482364.375    -2630382.224 7  -1946348.03323
  23092836.625    -3710877.620 6  -2850459.46321
  23500102.930     3101850.578 6   2398054.94621
  24364998.359     1866540.497 5   1446362.77721
  23566649.008     7500703.308 6   5768193.73821
  21487589.383     2327039.058 6   1793090.43623
 91  4 10 22 29 45.0000000  0  6G 2G 6G11G16G18G19
  21479920.891    -2643222.015 7  -1956353.01423
  23087856.2894   -3737052.24546  -2870855.18261
  23506250.1804    3134149.25346   2423222.70561
  24369081.5004    1887998.54045   1463083.21061
  23577625.844     7558387.197 6   5813142.02521
  21491590.492     2348090.497 7   1809494.13623
 91  4 10 22 30  0.0000000  0  6G 2G 6G11G16G18G19
  21477491.883    -2655987.226 7  -1966299.87823
  23082875.0234   -3763220.17646  -2891245.68961
  23512423.1174    3166582.91646   2448495.65361
  24373182.8134    1909561.54945   1479885.47761
  23588610.9924    7616116.23246   5858125.48261
  21495610.711     2369209.009 7   1825950.09823
 91  4 10 22 30 15.0000000  0  6G 2G 6G11G16G18G19
  21475075.664    -2668681.186 7  -1976191.22323
  23077896.9924   -3789384.70246  -2911633.54461
  23518618.734     3199147.910 6   2473870.93321
  24377305.883     1931225.601 5   1496766.41121
  23599604.3984    7673886.69746   5903141.23061
  21499640.789     2390391.034 7   1842455.55823
 91  4 10 22 30 30.0000000  0  5G 2G 6G11G18G19
  21472674.391    -2681299.575 7  -1986023.68223
  23072919.1724   -3815541.44246  -2932015.33161
  23524841.0784    3231848.53146   2499351.89961
  23610606.359     7731702.785 6   5948192.53521
  21503688.070     2411641.233 6   1859014.13723
 91  4 10 22 30 45.0000000  0  5G 2G 6G11G18G19
  21470288.125    -2693842.020 7  -1995796.96423
  23067943.719    -3841689.640 6  -2952390.47721
  23531089.4694    3264685.11946   2524938.82061
  23621617.547     7789564.825 6   5993279.63821
  21507740.586     2432960.386 7   1875626.44623
 91  4 10 22 31  0.0000000  0  5G 2G 6G11G18G19
  21467913.664    -2706317.845 7  -2005518.33123
  23062967.547    -3867838.666 6  -2972766.26021
  23537363.0634    3297648.09146   2550624.21361
  23632635.578     7847463.027 6   6038394.92021
  21511814.492     2454339.191 6   1892285.23523
 91  4 10 22 31 15.0000000  0  5G 2G 6G11G18G19
  21465552.9384   -2718723.34147  -2015184.89263
  23057990.7584   -3893984.83446  -2993139.81161
  23543660.3204    3330740.96246   2576410.83361
  23643660.906     7905400.828 6   6083541.05721
  21515889.422     2475781.462 7   1908993.48323
 91  4 10 22 31 30.0000000  0  5G 2G 6G11G18G19
  21463205.563    -2731056.292 7  -2024794.92823
  23053016.445    -3920125.568 6  -3013509.13321
  23549982.8594    3363965.71246   2602300.21961
  23654693.961     7963380.569 6   6128719.87721
  21519985.695     2497289.528 6   1925753.00023
 91  4 10 22 31 45.0000000  0  5G 2G 6G11G18G19
  21460873.6174   -2743310.14647  -2034343.32863
  23048043.9774   -3946254.02546  -3033868.88761
  23556331.4224    3397328.79046   2628297.38961
  23665737.289     8021408.554 6   6173936.29521
  21524089.188     2518870.151 7   1942569.05023
 91  4 10 22 32  0.0000000  0  5G 2G 6G11G18G19
  21458555.5634   -2755494.95347  -2043837.92463
  23043072.1804   -3972380.43346  -3054227.03561
  23562703.9534    3430819.85746   2654394.29161
  23676785.6254    8079474.21146   6219182.05661
  21528211.570     2540513.256 6   1959433.79023
 91  4 10 22 32 15.0000000  0  5G 2G 6G11G18G19
  21456249.4384   -2767610.53047  -2053278.57863
  23038101.422    -3998504.691 6  -3074583.51421
  23569102.1954    3464438.77046   2680590.80661
  23687843.6414    8137577.42146   6264457.08461
  21532337.680     2562219.095 7   1976347.41423
 91  4 10 22 32 30.0000000  0  5G 2G 6G11G18G19
  21453958.4924   -2779650.38947  -2062660.22863
  23033131.289    -4024620.010 6  -3094933.02321
  23575525.172     3498191.792 6   2706891.82921
  23698907.992     8195724.505 6   6309766.29621
  21536483.211     2583994.294 7   1993315.08623
 91  4 10 22 32 45.0000000  0  5G 2G 6G11G18G19
  21451680.1644   -2791623.92047  -2071990.19663
  23028163.6884   -4050735.85546  -3115282.95261
  23581970.6804    3532069.46746   2733289.97661
  23709981.570     8253905.852 6   6355102.21621
  21540637.742     2605829.620 7   2010329.60723
 91  4 10 22 33  0.0000000  0  5G 2G 6G11G18G19
  21449414.961    -2803528.215 7  -2081266.21723
  23023192.578    -4076848.920 6  -3135630.71021
  23588442.016     3566074.467 6   2759787.33521
  23721059.9144    8312124.16246   6400466.92361
  21544808.344     2627728.077 6   2027393.32323
 91  4 10 22 33 15.0000000  0  5G 2G 6G11G18G19
  21447163.828    -2815359.169 7  -2090485.08723
  23018224.4534   -4102955.11846  -3155973.11461
  23594939.594     3600210.533 6   2786386.82421
  23732145.469     8370383.242 6   6445863.40621
  21548983.844     2649693.781 7   2044509.43823
 91  4 10 22 33 30.0000000  0  5G 2G 6G11G18G19
  21444924.133    -2827123.849 7  -2099652.31523
  23013257.3364   -4129061.32346  -3176315.52061
  23601458.0864    3634470.56446   2813082.91761
  23743238.031     8428675.749 6   6491285.94321
  21553177.5864    2671719.98547   2061672.69963
 91  4 10 22 33 45.0000000  0  5G 2G 6G11G18G19
  21442698.625    -2838819.775 7  -2108765.96923
  23008289.852    -4155165.100 6  -3196656.03621
  23608001.2344    3668856.73146   2839877.28761
  23754337.477     8487003.932 5   6536736.26321
  21557379.813     2693809.306 7   2078885.14523
 91  4 10 22 34  0.0000000  0  5G 2G 6G11G18G19
  21440486.391    -2850443.057 7  -2117823.01523
  23003323.7734   -4181262.24546  -3216991.38361
  23614570.1024    3703372.83846   2866772.91961
  23765445.852     8545371.771 5   6582217.49821
  21561595.5784    2715965.86347   2096149.98363
 91  4 10 22 34 15.0000000  0  5G 2G 6G11G18G19
  21438287.781    -2861998.100 7  -2126826.89423
  22998357.7664   -4207357.22946  -3237325.05361
  23621162.1174    3738014.21546   2893766.16961
  23776557.086     8603774.100 5   6627725.58921
  21565825.609     2738185.299 7   2113463.81423
 91  4 10 22 34 30.0000000  0  5G 2G 6G11G18G19
  21436102.375    -2873481.706 7  -2135775.10223
  22993393.2504   -4233446.63246  -3257654.37461
  23627778.578     3772784.027 6   2920859.48421
  23787680.2894    8662214.15745   6673263.09561
  21570065.414     2760470.892 7   2130829.19723
 91  4 10 22 34 45.0000000  0  5G 2G 6G11G18G19
  21433930.531    -2884895.314 7  -2144668.76823
  22988429.9144   -4259531.75146  -3277980.34761
  23634418.2114    3807680.44446   2948051.45761
  23798808.5314    8720690.33745   6718828.74061
  21574317.8524    2782821.14347   2148244.96663
 91  4 10 22 35  0.0000000  0  5G 2G 6G11G18G19
  21431771.484    -2896239.862 7  -2153508.62223
  22983466.7734   -4285613.53946  -3298303.73461
  23641083.4454    3842702.24646   2975341.13761
  23809941.6954    8779201.42545   6764421.58161
  21578586.219     2805235.331 7   2165710.54723
 91  4 10 22 35 15.0000000  0  5G 2G 6G11G18G19
  21429625.695    -2907516.046 7  -2162295.21023
  22978503.2814   -4311692.56746  -3318624.97061
  23647770.750     3877848.597 6   3002727.86321
  23821082.5864    8837746.18445   6810040.67361
  21582860.352     2827713.038 7   2183225.63423
 91  4 10 22 35 30.0000000  0  5G 2G 6G11G18G19
  21427492.406    -2918727.954 7  -2171031.71423
  22973540.4454   -4337772.74246  -3338947.09561
  23654482.5234    3913115.14446   3030208.24961
  23832229.4144    8896320.47945   6855682.76761
  21587150.188     2850250.153 6   2200787.00323
 91  4 10 22 35 45.0000000  0  5G 2G 6G11G18G19
  21425372.055    -2929874.790 7  -2179717.51223
  22968575.8754   -4363853.05746  -3359269.33361
  23661216.625     3948502.613 6   3057782.85621
  23843381.875     8954924.779 5   6901348.24121
  21591448.828     2872847.667 7   2218395.44623
 91  4 10 22 36  0.0000000  0  5G 2G 6G11G18G19
  21423262.797    -2940956.430 7  -2188352.50323
  22963615.047    -4389933.281 6  -3379591.49621
  23667973.914     3984010.897 6   3085451.60421
  23854538.6414    9013559.19545   6947037.19561
  21595763.453     2895505.685 6   2236051.02723
 91  4 10 22 36 15.0000000  0  5G 2G 6G11G18G19
  21421166.914    -2951969.249 7  -2196933.87723
  22958652.5554   -4416009.80646  -3399910.78161
  23674754.078     4019643.363 6   3113217.12021
  23865704.273     9072227.060 5   6992752.20221
  21600085.195     2918228.000 6   2253756.71123
 91  4 10 22 36 30.0000000  0  5G 2G 6G11G18G19
  21419084.703    -2962908.466 7  -2205457.89323
  22953692.7344   -4442077.62446  -3420223.27361
  23681559.703     4055404.566 6   3141082.94321
  23876876.6024    9130932.94945   7038496.83361
  21604424.898     2941019.601 6   2271516.38623
 91  4 10 22 36 45.0000000  0  5G 2G 6G11G18G19
  21417015.938    -2973779.777 7  -2213928.99723
  22948732.672    -4468142.424 6  -3440533.43321
  23688387.8054    4091288.45646   3169044.37561
  23888053.195     9189670.589 5   7084266.21021
  21608772.016     2963874.790 6   2289325.60223
 91  4 10 22 37  0.0000000  0  5G 2G 6G11G18G19
  21414960.703    -2984581.187 7  -2222345.63223
  22943773.3364   -4494201.90146  -3460839.42161
  23695240.1644    4127296.91546   3197102.88061
  23899236.8984    9248441.87345   7130061.81261
  21613133.813     2986795.776 6   2307186.09823
 91  4 10 22 37 15.0000000  0  5G 2G 6G11G18G19
  21412918.164    -2995311.632 7  -2230706.97023
  22938815.906    -4520255.045 6  -3481140.49821
  23702116.5164    4163430.64946   3225258.99961
  23910426.4534    9307247.52145   7175884.18361
  21617507.477     3009783.779 7   2325098.80623
 91  4 10 22 37 30.0000000  0  5G 2G 6G11G18G19
  21410890.641    -3005971.479 7  -2239013.29523
  22933858.375    -4546302.150 6  -3501436.85821
  23709015.945     4199689.241 6   3253512.39921
  23921624.4924    9366087.10545   7221732.99261
  21621895.609     3032838.425 6   2343063.44423
 91  4 10 22 37 45.0000000  0  5G 2G 6G11G18G19
  21408874.6644   -3016563.82547  -2247267.03463
  22928902.0234   -4572346.00746  -3521730.70061
  23715939.555     4236069.427 6   3281860.54621
  23932826.211     9424957.405 5   7267605.73521
  21626293.4534    3055957.04546   2361077.91963
 91  4 10 22 38  0.0000000  0  5G 2G 6G11G18G19
  21406871.609    -3027088.999 7  -2255468.42123
  22923947.1334   -4598386.63546  -3542022.02761
  23722885.250     4272570.627 6   3310302.99921
  23944035.602     9483857.807 5   7313501.93221
  21630707.656     3079139.284 6   2379141.98223
 91  4 10 22 38 15.0000000  0  5G 2G 6G11G18G19
  21404881.898    -3037543.725 7  -2263614.91623
  22918993.805    -4624420.749 6  -3562308.26621
  23729854.797     4309195.974 6   3338842.18321
  23955249.9064    9542791.56345   7359424.12861
  21635129.203     3102388.605 7   2397258.30723
 91  4 10 22 38 30.0000000  0  5G 2G 6G11G18G19
  21402906.227    -3047928.223 7  -2271706.68223
  22914039.289    -4650448.521 6  -3582589.56921
  23736848.688     4345945.007 6   3367477.74321
  23966471.3364    9601757.83245   7405371.66461
  21639567.469     3125704.946 6   2415426.86223
 91  4 10 22 38 45.0000000  0  5G 2G 6G11G18G19
  21400943.969    -3058238.253 7  -2279740.42723
  22909087.4224   -4676465.67946  -3602862.59661
  23743865.328     4382821.654 6   3396212.74921
  23977699.7344    9660760.64945   7451347.67361
  21644016.8674    3149092.48847   2433650.88963
 91  4 10 22 39  0.0000000  0  5G 2G 6G11G18G19
  21398994.625    -3068477.054 7  -2287718.66823
  22904138.414    -4702475.147 6  -3623129.63021
  23750906.211     4419822.458 6   3425044.49521
  23988933.609     9719796.472 5   7497349.38821
  21648481.2114    3172548.17546   2451928.02263
 91  4 10 22 39 15.0000000  0  5G 2G 6G11G18G19
  21397059.703    -3078647.712 7  -2295643.81023
  22899191.438    -4728479.780 6  -3643392.90121
  23757970.6254    4456944.18646   3453970.47961
  24000174.7504    9778862.28145   7543374.48861
  21652956.617     3196069.099 7   2470255.99023
 91  4 10 22 39 30.0000000  0  5G 2G 6G11G18G19
  21395138.914    -3088747.359 7  -2303513.61523
  22894242.539    -4754476.735 6  -3663650.18321
  23765058.461     4494189.483 6   3482992.74221
  24011420.406     9837960.592 5   7589424.91721
  21657445.203     3219658.192 6   2488637.08023
 91  4 10 22 39 45.0000000  0  5G 2G 6G11G18G19
  21393230.047    -3098776.200 7  -2311328.25223
  22889296.492    -4780466.095 6  -3683901.55321
  23772169.5944    4531557.88846   3512110.94461
  24022672.383     9897090.652 5   7635500.07921
  21661946.6724    3243315.24546   2507071.12263
 91  4 10 22 40  0.0000000  0  5G 2G 6G11G18G19
  21391334.969    -3108731.441 7  -2319085.53723
  22884353.758    -4806444.997 6  -3704144.77321
  23779304.2274    4569051.89446   3541327.01261
  24033931.016     9956255.429 5   7681602.30821
  21666463.914     3267043.253 6   2525560.45523
 91  4 10 22 40 15.0000000  0  5G 2G 6G11G18G19
  21389454.328    -3118617.851 7  -2326789.18923
  22879412.016    -4832417.894 6  -3724383.31721
  23786462.242     4606666.447 6   3570637.01721
  24045197.0864   10015449.91245   7727727.65961
  21670989.594     3290837.689 6   2544101.54823
 91  4 10 22 40 30.0000000  0  5G 2G 6G11G18G19
  21387585.930    -3128436.175 7  -2334439.78623
  22874469.594    -4858385.673 6  -3744617.86421
  23793641.9774    4644400.52346   3600040.14761
  24056465.4224   10074672.86245   7773875.20261
  21675531.3284    3314697.81146   2562693.82563
 91  4 10 22 40 45.0000000  0  5G 2G 6G11G18G19
  21385730.586    -3138182.574 7  -2342034.34123
  22869530.195    -4884344.106 6  -3764845.13721
  23800845.922     4682257.817 6   3629539.30121
  24067742.375    10133928.092 5   7820047.90521
  21680084.4224    3338627.73746   2581340.49663
 91  4 10 22 41  0.0000000  0  5G 2G 6G11G18G19
  21383889.758    -3147856.964 7  -2349572.78323
  22864592.703    -4910292.798 6  -3785064.82221
  23808073.438     4720238.346 6   3659134.47721
  24079023.7504   10193215.47945   7866245.65661
  21684652.0634    3362627.62446   2600041.67663
 91  4 10 22 41 15.0000000  0  5G 2G 6G11G18G19
  21382062.109    -3157461.116 7  -2357056.49123
  22859656.023    -4936233.744 6  -3805278.46921
  23815324.1254    4758339.89646   3688823.95861
  24090311.2114   10252532.62645   7912466.60261
  21689230.7274    3386695.77746   2618796.05263
 91  4 10 22 41 30.0000000  0  5G 2G 6G11G18G19
  21380248.078    -3166994.780 7  -2364485.27923
  22854719.828    -4962166.564 6  -3825485.78621
  23822597.633     4796562.523 6   3718607.78321
  24101604.4614   10311879.60045   7958710.78961
  21693828.2894    3410832.47546   2637603.84063
 91  4 10 22 41 45.0000000  0  5G 2G 6G11G18G19
  21378446.109    -3176461.266 7  -2371861.71923
  22849786.906    -4988094.416 6  -3845689.23221
  23829893.617     4834902.695 6   3748483.19621
  24112903.617    10371253.108 5   8004975.65421
  21698429.234     3435034.471 6   2656462.51223
 91  4 10 22 42  0.0000000  0  5G 2G 6G11G18G19
  21376659.086    -3185859.044 7  -2379184.61923
  22844853.648    -5014015.405 6  -3865887.32421
  23837212.359     4873361.859 6   3778451.33021
  24124206.7664   10430654.48045   8051262.23661
  21703053.398     3459303.691 6   2675373.56823
 91  4 10 22 42 15.0000000  0  5G 2G 6G11G18G19
  21374883.180    -3195187.901 7  -2386453.81623
  22839922.938    -5039929.211 6  -3886079.82821
  23844554.172     4911939.881 6   3808512.07921
  24135517.094    10490083.680 5   8097570.48121
  21707679.8444    3483640.34547   2694337.16163
 91  4 10 22 42 30.0000000  0  5G 2G 6G11G18G19
  21373120.516    -3204449.342 7  -2393670.47523
  22834991.313    -5065837.141 6  -3906267.74921
  23851916.867     4950635.172 6   3838664.20721
  24146830.086    10549539.052 5   8143899.14121
  21712324.5004    3508043.19546   2713352.34463
 91  4 10 22 42 45.0000000  0  5G 2G 6G11G18G19
  21371369.750    -3213643.504 7  -2400834.71923
  22830064.3674   -5091739.29246  -3926451.17261
  23859302.5864    4989447.13646   3868907.25461
  24158149.430    10609020.076 5   8190247.77421
  21716979.6484    3532511.95846   2732418.88063
 91  4 10 22 43  0.0000000  0  5G 2G 6G11G18G19
  21369634.0394   -3222770.28547  -2407946.45463
  22825135.328    -5117635.383 6  -3946629.87321
  23866711.977     5028375.754 6   3899241.19721
  24169473.0864   10668526.40045   8236616.11561
  21721652.8594    3557047.08746   2751537.13463
 91  4 10 22 43 15.0000000  0  5G 2G 6G11G18G19
  21367909.1414   -3231834.62948  -2415009.53663
  22820209.539    -5143530.234 6  -3966807.59921
  23874139.969     5067415.787 6   3929661.95421
  24180802.7114   10728052.93945   8283000.21061
  21726329.5784    3581643.63446   2770703.24463
 91  4 10 22 43 30.0000000  0  5G 2G 6G11G18G19
  21366197.289    -3240833.465 8  -2422021.57323
  22815281.523    -5169420.727 6  -3986981.93121
  23881591.1884    5106570.04846   3960171.73761
  24192132.8284   10787602.61845   8329402.35161
  21731026.2734    3606304.74146   2789919.65863
 91  4 10 22 43 45.0000000  0  5G 2G 6G11G18G19
  21364495.9774   -3249769.60748  -2428984.75763
  22810355.023    -5195309.394 6  -4007154.84021
  23889063.148     5145835.646 6   3990768.25721
  24203468.9144   10847172.49445   8375820.20961
  21735726.5944    3631027.82346   2809184.36563
 91  4 10 22 44  0.0000000  0  5G 2G 6G11G18G19
  21362807.344    -3258642.565 8  -2435898.70823
  22805428.164    -5221195.431 6  -4027325.70121
  23896554.938     5185212.832 6   4021451.73821
  24214809.7504   10906762.87345   8422254.05361
  21740446.5704    3655813.56946   2828497.90263
 91  4 10 22 44 15.0000000  0  5G 2G 6G11G18G19
  21361131.117    -3267451.448 8  -2442762.73423
  22800503.531    -5247078.064 6  -4047493.91721
  23904070.570     5224702.258 6   4052222.67621
  24226154.0634   10966374.37445   8468704.35561
  21745171.4844    3680662.94346   2847861.01763
 91  4 10 22 44 30.0000000  0  5G 2G 6G11G18G19
  21359466.7584   -3276195.32848  -2449576.10563
  22795577.352    -5272956.192 6  -4067658.62121
  23911607.6094    5264304.45646   4083081.49361
  24237500.6174   11026007.52945   8515171.52561
  21749915.6484    3705576.80846   2867274.39163
 91  4 10 22 44 45.0000000  0  5G 2G 6G11G18G19
  21357816.680    -3284872.037 8  -2456337.13423
  22790654.836    -5298827.455 6  -4087817.97021
  23919163.6094    5304021.36946   4114029.69361
  24248852.7114   11085663.99345   8561656.86861
  21754667.8284    3730557.45946   2886739.79963
 91  4 10 22 45  0.0000000  0  5G 2G 6G11G18G19
  21356178.6414   -3293479.17448  -2463043.95263
  22785734.469    -5324689.209 6  -4107969.91521
  23926745.5554    5343855.25846   4145069.04961
  24260210.414    11145346.424 5   8608162.44321
  21759433.9844    3755607.52646   2906259.30662
 91  4 10 22 45 15.0000000  0  5G 2G 6G11G18G19
  21354552.5164   -3302019.33248  -2469698.57963
  22780814.6484   -5350543.94246  -4128116.39261
  23934346.758     5383803.242 6   4176197.30721
  24271573.523    11205051.856 5   8654685.92421
  21764212.9774    3780724.58546   2925831.00863
 91  4 10 22 45 30.0000000  0  5G 2G 6G11G18G19
  21352940.188    -3310495.836 8  -2476303.60623
  22775894.8284   -5376394.85446  -4148259.89461
  23941968.2584    5423861.66046   4207411.61161
  24282936.6484   11264776.70045   8701224.55161
  21769006.7894    3805905.55646   2945452.51563
 91  4 10 22 45 45.0000000  0  5G 2G 6G11G18G19
  21351339.625    -3318906.868 8  -2482857.61323
  22770976.1804   -5402240.04146  -4168398.93361
  23949613.578     5464032.102 6   4238713.21221
  24294306.070    11324522.609 5   8747779.58221
  21773808.3914    3831152.14546   2965125.15163
 91  4 10 22 46  0.0000000  0  5G 2G 6G11G18G19
  21349750.7664   -3327254.04548  -2489361.86263
  22766059.328    -5428080.809 6  -4188534.52221
  23957279.188     5504312.797 6   4270100.71621
  24305681.859    11384287.705 5   8794349.57221
  21778626.3914    3856462.85746   2984847.75063
 91  4 10 22 46 15.0000000  0  5G 2G 6G11G18G19
  21348173.9614   -3335537.05148  -2495816.11363
  22761142.5314   -5453916.83846  -4208666.43761
  23964965.344     5544703.747 6   4301574.12921
  24317057.063    11444071.913 5   8840934.45021
  21783454.3914    3881838.18746   3004620.70163
 91  4 10 22 46 30.0000000  0  5G 2G 6G11G18G19
  21346610.773    -3343757.438 8  -2502221.57023
  22756226.6254   -5479749.33346  -4228795.58361
  23972671.688     5585203.166 6   4333132.07221
  24328437.219    11503873.658 5   8887532.99821
  21788296.6644    3907276.80046   3024442.96862
 91  4 10 22 46 45.0000000  0  5G 2G 6G11G18G19
  21345058.4064   -3351912.94448  -2508576.47063
  22751312.609    -5505575.984 6  -4248920.17821
  23980399.547     5625813.136 6   4364776.15721
  24339820.9924   11563694.75545   8934146.62861
  21793147.930     3932781.030 6   3044316.36623
 91  4 10 22 47  0.0000000  0  5G 2G 6G11G18G19
  21343516.5234   -3360010.94348  -2514886.56463
  22746396.0864   -5531403.98046  -4269045.81661
  23988147.3204    5666526.13046   4396500.52861
  24351207.1414   11623527.90945   8980769.65261
  21798013.8674    3958343.55746   3064235.19063
 91  4 10 22 47 15.0010000  0  5G 2G 6G11G18G19
  21341988.1304   -3368048.96848  -2521149.91963
  22741482.5914   -5557231.65546  -4289171.21361
  23995914.2004    5707347.56346   4428309.39861
  24362595.9034   11683379.70445   9027407.19961
  21802888.8494    3983969.27746   3084203.25363
 91  4 10 22 47 30.0010000  0  5G 2G 6G11G18G19
  21340469.5444   -3376027.29348  -2527366.75963
  22736568.1534   -5583057.01046  -4309294.79361
  24003700.958     5748270.445 6   4460197.31521
  24373987.528    11743240.624 5   9074051.86521
  21807779.4424    4009653.56546   3104216.95062
 91  4 10 22 47 45.0010000  0  5G 2G 6G11G18G19
  21338962.2004   -3383948.28148  -2533538.91763
  22731651.9974   -5608883.33346  -4329419.13861
  24011509.5054    5789295.39746   4492164.76961
  24385380.302    11803112.664 5   9120705.19921
  21812675.7164    4035396.60346   3124276.43263
 91  4 10 22 48  0.0010000  0  5G 2G 6G11G18G19
  21337465.7164   -3391810.52548  -2539665.30763
  22726738.419    -5634708.953 6  -4349542.92421
  24019336.185     5830423.565 6   4524212.63921
  24396776.966    11862997.042 5   9167368.13221
  21817587.4424    4061199.80946   3144382.79763
 91  4 10 22 48 15.0010000  0  5G 2G 6G11G18G19
  21335981.3104   -3399610.11448  -2545742.87663
  22721825.3174   -5660530.03846  -4369663.17461
  24027181.6854    5871658.42646   4556343.66461
  24408175.5994   11922896.93845   9214043.15261
  21822508.5214    4087067.04246   3164539.04963
 91  4 10 22 48 30.0010000  0  5G 2G 6G11G18G19
  21334509.6924   -3407348.78648  -2551772.97263
  22716911.4274   -5686347.94946  -4389780.96561
  24035049.528     5912998.366 6   4588556.55621
  24419577.606    11982811.115 5   9260729.31921
  21827444.3174    4112996.90846   3184744.10663
 91  4 10 22 48 45.0010000  0  5G 2G 6G11G18G19
  21333048.8414   -3415025.73448  -2557754.97663
  22712000.138    -5712161.773 6  -4409895.56321
  24042935.724     5954443.709 6   4620851.58721
  24430981.185    12042739.774 5   9307426.75221
  21832388.9424    4138990.34346   3204998.69962
 91  4 10 22 49  0.0010000  0  5G 2G 6G11G18G19
  21331598.5284   -3422642.32648  -2563689.94663
  22707089.2554   -5737972.89146  -4430008.05961
  24050843.271     5995992.720 6   4653227.39321
  24442387.614    12102681.220 5   9354134.16921
  21837348.7714    4165045.84246   3225301.65462
 91  4 10 22 49 15.0010000  0  5G 2G 6G11G18G19
  21330160.2084   -3430199.76548  -2569578.82763
  22702176.2314   -5763782.12246  -4450119.07961
  24058769.724     6037644.080 6   4685682.95321
  24453798.1064   12162634.15345   9400850.53261
  21842317.2084    4191162.33446   3245652.13963
 91  4 10 22 49 30.0010000  0  5G 2G 6G11G18G19
  21328733.9744   -3437696.19248  -2575420.16963
  22697265.9114   -5789587.54046  -4470227.13161
  24066713.3884    6079399.50046   4718219.61261
  24465208.9504   12222600.30845   9447577.18961
  21847300.6854    4217341.89646   3266051.77162
 91  4 10 22 49 45.0010000  0  5G 2G 6G11G18G19
  21327318.3104   -3445134.93648  -2581216.56363
  22692354.8174   -5815392.00846  -4490334.45661
  24074679.3414    6121255.35446   4750834.52561
  24476621.263    12282576.344 5   9494311.54621
  21852293.1384    4243581.37846   3286498.09262
 91  4 10 22 50  0.0010000  0  5G 2G 6G11G18G19
  21325914.9034   -3452510.97648  -2586964.09663
  22687446.3414   -5841190.69046  -4510437.23661
  24082664.255     6163216.322 6   4783531.33921
  24488037.6774   12342566.36145   9541056.80861
  21857299.1614    4269885.85046   3306995.05363
 91  4 10 22 50 15.0010000  0  5G 2G 6G11G18G19
  21324522.3884   -3459827.02247  -2592664.88163
  22682536.6304   -5866985.90546  -4530537.33661
  24090669.0834    6205279.39346   4816307.71361
  24499456.1464   12402567.99645   9587811.11061
  21862315.2634    4296252.74846   3327540.66062
 91  4 10 22 50 30.0010000  0  5G 2G 6G11G18G19
  21323142.2944   -3467078.77548  -2598315.56963
  22677630.3334   -5892773.15646  -4550631.24061
  24098692.5604    6247448.70646   4849166.87761
  24510877.567    12462585.184 5   9634577.54321
  21867347.7634    4322686.41546   3348138.29062
 91  4 10 22 50 45.0010000  0  5G 2G 6G11G18G19
  21321775.3964   -3474264.16948  -2603914.54763
  22672724.333    -5918550.519 6  -4570717.42121
  24106737.872     6289725.937 6   4882110.13021
  24522301.739    12522619.477 5   9681357.28921
  21872388.0284    4349189.03446   3368789.64862
 91  4 10 22 51  0.0010000  0  5G 2G 6G11G18G19
  21320417.8024   -3481396.29047  -2609472.01363
  22667819.169    -5944330.866 6  -4590805.93121
  24114801.302     6332097.704 6   4915127.04121
  24533724.9274   12582657.71645   9728140.10961
  21877443.1694    4375747.59746   3389484.60162
 91  4 10 22 51 15.0010000  0  5G 2G 6G11G18G19
  21319072.1304   -3488465.22548  -2614980.24063
  22662915.0214   -5970104.05146  -4610888.86261
  24122884.2554    6374573.70746   4948225.18261
  24545152.2784   12642709.33745   9774933.38061
  21882509.2634    4402372.21846   3410231.03162
 91  4 10 22 51 30.0010000  0  5G 2G 6G11G18G19
  21317739.6464   -3495472.27848  -2620440.24763
  22658010.9894   -5995870.87346  -4630966.83461
  24130986.200     6417152.629 6   4981403.51221
  24556583.606    12702773.243 5   9821736.21521
  21887589.1694    4429061.81346   3431028.08562
 91  4 10 22 51 45.0010000  0  5G 2G 6G11G18G19
  21316417.5994   -3502419.00848  -2625853.24863
  22653108.1464   -6021632.93246  -4651041.09261
  24139109.458     6459832.670 6   5014660.64421
  24568015.2634   12762847.58345   9868547.17561
  21892679.3174    4455814.84146   3451874.57062
 91  4 10 22 52  0.0010000  0  5G 2G 6G11G18G19
  21315107.3564   -3509304.78148  -2631218.74663
  22648207.2554   -6047389.46146  -4671111.04761
  24147249.771     6502614.079 6   5047996.76121
  24579450.5674   12822932.65845   9915366.49061
  21897783.4504    4482631.96546   3472770.99762
 91  4 10 22 52 15.0010000  0  5G 2G 6G11G18G19
  21313810.2164   -3516121.14348  -2636530.16363
  22643309.3804   -6073131.84746  -4691169.98061
  24155411.1694    6545505.15546   5081418.34061
  24590887.481    12883036.772 5   9962200.65421
  21902899.1534    4509521.85346   3493724.12662
 91  4 10 22 52 30.0010000  0  5G 2G 6G11G18G19
  21312521.8254   -3522889.28448  -2641804.00063
  22638408.5524   -6098880.95146  -4711234.15561
  24163591.4274    6588484.29646   5114908.54061
  24602325.0914   12943138.41245  10009032.86461
  21908027.2474    4536463.31946   3514717.44962
 91  4 10 22 52 45.0010000  0  5G 2G 6G11G18G19
  21311243.4584   -3529604.38248  -2647036.50663
  22633508.8724   -6124631.77646  -4731299.66161
  24171785.802     6631556.228 6   5148471.03221
  24613762.763    13003242.528 5  10055867.02121
  21913162.8254    4563461.63546   3535755.06462
 91  4 10 22 53  0.0010000  0  5G 2G 6G11G18G19
  21309978.0444   -3536259.08948  -2652221.95363
  22628609.3564   -6150376.86546  -4751360.70261
  24180002.669     6674727.987 6   5182111.31821
  24625200.6774   13063355.94045  10102708.43761
  21918312.6694    4590524.08446   3556842.66162
 91  4 10 22 53 15.0010000  0  5G 2G 6G11G18G19
  21308723.3414   -3542850.91148  -2657358.40163
  22623711.4894   -6176113.50246  -4771415.15561
  24188237.903     6718001.810 6   5215831.12921
  24636642.497    13123480.843 5  10149558.80221
  21923476.3804    4617653.25246   3577982.23562
 91  4 10 22 53 30.0010000  0  5G 2G 6G11G18G19
  21307478.9894   -3549389.38948  -2662453.28363
  22618813.7554   -6201851.05046  -4791470.32261
  24196489.177     6761367.787 6   5249622.74521
  24648084.138    13183607.556 5  10196410.55621
  21928649.4814    4644839.76246   3599166.50362
 91  4 10 22 53 45.0010000  0  5G 2G 6G11G18G19
  21306245.1854   -3555873.80548  -2667506.03563
  22613916.2394   -6227588.56746  -4811525.46161
  24204758.302     6804826.540 6   5283486.66021
  24659527.192    13243736.815 5  10243264.34321
  21933834.1144    4672084.53646   3620396.17062
 91  4 10 22 54  0.0010000  0  4G 2G 6G11G19
  21305022.4034   -3562298.69848  -2672512.40763
  22609019.8644   -6253320.55446  -4831576.29361
  24213048.5364    6848383.23846   5317426.89661
  21939032.4034    4699392.96646   3641675.43562
 91  4 10 22 54 15.0010000  0  4G 2G 6G11G19
  21303809.8964   -3568671.14648  -2677477.91163
  22604122.1144   -6279053.71546  -4851628.04061
  24221354.341     6892030.559 6   5351437.74321
  21944238.4194    4726758.26246   3662999.01462
 91  4 10 22 54 30.0010000  0  4G 2G 6G11G19
  21302608.0604   -3574985.01448  -2682397.77063
  22599226.6304   -6304781.78946  -4871675.82761
  24229677.614     6935774.352 6   5385523.77821
  21949461.9034    4754186.47146   3684371.61762
 91  4 10 22 54 45.0010000  0  4G 2G 6G11G19
  21301418.3334   -3581236.79448  -2687269.24863
  22594332.4194   -6330500.96646  -4891716.68161
  24238021.786     6979617.936 6   5419687.55321
  21954690.1384    4781681.46646   3705796.25562
 91  4 10 22 55  0.0010000  0  4G 2G 6G11G19
  21300240.9584   -3587426.04948  -2692092.00863
  22589439.3334   -6356211.00646  -4911750.41261
  24246382.575     7023561.218 6   5453929.02021
  21959935.0674    4809243.52546   3727273.15562
 91  4 10 22 55 15.0010000  0  4G 2G 6G11G19
  21299074.5364   -3593556.40948  -2696868.87163
  22584548.4194   -6381915.01446  -4931779.44861
  24254763.1464    7067600.35446   5488245.17761
  21965193.0834    4836869.20346   3748799.62062
 91  4 10 22 55 30.0010000  0  4G 2G 6G11G19
  21297919.0994   -3599626.77548  -2701598.98863
  22579658.6614   -6407611.84146  -4951802.89261
  24263162.856     7111736.310 6   5522636.78121
  21970463.8494    4864559.57146   3770376.49962
 91  4 10 22 55 45.0010000  0  4G 2G 6G11G19
  21296776.6144   -3605629.75248  -2706276.59563
  22574771.7554   -6433293.70546  -4971814.67761
  24271580.6144    7155976.35546   5557109.48761
  21975744.5054    4892322.43246   3792009.86362
 91  4 10 22 56  0.0010000  0  4G 2G 6G11G19
  21295644.7634   -3611581.07348  -2710913.94863
  22569884.349    -6458976.294 6  -4991827.03221
  24280015.5674    7200304.37946   5591650.75261
  21981041.7244    4920142.15746   3813687.53862
 91  4 10 22 56 15.0010000  0  4G 2G 6G11G19
  21294522.7784   -3617473.65648  -2715505.53563
  22564997.560    -6484652.311 6  -5011834.26821
  24288470.653     7244727.155 6   5626265.84621
  21986344.0754    4948025.99646   3835415.17062
 91  4 10 22 56 30.0010000  0  4G 2G 6G11G19
  21293413.1924   -3623303.04848  -2720047.88263
  22560113.513    -6510317.189 6  -5031832.82221
  24296942.4664    7289248.84045   5660958.01561
  21991666.9664    4975978.27546   3857196.12962
 91  4 10 22 56 45.0010000  0  4G 2G 6G11G19
  21292316.6384   -3629066.69748  -2724539.00163
  22555232.271    -6535968.108 6  -5051820.49721
  24305432.716     7333871.845 5   5695729.13121
  21996996.0054    5004001.71546   3879032.54062
 91  4 10 22 57  0.0010000  0  4G 2G 6G11G19
  21291232.6464   -3634763.65448  -2728978.15563
  22550355.153    -6561603.849 6  -5071796.35021
  24313945.5444    7378596.74045   5730579.64061
  22002345.9504    5032097.39646   3900925.23762
 91  4 10 22 57 15.0010000  0  4G 2G 6G11G19
  21290158.4894   -3640406.49348  -2733375.14063
  22545476.341    -6587236.887 6  -5091770.09921
  24322472.747     7423410.811 5   5765499.63421
  22007700.6694    5060252.84646   3922864.51362
 91  4 10 22 57 30.0010000  0  4G 2G 6G11G19
  21289095.7474   -3645990.12248  -2737725.98963
  22540600.622    -6612861.885 6  -5111737.58021
  24331018.646     7468318.791 5   5800492.80821
  22013071.3804    5088473.28946   3944854.43262
 91  4 10 22 57 45.0010000  0  4G 2G 6G11G19
  21288046.9194   -3651507.47748  -2742025.19463
  22535727.036    -6638471.605 6  -5131693.15821
  24339583.880     7513327.390 6   5835564.39421
  22018455.013     5116765.945 6   3966900.61122
 91  4 10 22 58  0.0010000  0  4G 2G 6G11G19
  21287008.0524   -3656962.04048  -2746275.47163
  22530855.841    -6664069.286 6  -5151639.35921
  24348166.138     7558432.832 6   5870711.44221
  22023855.1774    5145127.40846   3989000.41562
 91  4 10 22 58 15.0010000  0  4G 2G 6G11G19
  21285980.1534   -3662362.95748  -2750483.94463
  22525984.435    -6689663.806 6  -5171583.08621
  24356765.9584    7603625.90946   5905926.76561
  22029260.364     5173548.783 6   4011146.90522
 91  4 10 22 58 30.0010000  0  4G 2G 6G11G19
  21284964.4424   -3667704.03548  -2754645.78963
  22521115.614    -6715248.850 6  -5191519.43621
  24365383.7164    7648912.45346   5941214.93361
  22034683.130     5202036.232 6   4033344.87522
 91  4 10 22 58 45.0010000  0  4G 2G 6G11G19
  21283958.4194   -3672985.09848  -2758760.87163
  22516248.661    -6740824.009 6  -5211448.08021
  24374020.067     7694292.415 6   5976575.88821
  22040114.388     5230589.992 6   4055594.51522
 91  4 10 22 59  0.0010000  0  4G 2G 6G11G19
  21282966.4274   -3678198.87848  -2762823.52863
  22511386.372    -6766381.867 6  -5231363.24421
  24382672.9274    7739772.73746   6012015.04461
  22045562.106     5259217.407 6   4077901.54822
 91  4 10 22 59 15.0010000  0  4G 2G 6G11G19
  21281987.2634   -3683348.40348  -2766836.11363
  22506525.677    -6791925.195 6  -5251267.08221
  24391347.7394    7785350.26846   6047529.94061
  22051023.247     5287915.584 6   4100263.71822
 91  4 10 22 59 30.0010000  0  4G 2G 6G11G19
  21281017.106    -3688445.278 8  -2770807.67823
  22501665.700    -6817465.328 6  -5271168.43721
  24400036.0214    7831013.11546   6083111.32561
  22056497.200     5316673.198 6   4122672.20522
 91  4 10 22 59 45.0010000  0  4G 2G 6G11G19
  21280057.9114   -3693487.75748  -2774736.85563
  22496805.849    -6843000.315 6  -5291065.78521
  24408743.1774    7876762.66946   6118760.26661
  22061979.958     5345492.046 6   4145128.40622
 91  4 10 23  0  0.0010000  0  4G 2G 6G11G19
  21279109.6384   -3698469.57348  -2778618.76163
  22491949.122    -6868523.749 6  -5310954.12421
  24417466.7164    7922605.01646   6154481.50861
  22067478.958     5374378.670 6   4167637.41722
 91  4 10 23  0 15.0010000  0  4G 2G 6G11G19
  21278172.3334   -3703395.58848  -2782457.18463
  22487092.856    -6894040.420 6  -5330837.19721
  24426206.2244    7968534.87146   6190270.94561
  22072986.544     5403328.015 6   4190195.30422
 91  4 10 23  0 30.0010000  0  4G 2G 6G11G19
  21277245.0284   -3708263.87548  -2786250.62963
  22482239.661    -6919547.956 6  -5350713.14721
  24434964.1774    8014554.03646   6226129.97361
  22078507.575     5432342.240 6   4212803.74622
 91  4 10 23  0 45.0010000  0  4G 2G 6G11G19
  21276330.0754   -3713070.40548  -2789995.95063
  22477387.896    -6945042.241 6  -5370578.77221
  24443739.372     8060666.227 6   6262061.49821
  22084041.239     5461425.508 6   4235465.98422
 91  4 10 23  1  0.0010000  0  4G 2G 6G11G19
  21275426.9114   -3717816.25048  -2793693.98663
  22472539.4894   -6970524.27946  -5390434.84861
  24452530.8724    8106869.95246   6298064.34261
  22089590.771     5490576.497 6   4258180.99322
 91  4 10 23  1 15.0010000  0  4G 2G 6G11G19
  21274535.7084   -3722499.29848  -2797343.08663
  22467692.6464   -6995991.73646  -5410279.56261
  24461341.3174    8153167.07646   6334139.94161
  22095149.700     5519797.670 6   4280950.68822
 91  4 10 23  1 30.0010000  0  4G 2G 6G11G19
  21273656.4744   -3727121.48648  -2800944.76663
  22462849.3414   -7021446.13146  -5430114.09161
  24470169.1614    8199555.45746   6370286.67761
  22100726.560     5549087.366 6   4303773.78522
 91  4 10 23  1 45.0010000  0  4G 2G 6G11G19
  21272787.716    -3731690.578 8  -2804505.07323
  22458005.6224   -7046895.00346  -5449944.32061
  24479012.2554    8246027.14846   6406498.32261
  22106308.130     5578437.771 6   4326644.18522
 91  4 10 23  2  0.0010000  0  4G 2G 6G11G19
  21271929.6384   -3736194.40348  -2808014.51663
  22453167.3414   -7072326.07046  -5469760.68262
  24487874.3724    8292594.11045   6442784.20661
  22111907.825     5607861.464 6   4349571.68822
 91  4 10 23  2 15.0010000  0  4G 2G 6G11G19
  21271083.4274   -3740644.81848  -2811482.34463
  22448327.7784   -7097750.81446  -5489572.10161
  24496750.896     8339244.161 5   6479134.82421
  22117518.411     5637346.489 6   4372546.98922
 91  4 10 23  2 30.0010000  0  4G 2G 6G11G19
  21270247.1064   -3745036.62548  -2814904.50763
  22443491.8564   -7123164.06446  -5509374.57561
  24505644.716     8385982.032 5   6515553.88821
  22123143.763     5666897.849 6   4395573.97222
 91  4 10 23  2 45.0010000  0  4G 2G 6G11G19
  21269424.5134   -3749365.94548  -2818277.97363
  22438659.731    -7148561.706 6  -5529164.88921
  24514555.7714    8432811.47245   6552044.29761
  22128778.122     5696519.730 6   4418655.90622
 91  4 10 23  3  0.0010000  0  4G 2G 6G11G19
  21268612.5604   -3753633.43948  -2821603.26763
  22433827.8964   -7173943.95146  -5548943.20762
  24523485.1694    8479731.58345   6588605.34561
  22134430.950     5726211.734 6   4441792.48522
 91  4 10 23  3 15.0010000  0  4G 2G 6G11G19
  21267812.317    -3757833.234 8  -2824875.80823
  22429002.2084   -7199304.78646  -5568704.83262
  24532432.052     8526748.127 5   6625241.55821
  22140093.950     5755979.924 6   4464988.42922
 91  4 10 23  3 30.0010000  0  4G 2G 6G11G19
  21267023.731    -3761976.405 8  -2828104.23123
  22424179.0364   -7224655.36746  -5588458.47662
  24541395.8964    8573849.42945   6661943.79861
  22145771.138     5785812.849 6   4488234.82122
 91  4 10 23  3 45.0010000  0  4G 2G 6G11G19
  21266247.114    -3766059.765 8  -2831286.04823
  22419358.380    -7249992.012 6  -5608201.26322
  24550375.3024    8621038.53845   6698714.48161
  22151460.724     5815713.939 6   4511534.32722
 91  4 10 23  4  0.0010000  0  4G 2G 6G11G19
  21265481.575    -3770081.505 8  -2834419.84123
  22414539.7004   -7275312.80046  -5627931.68561
  24559372.278     8668316.995 5   6735554.77821
  22157165.005     5845685.379 6   4534888.65222
 91  4 10 23  4 15.0010000  0  4G 2G 6G11G19
  21264727.794    -3774045.937 8  -2837508.98623
  22409722.3644   -7300621.61246  -5647652.77362
  24568384.153     8715680.230 5   6772461.11221
  22162879.606     5875722.942 6   4558294.49822
 91  4 10 23  4 30.0010000  0  4G 2G 6G11G19
  21263984.583    -3777950.968 8  -2840551.84623
  22404909.1304   -7325916.27746  -5667362.83562
  24577414.3564    8763130.02045   6809434.91861
  22168608.685     5905828.783 6   4581753.55122
 91  4 10 23  4 45.0010000  0  4G 2G 6G11G19
  21263253.224    -3781792.181 8  -2843544.97623
  22400099.4274   -7351192.24146  -5687058.33361
  24586461.0604    8810670.37845   6846479.28961
  22174351.825     5936007.274 6   4605269.21222
 91  4 10 23  5  0.0010000  0  4G 2G 6G11G19
  21262532.614    -3785576.633 8  -2846493.87723
  22395291.7394   -7376456.27246  -5706744.52661
  24595524.599     8858294.071 5   6883588.58921
  22180107.7004    5966251.43246   4628836.04662
 91  4 10 23  5 15.0010000  0  4G 2G 6G11G19
  21261823.856    -3789304.686 8  -2849398.82923
  22390487.0054   -7401708.34346  -5726421.39861
  24604600.8964    8906000.59745   6920762.43761
  22185875.286     5996561.137 6   4652453.95222
 91  4 10 23  5 30.0010000  0  4G 2G 6G11G19
  21261127.005    -3792963.772 8  -2852250.04023
  22385685.575    -7426935.807 6  -5746079.10721
  24613699.5284    8953802.22945   6958010.38761
  22191658.560     6026949.031 6   4676132.78822
 91  4 10 23  5 45.0010000  0  4G 2G 6G11G19
  21260442.5604   -3796566.90848  -2855057.65163
  22380886.8024   -7452151.68446  -5765727.78662
  24622810.052     9001685.373 5   6995321.85321
  22197452.888     6057402.111 6   4699862.41522
 91  4 10 23  6  0.0010000  0  4G 2G 6G11G19
  21259767.458    -3800110.484 8  -2857818.85523
  22376092.0524   -7477351.85347  -5785364.22162
  24631938.3564    9049653.61045   7032699.63361
  22203261.192     6087924.260 6   4723645.86722
 91  4 10 23  6 15.0010000  0  4G 2G 6G11G19
  21259103.349    -3803602.630 8  -2860539.98523
  22371297.3804   -7502544.15847  -5804994.52462
  24641080.5054    9097698.62945   7070137.23961
  22209079.771     6118507.390 6   4747476.83122
 91  4 10 23  6 30.0010000  0  4G 2G 6G11G19
  21258450.083    -3807033.789 8  -2863213.59323
  22366506.9974   -7527718.89447  -5824611.14162
  24650240.4974    9145829.64145   7107641.86661
  22214916.778     6149161.195 6   4771362.86422
 91  4 10 23  6 45.0010000  0  4G 2G 6G11G19
  21257807.849    -3810407.954 8  -2865842.79023
  22361718.9974   -7552879.92747  -5844217.07761
  24659413.575     9194042.395 5   7145210.16421
  22220760.271     6179881.715 6   4795300.88822
 91  4 10 23  7  0.0010000  0  4G 2G 6G11G19
  21257178.271    -3813715.567 8  -2868420.12823
  22356935.7244   -7578017.34347  -5863804.61061
  24668605.427     9242346.029 5   7182849.29621
  22226624.247     6210678.583 6   4819298.40422
 91  4 10 23  7 15.0010000  0  4G 2G 6G11G19
  21256558.286    -3816971.486 8  -2870957.18323
  22352155.0054   -7603145.88747  -5883385.23562
  24677812.974     9290725.343 5   7220547.39821
  22232493.0444    6241537.04446   4843343.91562
 91  4 10 23  7 30.0010000  0  4G 2G 6G11G19
  21255950.950    -3820167.275 8  -2873447.38323
  22347374.8644   -7628256.90947  -5902952.20762
  24687035.0214    9339188.57845   7258310.88361
  22238379.263     6272465.590 6   4867444.03922
 91  4 10 23  7 45.0010000  0  4G 2G 6G11G19
  21255354.185    -3823303.094 8  -2875890.85823
  22342600.8414   -7653350.20747  -5922505.36662
  24696273.3174    9387735.43445   7296139.53861
  22244277.013     6303464.123 6   4891598.69722
 91  4 10 23  8  0.0010000  0  4G 2G 6G11G19
  21254767.544    -3826382.495 8  -2878290.36923
  22337828.7944   -7678429.21747  -5942047.39061
  24705525.7554    9436362.00545   7334030.30661
  22250193.3174    6334529.20046   4915805.21462
 91  4 10 23  8 15.0010000  0  4G 2G 6G11G19
  21254193.294    -3829403.520 8  -2880644.39323
  22333058.1224   -7703491.63447  -5961576.49262
  24714795.239     9485070.035 5   7371984.53521
  22256113.4894    6365663.01946   4940065.29062
 91  4 10 23  8 30.0010000  0  4G 2G 6G11G19
  21253628.950    -3832365.287 8  -2882952.24423
  22328292.724    -7728536.386 7  -5981091.82622
  24724079.2084    9533860.01045   7410002.64561
  22262055.2714    6396866.56946   4964379.70262
 91  4 10 23  8 45.0010000  0  4G 2G 6G11G19
  21253076.497    -3835267.000 8  -2885213.30423
  22323531.138    -7753562.453 7  -6000592.60021
  24733381.4424    9582732.58545   7448085.09461
  22268002.153     6428140.749 6   4988749.15422
 91  4 10 23  9  0.0010000  0  4G 2G 6G11G19
  21252535.692    -3838109.783 8  -2887428.43623
  22318770.0214   -7778570.69047  -6020079.48262
  24742693.466     9631686.267 5   7486230.75821
  22273971.3644    6459484.53046   5013172.83762
 91  4 10 23  9 15.0010000  0  4G 2G 6G11G19
  21252007.685    -3840887.104 8  -2889592.56323
  22314017.5364   -7803554.37347  -6039547.23062
  24752027.786     9680727.175 5   7524444.39921
  22279945.4894    6490904.46846   5037655.86862
 91  4 10 23  9 30.0010000  0  4G 2G 6G11G19
  21251490.544    -3843610.834 8  -2891714.92723
  22309265.9354   -7828525.19447  -6059004.95462
  24761373.3414    9729843.32745   7562716.64761
  22285940.700     6522388.631 6   5062188.93922
 91  4 10 23  9 45.0010000  0  4G 2G 6G11G19
  21250981.427    -3846277.775 8  -2893793.04223
  22304516.0834   -7853479.59647  -6078449.88462
  24770736.1534    9779037.64845   7601049.82161
  22291941.5994    6553940.49246   5086774.76462
 91  4 10 23 10  0.0010000  0  4G 2G 6G11G19
  21250484.731    -3848883.595 8  -2895823.53223
  22299772.0834   -7878413.14847  -6097878.56562
  24780113.216     9828314.054 5   7639446.96021
  22297960.106     6585564.367 6   5111416.70122
 91  4 10 23 10 15.0010000  0  4G 2G 6G11G19
  21250000.677    -3851433.072 8  -2897810.11523
  22295031.0284   -7903330.29847  -6117294.46862
  24789503.6774    9877667.47045   7677904.09261
  22303990.091     6617255.609 6   5136111.12622
 91  4 10 23 10 30.0010000  0  4G 2G 6G11G19
  21249526.294    -3853924.791 8  -2899751.69423
  22290291.1534   -7928229.37247  -6136696.27562
  24798910.1384    9927099.30445   7716422.35161
  22310035.942     6649015.777 6   5160859.26722
 91  4 10 23 10 45.0010000  0  4G 2G 6G11G19
  21249063.356    -3856354.735 8  -2901645.13923
  22285558.7864   -7953106.10347  -6156080.67962
  24808333.5754    9976613.29945   7755004.61661
  22316091.942     6680849.074 6   5185664.38922
 91  4 10 23 11  0.0010000  0  4G 2G 6G11G19
  21248612.544    -3858724.560 8  -2903491.73923
  22280828.3334   -7977961.82147  -6175448.70662
  24817771.6854   10026207.45845   7793649.34661
  22322163.942     6712753.956 6   5210525.29722
 91  4 10 23 11 15.0010000  0  3G 2G 6G19
  21248172.481    -3861036.921 8  -2905293.56123
  22276102.0604   -8002799.02847  -6194802.31662
  22328247.060     6744727.798 6   5235439.93522
 91  4 10 23 11 30.0010000  0  3G 2G 6G19
  21247743.888    -3863292.618 8  -2907051.23124
  22271378.7944   -8027618.19247  -6214141.86662
  22334345.7554    6776769.83346   5260407.71562
 91  4 10 23 11 45.0010000  0  3G 2G 6G19
  21247325.169    -3865488.719 8  -2908762.46124
  22266659.528    -8052416.295 7  -6233465.00722
  22340455.935     6808883.029 6   5285430.94222
 91  4 10 23 12  0.0010000  0  3G 2G 6G19
  21246918.880    -3867628.191 8  -2910429.56923
  22261944.286    -8077196.136 7  -6252773.92222
  22346579.872     6841064.511 6   5310507.37922
 91  4 10 23 12 15.0010000  0  3G 2G 6G19
  21246523.138    -3869704.336 8  -2912047.32923
  22257234.083    -8101950.703 7  -6272063.14722
  22352717.325     6873321.050 6   5335642.30022
 91  4 10 23 12 30.0010000  0  3G 2G 6G19
  21246138.0674   -3871730.24548  -2913625.95163
  22252526.0214   -8126692.76847  -6291342.62062
  22358869.919     6905639.784 6   5360825.68822
 91  4 10 23 12 45.0010000  0  3G 2G 6G19
  21245763.958    -3873695.292 8  -2915157.14123
  22247820.755    -8151411.467 7  -6310603.89222
  22365032.341     6938031.218 6   5386065.72222
 91  4 10 23 13  0.0010000  0  3G 2G 6G19
  21245400.880    -3875602.942 8  -2916643.61024
  22243121.2864   -8176110.07947  -6329849.50962
  22371210.411     6970492.109 6   5411359.88222
 91  4 10 23 13 15.0010000  0  3G 2G 6G19
  21245050.021    -3877448.182 8  -2918081.44323
  22238426.505    -8200783.298 7  -6349075.34022
  22377399.661     7003027.569 6   5436712.13922
 91  4 10 23 13 30.0010000  0  3G 2G 6G19
  21244709.489    -3879234.239 8  -2919473.15823
  22233735.481    -8225434.062 7  -6368283.67122
  22383606.1534    7035634.34646   5462119.97162
 91  4 10 23 13 45.0010000  0  3G 2G 6G19
  21244381.177    -3880959.829 8  -2920817.75923
  22229048.638    -8250060.947 7  -6387473.39722
  22389823.388     7068313.879 6   5487584.49522
 91  4 10 23 14  0.0010000  0  3G 2G 6G19
  21244064.544    -3882628.976 8  -2922118.38023
  22224365.911    -8274667.792 7  -6406647.51122
  22396058.4034    7101062.13146   5513102.56962
 91  4 10 23 14 15.0010000  0  3G 2G 6G19
  21243756.669    -3884244.288 8  -2923377.05223
  22219686.864    -8299256.942 7  -6425807.83322
  22402300.599     7133876.629 6   5538672.25522
 91  4 10 23 14 30.0010000  0  3G 2G 6G19
  21243459.981    -3885802.501 8  -2924591.23323
  22215011.497    -8323824.684 7  -6444951.47422
  22408558.286     7166760.858 6   5564296.27922
 91  4 10 23 14 45.0010000  0  3G 2G 6G19
  21243174.427    -3887303.882 8  -2925761.12423
  22210340.646    -8348371.181 7  -6464078.56322
  22414828.411     7199714.658 6   5589974.51622
 91  4 10 23 15  0.0010000  0  3G 2G 6G19
  21242899.802    -3888751.349 8  -2926889.00923
  22205672.997    -8372899.088 7  -6483191.16522
  22421113.864     7232735.038 6   5615704.63022
 91  4 10 23 15 15.0010000  0  4G 2G 6G15G19
  21242633.942    -3890143.286 8  -2927973.62123
  22201009.716    -8397406.523 7  -6502287.82122
  24589022.1854         -0.42655
  22427409.474     7265823.761 6   5641488.00122
 91  4 10 23 15 30.0010000  0  4G 2G 6G15G19
  21242380.466    -3891477.158 8  -2929012.98823
  22196349.872    -8421890.688 7  -6521366.34922
  24584746.7864     -22480.09845
  22433722.521     7298983.357 6   5667326.59522
 91  4 10 23 15 45.0010000  0  4G 2G 6G15G19
  21242136.771    -3892756.270 8  -2930009.68723
  22191695.263    -8446354.609 7  -6540429.10022
  24580483.0754     -44886.47345
  22440041.888     7332210.751 6   5693218.01522
 91  4 10 23 16  0.0010000  0  4G 2G 6G15G19
  21241904.692    -3893979.212 8  -2930962.61223
  22187043.7004   -8470796.66547  -6559474.81962
  24576232.1694     -67217.28045
  22446380.825     7365507.356 6   5719163.37222
 91  4 10 23 16 15.0010000  0  4G 2G 6G15G19
  21241681.849    -3895146.113 8  -2931871.86823
  22182396.552    -8495216.649 7  -6578503.33222
  24571999.349      -89472.328 5
  22452726.911     7398873.183 6   5745162.66722
 91  4 10 23 16 30.0010000  0  4G 2G 6G15G19
  21241471.013    -3896257.018 8  -2932737.48923
  22177754.474    -8519614.376 7  -6597514.50522
  24567777.200     -111651.177 5        -0.44531
  22459090.208     7432308.210 6   5771215.88322
 91  4 10 23 16 45.0010000  0  4G 2G 6G15G19
  21241269.364    -3897311.323 8  -2933559.00823
  22173115.8414   -8543989.14247  -6616507.79062
  24563572.872     -133753.261 5    -17222.73721
  22465466.356     7465812.987 6   5797323.45222
 91  4 10 23 17  0.0010000  0  4G 2G 6G15G19
  21241079.606    -3898309.303 8  -2934336.63223
  22168481.763    -8568340.836 7  -6635483.09022
  24559379.474     -155777.923 5    -34384.70021
  22471854.0524    7499387.18046   5823485.10562
 91  4 10 23 17 15.0010000  0  4G 2G 6G15G19
  21240900.185    -3899250.525 8  -2935070.03323
  22163851.567    -8592668.632 7  -6654439.77322
  24555204.380     -177724.101 5    -51485.52321
  22478257.903     7533031.723 6   5849701.58022
 91  4 10 23 17 30.0010000  0  4G 2G 6G15G19
  21240732.638    -3900139.001 8  -2935762.33023
  22159226.146    -8616976.366 7  -6673380.81622
  24551041.0364    -199595.63345    -68528.14561
  22484673.9744    7566742.65746   5875969.78562
 91  4 10 23 17 45.0010000  0  4G 2G 6G15G19
  21240572.278    -3900968.131 8  -2936408.38723
  22154606.3964   -8641257.21447  -6692300.92462
  24546896.6384    -221385.62845    -85507.25661
  22491102.0364    7600526.50546   5902294.80462
 91  4 10 23 18  0.0010000  0  4G 2G 6G15G19
  21240425.060    -3901744.990 8  -2937013.71124
  22149989.458    -8665518.014 7  -6711205.40522
  24542761.872     -243100.464 5   -102427.80721
  22497542.8174    7634376.31046   5928671.21962
 91  4 10 23 18 15.0010000  0  4G 2G 6G15G19
  21240288.692    -3902461.644 8  -2937572.12123
  22145378.2314   -8689750.60347  -6730087.90062
  24538644.896     -264732.216 5   -119283.60621
  22503998.083     7668300.117 6   5955105.29722
 91  4 10 23 18 30.0010000  0  4G 2G 6G15G19
  21240163.513    -3903121.987 8  -2938086.65623
  22140770.6774   -8713958.57247  -6748951.21762
  24534545.3644    -286284.33145   -136077.34661
  22510467.388     7702293.988 6   5981593.97122
 91  4 10 23 18 45.0010000  0  4G 2G 6G15G19
  21240049.708    -3903725.236 8  -2938556.69523
  22136169.4114   -8738140.90547  -6767794.55662
  24530458.9274    -307755.46645   -152807.99361
  22516949.8334    7736358.76146   6008137.88662
 91  4 10 23 19  0.0010000  0  4G 2G 6G15G19
  21239943.935    -3904274.443 8  -2938984.62823
  22131572.4194   -8762300.43847  -6786620.13062
  24526388.896     -329148.148 5   -169477.51521
  22523447.2634    7770491.48046   6034734.75362
 91  4 10 23 19 15.0010000  0  4G 2G 6G15G19
  21239851.310    -3904767.675 8  -2939368.94423
  22126979.0754   -8786435.13147  -6805426.34762
  24522330.9814    -350460.15845   -186084.16761
  22529953.6144    7804693.83346   6061385.87462
 91  4 10 23 19 30.0010000  0  4G 2G 6G15G19
  21239765.3804   -3905205.20848  -2939709.84964
  22122391.7394   -8810544.75347  -6824213.03162
  24518292.294     -371691.136 5   -202627.66821
  22536478.0524    7838965.96046   6088091.36562
 91  4 10 23 19 45.0010000  0  4G 2G 6G15G19
  21239693.0134   -3905587.08148  -2940007.38763
  22117807.8804   -8834629.25747  -6842980.13862
  24514267.044     -392840.803 5   -219107.85021
  22543011.599     7873307.981 6   6114851.32422
 91  4 10 23 20  0.0010000  0  4G 2G 6G15G19
  21239633.958    -3905913.799 8  -2940261.94823
  22113230.2244   -8858688.66447  -6861727.69462
  24510257.7634    -413909.29045   -235524.72261
  22549558.2714    7907719.38046   6141665.33762
 91  4 10 23 20 15.0010000  0  4G 2G 6G15G19
  21239579.739    -3906186.090 8  -2940474.09723
  22108656.4974   -8882723.51347  -6880456.10562
  24506264.7944    -434896.81245   -251878.57361
  22556119.5754    7942199.45846   6168532.87162
 91  4 10 23 20 30.0010000  0  4G 2G 6G15G19
  21239540.1854   -3906403.37048  -2940643.37963
  22104087.4274   -8906732.84047  -6899164.63962
  24502287.005     -455802.319 5   -268168.46021
  22562697.5134    7976749.26346   6195454.73862
 91  4 10 23 20 45.0010000  0  4G 2G 6G15G19
  21239507.435    -3906565.280 8
  22099524.372    -8930716.032 7  -6917852.79022
  24498322.880     -476625.045 5   -284393.87621
  22569282.9274    8011369.07046   6222431.15162
 91  4 10 23 21  0.0010000  0  4G 2G 6G15G19
  21239488.067    -3906672.999 8
  22094964.0284   -8954674.28247  -6936521.51462
  24494374.9424    -497365.72145   -300555.33961
  22575887.9424    8046057.52146   6249461.05062
 91  4 10 23 21 15.0010000  0  4G 2G 6G15G19
  21239477.067    -3906720.151 8
  22090410.716    -8978600.577 7  -6955165.33622
  24490446.146     -518017.518 5   -316647.54321
  22582498.8104    8080821.18846   6276549.56262
 91  4 10 23 21 30.0010000  0  4G 2G 6G15G19
  21239479.771    -3906710.420 8
  22085864.247    -9002498.465 7  -6973787.02422
  24486531.8644    -538583.79945   -332673.12361
  22589131.3494    8115656.38446   6303693.80762
 91  4 10 23 21 45.0010000  0  4G 2G 6G15G19
  21239494.138    -3906649.530 8
  22081319.8254   -9026373.47947  -6992390.89062
  24482636.294     -559069.734 5   -348636.09721
  22595768.9424    8150557.44046   6330889.37062
 91  4 10 23 22  0.0010000  0  4G 2G 6G15G19
  21239513.419    -3906537.946 8
  22076781.427    -9050225.935 7  -7010977.17822
  24478752.4114    -579475.54645   -364536.64061
  22602425.7084    8185523.92246   6358135.91862
 91  4 10 23 22 15.0010000  0  4G 2G 6G15G19
  21239543.4194   -3906372.09448
  22072247.653    -9074051.776 7  -7029542.72122
  24474883.8964    -599797.19345   -380371.58161
  22609090.2314    8220559.46546   6385436.27462
 91  4 10 23 22 30.0010000  0  4G 2G 6G15G19
  21239586.161    -3906150.855 8
  22067718.919    -9097849.776 7  -7048086.57622
  24471033.661     -620033.544 5   -396140.07021
  22615771.9894    8255665.20846   6412791.33162
 91  4 10 23 22 45.0010000  0  4G 2G 6G15G19
  21239643.544    -3905865.427 8  -2940223.99423
  22063196.4894   -9121610.79847  -7066601.61762
  24467203.3884    -640174.95745   -411834.58161
  22622466.0994    8290850.11846   6440208.08262
 91  4 10 23 23  0.0010000  0  5G 2G 6G15G13G19
  21239706.552    -3905529.804 8  -2939962.44823
  22058680.622    -9145348.549 7  -7085098.51722
  24463381.388     -660235.092 5   -427465.74721
  24406324.0134         -0.31154
  22629178.669     8326100.099 6   6467675.52522
 91  4 10 23 23 15.0010000  0  5G 2G 6G15G13G19
  21239780.466    -3905139.954 8  -2939658.64523
  22054168.3644   -9169058.66947  -7103573.89462
  24459583.497     -680209.270 5   -443029.94221
  24395816.9114     -55224.68345
  22635895.1064    8361419.56346   6495197.12462
 91  4 10 23 23 30.0010000  0  5G 2G 6G15G13G19
  21239865.153    -3904696.567 8  -2939313.13324
  22049661.7474   -9192741.66447  -7122028.13062
  24455796.7634    -700097.97045   -458527.53561
  24385312.4814    -110422.14945
  22642630.1224    8396807.58646   6522772.14062
 91  4 10 23 23 45.0010000  0  5G 2G 6G15G13G19
  21239959.310    -3904197.602 8  -2938924.31123
  22045160.1224   -9216395.20847  -7140459.42562
  24452029.716     -719898.863 5   -473956.69421
  24374813.888     -165590.097 5
  22649376.7084    8432266.47946   6550402.37662
 91  4 10 23 24  0.0010000  0  5G 2G 6G15G13G19
  21240062.638    -3903644.453 8  -2938493.26924
  22040665.060    -9240020.435 7  -7158868.64822
  24448276.614     -739613.083 5   -489318.33421
  24364321.3174    -220729.72044
  22656139.6924    8467794.71946   6578086.65262
 91  4 10 23 24 15.0010000  0  5G 2G 6G15G13G19
  21240179.091    -3903041.635 8  -2938023.52424
  22036172.419    -9263621.621 7  -7177259.13722
  24444543.6694    -759244.36845   -504615.34061
  24353834.044     -275844.837 4        -0.23031
  22662911.3964    8503387.91346   6605821.53662
 91  4 10 23 24 30.0010000  0  5G 2G 6G15G13G19
  21240305.231    -3902383.399 8  -2937510.59424
  22031687.763    -9287192.726 7  -7195626.18422
  24440821.6924    -778786.44445   -519842.84061
  24343349.7634    -330929.19144    -42922.71361
  22669697.9744    8539051.89646   6633611.58262
 91  4 10 23 24 45.0010000  0  5G 2G 6G15G13G19
  21240439.919    -3901672.692 8  -2936956.78324
  22027207.317    -9310736.281 7  -7213971.76422
  24437121.036     -798242.010 5   -535002.93521
  24332874.0834    -385985.32644    -85823.24361
  22676498.4194    8574783.86046   6661454.60262
 91  4 10 23 25  0.0010000  0  5G 2G 6G15G13G19
  21240585.325    -3900906.609 8  -2936359.82024
  22022732.388    -9334249.147 7  -7232293.43122
  24433436.536     -817607.686 5   -550092.96321
  24322403.0604    -441009.93244   -128699.18061
  22683313.185     8610586.902 6   6689353.00522
 91  4 10 23 25 15.0010000  0  5G 2G 6G15G13G19
  21240742.146    -3900087.047 8  -2935721.18523
  22018264.560    -9357733.024 7  -7250592.50822
  24429767.0214    -836885.05345   -565114.19561
  24311936.0604    -496004.30444   -171551.58161
  22690137.7244    8646459.17546   6717305.35962
 91  4 10 23 25 30.0010000  0  5G 2G 6G15G13G19
  21240908.364    -3899208.946 8  -2935036.94024
  22013802.419    -9381182.453 7  -7268864.74422
  24426115.638     -856068.428 5   -580062.19521
  24301479.380     -550962.824 4   -214376.03021
  22696979.3884    8682405.77446   6745315.63062
 91  4 10 23 25 45.0010000  0  5G 2G 6G15G13G19
  21241084.349    -3898276.757 8  -2934310.54824
  22009345.075    -9404601.702 7  -7287113.46622
  24422483.435     -875162.154 5   -594940.30421
  24291024.708     -605889.829 4
  22703831.661     8718421.847 6   6773380.02622
 91  4 10 23 26  0.0010000  0  5G 2G 6G15G13G19
  21241272.6694   -3897291.24748  -2933542.60963
  22004894.442    -9427991.355 7  -7305339.12622
  24418866.981     -894166.792 5   -609749.02821
  24280577.6384    -660785.64044
  22710701.2314    8754506.86846   6801498.15962
 91  4 10 23 26 15.0010000  0  5G 2G 6G15G13G19
  21241471.591    -3896252.519 8  -2932733.20323
  22000448.9354   -9451351.23047  -7323541.58362
  24415268.7314    -913081.72145   -624487.84361
  24270138.044     -715649.967 4
  22717578.208     8790660.985 6   6829670.13022
 91  4 10 23 26 30.0010000  0  5G 2G 6G15G13G19
  21241677.9894   -3895161.44848  -2931883.01163
  21996009.247    -9474681.829 7  -7341721.22722
  24411685.185     -931907.313 5   -639157.04121
  24259702.685     -770483.158 5        -0.36331
  22724473.7004    8826883.24446   6857895.18862
 91  4 10 23 26 45.0010000  0  5G 2G 6G15G13G19
  21241895.599    -3894015.486 8  -2930990.04123
  21991575.700    -9497980.345 7  -7359875.86622
  24408120.0914    -950640.70945   -653754.39261
  24249275.606     -825282.008 5    -42700.40121
  22731376.271     8863176.291 6   6886175.41622
 91  4 10 23 27  0.0010000  0  5G 2G 6G15G13G19
  21242125.0754   -3892817.59748  -2930056.61163
  21987148.021    -9521249.469 7  -7378007.60522
  24404572.6774    -969284.29745   -668281.78361
  24238853.2944    -880049.11445    -85375.72761
  22738297.435     8899537.224 6   6914508.53021
 91  4 10 23 27 15.0010000  0  5G 2G 6G15G13G19
  21242361.8414   -3891567.81948  -2929082.74963
  21982725.6304   -9544488.76247  -7396116.10062
  24401041.458     -987837.923 5   -682739.06121
  24228437.5524    -934783.92845   -128025.82861
  22745229.161     8935966.168 6   6942894.64622
 91  4 10 23 27 30.0010000  0  5G 2G 6G15G13G19
  21242609.0444   -3890268.89848  -2928070.59563
  21978308.146    -9567701.003 7  -7414203.52122
  24397529.9354   -1006304.19445   -697128.27461
  24218026.567     -989489.066 5   -170652.84221
  22752175.716     8972460.231 6   6971331.51022
 91  4 10 23 27 45.0010000  0  5G 2G 6G15G13G19
  21242867.255    -3888915.131 8  -2927015.70123
  21973897.6614   -9590879.99047  -7432265.02662
  24394032.411    -1024676.804 5   -711444.50421
  24207623.4974   -1044158.08645   -213251.70461
  22759130.950     9009025.235 6   6999823.64222
 91  4 10 23 28  0.0010000  0  5G 2G 6G15G13G19
  21243134.0134   -3887511.07348  -2925921.62363
  21969492.4974   -9614030.10547  -7450304.03462
  24390552.0524   -1042959.65345   -725690.78561
  24197226.3414   -1098794.97845   -255825.56361
  22766105.005     9045656.832 6   7028367.66521
 91  4 10 23 28 15.0010000  0  5G 2G 6G15G13G19
  21243411.4114   -3886055.20648  -2924787.17264
  21965092.786    -9637149.514 7  -7468319.11622
  24387088.7554   -1061151.24645   -739865.96161
  24186835.8414   -1153398.08145   -298373.06361
  22773086.3174    9082356.34446   7056964.61462
 91  4 10 23 28 30.0010000  0  5G 2G 6G15G13G19
  21243697.8024   -3884547.81948  -2923612.57463
  21960699.466    -9660238.291 7  -7486310.33122
  24383646.872    -1079251.360 5   -753969.85021
  24176450.060    -1207967.019 5   -340893.93021
  22780083.833     9119123.779 6   7085614.48622
 91  4 10 23 28 45.0010000  0  5G 2G 6G15G13G19
  21243994.3174   -3882991.88248  -2922400.14664
  21956311.0994   -9683299.19247  -7504279.82162
  24380219.4744   -1097262.68745   -768004.56361
  24166072.2554   -1262504.63545   -383390.42661
  22787092.106     9155955.918 6   7114314.76622
 91  4 10 23 29  0.0010000  0  5G 2G 6G15G13G19
  21244300.7164   -3881384.51348  -2921147.64264
  21951928.435    -9706329.012 7  -7522225.09422
  24376807.2634   -1115181.50345   -781967.19261
  24155701.0134   -1317007.66945   -425859.94161
  22794114.8804    9192855.71246   7143067.78361
 91  4 10 23 29 15.0010000  0  5G 2G 6G15G13G19
  21244616.3564   -3879723.92848  -2919853.67364
  21947552.028    -9729325.522 7  -7540144.41022
  24373415.7314   -1133005.79345   -795856.16261
  24145336.481    -1371473.690 5   -468300.62321
  22801148.833     9229825.219 6   7171875.11822
 91  4 10 23 29 30.0010000  0  5G 2G 6G15G13G19
  21244942.3724   -3878011.30948  -2918519.15964
  21943182.6854   -9752289.70947  -7558038.53762
  24370042.427    -1150736.381 5   -809672.12721
  24134977.614    -1425903.564 5   -510713.16421
  22808197.333     9266863.166 6   7200735.77222
 91  4 10 23 29 45.0010000  0  5G 2G 6G15G13G19
  21245277.6614   -3876246.36848  -2917143.87264
  21938818.169    -9775221.117 7  -7575907.12122
  24366685.075    -1168372.714 5   -823414.64121
  24124626.544    -1480296.286 5   -553096.73321
  22815258.692     9303969.805 6   7229649.95422
 91  4 10 23 30  0.0010000  0  5G 2G 6G15G13G19
  21245624.3104   -3874428.62648  -2915727.44664
  21934461.646    -9798118.893 7  -7593749.50522
  24363349.255    -1185913.818 5   -837082.94021
  24114283.989    -1534650.997 5   -595450.73921
  22822333.903     9341145.794 6   7258618.18022
 91  4 10 23 30 15.0010000  0  5G 2G 6G15G13G19
  21245979.3964   -3872559.73848  -2914271.16464
  21930111.1304   -9820984.36247  -7611566.71162
  24360025.903    -1203360.793 5   -850677.91321
  24103947.372    -1588968.933 5   -637776.05821
  22829419.888     9378389.462 6   7287639.14522
 91  4 10 23 30 30.0010000  0  5G 2G 6G15G13G19
  21246345.1224   -3870638.19148  -2912773.85164
  21925764.802    -9843815.604 7  -7629357.24222
  24356727.1384   -1220711.95345   -864198.19861
  24093618.302    -1643248.054 5   -680071.11021
  22836521.505     9415702.498 6   7316714.16022
 91  4 10 23 30 45.0010000  0  5G 2G 6G15G13G19
  21246720.7394   -3868665.96048  -2911237.03964
  21921426.9894   -9866614.50647  -7647122.57963
  24353439.927    -1237968.900 5   -877645.09221
  24083295.4114   -1697489.85845   -722337.11861
  22843634.958     9453082.718 6   7345841.52022
 91  4 10 23 31  0.0010000  0  5G 2G 6G15G13G19
  21247106.6224   -3866635.99048  -2909655.24264
  21917096.099    -9889373.821 7  -7664857.06622
  24350178.1614   -1255124.44545   -891012.96061
  24072981.9894   -1751687.14045   -764568.41361
  22850762.153     9490537.303 6   7375026.83022
 91  4 10 23 31 15.0010000  0  5G 2G 6G15G13G19
  21247503.8104   -3864549.94748  -2908029.74464
  21912771.997    -9912094.796 7  -7682561.68023
  24346934.052    -1272179.539 5   -904302.55621
  24062678.1854   -1805840.96245   -806765.84761
  22857902.755     9528064.781 6   7404268.94422
 91  4 10 23 31 30.0010000  0  5G 2G 6G15G13G19
  21247910.3724   -3862410.43048  -2906362.58264
  21908455.3804   -9934779.62447  -7700238.12962
  24343705.411    -1289136.267 5   -917515.50021
  24052378.3174   -1859953.29545   -848930.99761
  22865060.044     9565662.683 6   7433565.93121
 91  4 10 23 31 45.0010000  0  5G 2G 6G15G13G19
  21248328.8884   -3860213.54848  -2904650.71964
  21904145.9114   -9957424.21847  -7717883.23162
  24340497.255    -1305990.482 5   -930648.56521
  24042089.833    -1914019.876 5   -891060.45221
  22872226.747     9603334.792 6   7462920.73921
 91  4 10 23 32  0.0010000  0  5G 2G 6G15G13G19
  21248756.4664   -3857963.60448  -2902897.50964
  21899843.5914   -9980032.54547  -7735500.07062
  24337307.8964   -1322746.22345   -943704.88661
  24031808.6924   -1968044.47645   -933157.18361
  22879411.794     9641076.690 6   7492329.92922
 91  4 10 23 32 15.0010000  0  5G 2G 6G15G13G19
  21249195.2714   -3855658.74348  -2901101.50664
  21895548.6924  -10002602.66247  -7753087.14062
  24334140.8724   -1339401.01245   -956682.53961
  24021538.4974   -2022024.75045   -975219.41961
  22886604.731     9678890.351 6   7521795.03721
 91  4 10 23 32 30.0010000  0  5G 2G 6G15G13G19
  21249643.5834   -3853302.92348  -2899265.79464
  21891259.6774  -10025138.01947  -7770647.11862
  24330989.927    -1355958.440 5   -969584.32821
  24011272.0364   -2075964.56345  -1017250.12161
  22893814.411     9716771.909 6   7551313.05721
 91  4 10 23 32 45.0010000  0  5G 2G 6G15G13G19
  21250102.6614   -3850892.26648  -2897387.35264
  21886979.4034  -10047634.45447  -7788176.76962
  24327858.224    -1372414.376 5   -982407.03821
  24001016.122    -2129859.312 5  -1059245.69921
  22901034.731     9754725.302 6   7580887.04921
 91  4 10 23 33  0.0010000  0  5G 2G 6G15G13G19
  21250571.8964   -3848429.12348  -2895468.00964
  21882705.5444  -10070094.14647  -7805677.78962
  24324746.146    -1388770.713 5   -995152.13421
  23990768.880    -2183711.018 5  -1101207.77321
  22908274.685     9792748.133 6   7610515.14921
 91  4 10 23 33 15.0010000  0  5G 2G 6G15G13G19
  21251051.0674   -3845913.02348  -2893507.40764
  21878438.9894  -10092516.25747  -7823149.52663
  24321651.466    -1405026.505 5  -1007818.88821
  23980528.153    -2237518.655 5  -1143135.47021
  22915519.755     9830841.017 6   7640197.84121
 91  4 10 23 33 30.0010000  0  5G 2G 6G15G13G19
  21251539.7634   -3843339.63248  -2891502.15964
  21874179.9744  -10114896.21247  -7840588.41362
  24318579.153    -1421177.296 5  -1020403.81521
  23970297.6224   -2291277.45845  -1185025.12461
  22922787.278     9869008.168 6   7669938.39821
 91  4 10 23 33 45.0010000  0  5G 2G 6G15G13G19
  21252039.6144   -3840712.33948  -2889454.91364
  21869928.6064  -10137237.04247  -7857996.81562
  24315525.8884   -1437226.06645  -1032909.24861
  23960079.099    -2344990.443 5  -1226879.09721
  22930058.841     9907246.277 6   7699734.24821
 91  4 10 23 34  0.0010000  0  5G 2G 6G15G13G19
  21252551.1224   -3838028.11648  -2887363.29764
  21865685.7164  -10159535.59147  -7875372.26462
  24312490.021    -1453169.362 5  -1045332.49621
  23949866.708    -2398654.088 5  -1268694.62421
  22937353.208     9945558.439 6   7729587.80421
 91  4 10 23 34 15.0010000  0  5G 2G 6G15G13G19
  21253071.646    -3835290.344 8  -2885229.95824
  21861449.5364  -10181794.65047  -7892716.94563
  24309476.310    -1469010.102 5  -1057675.84021
  23939662.692    -2452271.337 5  -1310474.00821
  22944654.192     9983941.553 6   7759496.65521
 91  4 10 23 34 30.0010000  0  5G 2G 6G15G13G19
  21253602.599    -3832495.494 8  -2883052.13924
  21857222.622   -10204010.621 7  -7910028.04822
  24306480.2394   -1484744.37945  -1069936.23261
  23929468.005    -2505838.412 5  -1352214.27221
  22951974.130    10022398.867 6   7789463.31321
 91  4 10 23 34 45.0010000  0  5G 2G 6G15G13G19
  21254145.036    -3829651.071 8  -2880835.69624
  21853001.7634  -10226190.68747  -7927311.17762
  24303504.646    -1500379.526 5  -1082119.36121
  23919282.1064   -2559362.03045  -1393920.68661
  22959302.153    10060923.033 6   7819482.06721
 91  4 10 23 35  0.0010000  0  5G 2G 6G15G13G19
  21254695.1144   -3826756.36148  -2878580.06864
  21848787.5134  -10248333.72547  -7944565.45562
  24300550.5914   -1515914.33145  -1094224.31361
  23909105.856    -2612840.937 5  -1435592.28121
  22966645.731    10099514.847 6   7849553.53121
 91  4 10 23 35 15.0010000  0  5G 2G 6G15G13G19
  21255256.0054   -3823810.76148  -2876284.78864
  21844581.3724  -10270438.90947  -7961790.23663
  24297611.981    -1531347.787 5  -1106250.27721
  23898939.388    -2666274.296 5  -1477228.36021
  22974003.216    10138174.864 6   7879678.14621
 91  4 10 23 35 30.0010000  0  5G 2G 6G15G13G19
  21255826.606    -3820810.516 8  -2873946.92224
  21840382.3414  -10292502.38647  -7978982.52063
  24294696.630    -1546675.992 5  -1118194.25921
  23888779.8804   -2719658.30145  -1518825.96561
  22981376.091    10176906.747 6   7909858.76121
 91  4 10 23 35 45.0010000  0  5G 2G 6G15G13G19
  21256407.349    -3817761.157 8  -2871570.78824
  21836189.8494  -10314529.41247  -7996146.39863
  24291798.6854   -1561904.01845  -1130060.16761
  23878628.6384   -2772997.79045  -1560388.94661
  22988757.239    10215704.951 6   7940091.04321
 91  4 10 23 36  0.0010000  0  5G 2G 6G15G13G19
  21256997.427    -3814656.264 8  -2869151.37324
  21832007.9194  -10336513.10047  -8013276.51063
  24288920.224    -1577025.092 5  -1141842.72521
  23868489.1854   -2826285.78945  -1601911.75961
  22996154.653    10254575.903 6   7970380.01821
 91  4 10 23 36 15.0010000  0  5G 2G 6G15G13G19
  21257598.185    -3811500.797 8  -2866692.55524
  21827831.4814  -10358458.12847  -8030376.49463
  24286061.4974   -1592043.71645  -1153545.46061
  23858355.9814   -2879526.78645  -1643397.94561
  23003563.646    10293514.781 6   8000721.92621
 91  4 10 23 36 30.0010000  0  5G 2G 6G15G13G19
  21258208.856    -3808293.834 8  -2864193.61124
  21823662.8334  -10380363.17847  -8047445.32763
  24283223.474    -1606958.597 5  -1165167.36121
  23848233.8334   -2932719.21545  -1684846.31461
  23010987.505    10332522.550 6   8031117.51221
 91  4 10 23 36 45.0010000  0  5G 2G 6G15G13G19
  21258828.700    -3805032.212 8  -2861652.07624
  21819502.9814  -10402224.87847  -8064480.38163
  24280406.9034   -1621766.22345  -1176705.68661
  23838120.411    -2985859.715 5  -1726254.18821
  23018424.458    10371602.453 6   8061569.30521
 91  4 10 23 37  0.0010000  0  5G 2G 6G15G13G19
  21259460.060    -3801716.773 8  -2859068.60324
  21815351.0524  -10424043.66647  -8081481.99363
  24277608.9584   -1636467.02445  -1188160.77261
  23828018.294    -3038948.731 5  -1767621.95021
  23025872.919    10410753.556 6   8092076.57721
 91  4 10 23 37 15.0010000  0  5G 2G 6G15G13G19
  21260100.356    -3798350.383 8  -2856445.42824
  21811206.7714  -10445822.19447  -8098452.23963
  24274831.036    -1651063.409 5  -1199534.49821
  23817924.731    -3091988.456 5  -1808951.28921
  23033337.442    10449973.000 6   8122637.10521
 91  4 10 23 37 30.0010000  0  5G 2G 6G15G13G19
  21260751.021    -3794935.555 8  -2853784.50824
  21807069.0674  -10467562.69547  -8115392.85163
  24272072.685    -1665557.655 5  -1210828.64121
  23807842.200    -3144981.113 5  -1850244.00421
  23040814.521    10489258.354 6   8153248.99021
 91  4 10 23 37 45.0010000  0  5G 2G 6G15G13G19
  21261409.888    -3791469.404 8  -2851083.59824
  21802940.3174  -10489262.06747  -8132301.41863
  24269334.794    -1679946.599 5  -1222040.72421
  23797766.817    -3197923.392 5  -1891497.41521
  23048301.067    10528612.499 6   8183914.48121
 91  4 10 23 38  0.0010000  0  5G 2G 6G15G13G19
  21262079.263    -3787953.523 8  -2848343.93724
  21798817.8724  -10510921.49247  -8149178.86163
  24266616.419    -1694231.523 5  -1233171.75321
  23787700.5214   -3250816.48145  -1932712.52861
  23055802.700    10568033.958 6   8214632.41921
 91  4 10 23 38 15.0010000  0  5G 2G 6G15G13G19
  21262758.567    -3784388.570 8  -2845566.03724
  21794704.1064  -10532541.25447  -8166025.39463
  24263917.372    -1708412.408 5  -1244221.72121
  23777643.1304   -3303660.42245  -1973889.33061
  23063318.403    10607522.088 6   8245402.31421
 91  4 10 23 38 30.0010000  0  5G 2G 6G15G13G19
  21263446.583    -3780772.225 8  -2842748.09124
  21790598.8564  -10554118.78447  -8182839.02763
  24261238.841    -1722486.548 5  -1255188.50021
  23767599.560    -3356452.811 5  -2015025.96821
  23070846.2164   10647079.32546   8276226.06461
 91  4 10 23 38 45.0010000  0  5G 2G 6G15G13G19
  21264144.583    -3777105.855 8  -2839891.16624
  21786499.8564  -10575655.40247  -8199620.77763
  24258581.708    -1736455.365 5  -1266073.22021
  23757561.216    -3409194.223 5  -2056122.89421
  23078385.2244   10686704.18646   8307102.49261
 91  4 10 23 39  0.0010000  0  5G 2G 6G15G13G19
  21264851.2244   -3773388.32548  -2836994.37864
  21782409.8024  -10597149.57347  -8216369.44763
  24255944.380    -1750317.351 5  -1276874.69321
  23747534.6064   -3461883.27045  -2097179.01361
  23085941.661    10726397.722 6   8338032.43921
 91  4 10 23 39 15.0010000  0  5G 2G 6G15G13G19
  21265569.1384   -3769618.01048  -2834056.46264
  21778327.9504  -10618599.11347  -8233083.34063
  24253324.7634   -1764070.15945  -1287591.09461
  23737519.450    -3514517.548 5  -2138192.45321
  23093506.724    10766161.802 6   8369017.35821
 91  4 10 23 39 30.0010000  0  5G 2G 6G15G13G19
  21266295.6384   -3765795.84348  -2831078.14564
  21774255.1694  -10640004.90547  -8249763.14462
  24250729.474    -1777714.755 5  -1298223.17521
  23727511.7084   -3567098.05545  -2179163.99161
  23101087.021    10805995.266 6   8400056.34221
 91  4 10 23 39 45.0010000  0  5G 2G 6G15G13G19
  21267032.2474   -3761922.59648  -2828060.02364
  21770190.5284  -10661367.42447  -8266409.22963
  24248154.325    -1791251.365 5  -1308771.10821
  23717516.7554   -3619625.03945  -2220093.84961
  23108679.794    10845897.386 6   8431148.81221
 91  4 10 23 40  0.0010000  0  5G 2G 6G15G13G19
  21267780.3494   -3757996.40148  -2825000.64464
  21766132.9194  -10682684.49347  -8283019.89463
  24245598.1144   -1804677.97845  -1319233.33861
  23707530.5364   -3672096.15445  -2260980.14361
  23116285.950    10885870.018 6   8462296.24021
 91  4 10 23 40 15.0010000  0  5G 2G 6G15G13G19
  21268535.5524   -3754023.28848  -2821904.69964
  21762084.5604  -10703961.74047  -8299599.53863
  24243062.6854   -1818000.02945  -1329614.07761
  23697556.708    -3724516.839 5  -2301827.16321
  23123904.6464   10925907.16846   8493493.93061
 91  4 10 23 40 30.0010000  0  5G 2G 6G15G13G19
  21269302.3644   -3749998.55048  -2818768.53264
  21758042.7714  -10725194.22247  -8316144.29663
  24240550.474    -1831212.553 5  -1339909.48321
  23687592.185    -3776881.987 5  -2342630.91221
  23131538.997    10966013.671 6   8524745.66521
 91  4 10 23 40 45.0010000  0  5G 2G 6G15G13G19
  21270077.1384   -3745923.93448  -2815593.50364
  21754010.9034  -10746383.32747  -8332655.25663
  24238056.4504   -1844316.88045  -1350120.57561
  23677638.0994   -3829192.75645  -2383392.27961
  23139182.3964   11006187.84046   8556050.12561
 91  4 10 23 41  0.0010000  0  5G 2G 6G15G13G19
  21270861.9744   -3741801.05048  -2812380.86064
  21749986.8884  -10767530.23047  -8349133.33163
  24235581.989    -1857314.340 5  -1360248.40221
  23667691.2864   -3881450.29845  -2424112.18861
  23146840.7314   11046427.94746   8587405.96261
 91  4 10 23 41 15.0010000  0  5G 2G 6G15G13G19
  21271656.2714   -3737628.25748  -2809129.31964
  21745971.5054  -10788633.03447  -8365577.04563
  24233130.3104   -1870202.88545  -1370291.36061
  23657757.286    -3933652.534 5  -2464788.99021
  23154510.0604   11086735.73446   8618814.53961
 91  4 10 23 41 30.0010000  0  5G 2G 6G15G13G19
  21272460.7394   -3733401.05948  -2805835.40064
  21741964.4894  -10809687.12947  -8381982.80563
  24230698.9814   -1882977.90045  -1380245.84561
  23647835.231    -3985794.737 5  -2505419.04021
  23162193.3254   11127115.63446   8650279.30861
 91  4 10 23 41 45.0010000  0  5G 2G 6G15G13G19
  21273273.7944   -3729123.37948  -2802502.13664
  21737967.4424  -10830696.05647  -8398353.36863
  24228288.864    -1895642.669 5  -1390114.44121
  23637925.364    -4037880.285 5  -2546004.94121
  23169891.6304   11167563.79046   8681797.25961
 91  4 10 23 42  0.0010000  0  5G 2G 6G15G13G19
  21274096.4584   -3724800.92748  -2799133.98764
  21733976.552   -10851665.265 7  -8414692.98423
  24225900.7864   -1908202.49145  -1399901.25761
  23628021.8804   -4089914.41346  -2586550.74561
  23177599.0524   11208074.44246   8713363.91261
 91  4 10 23 42 15.0010000  0  5G 2G 6G15G13G19
  21274929.5604   -3720423.55148  -2795723.04064
  21729996.4664  -10872584.21547  -8430993.43963
  24223529.419    -1920647.164 5  -1409598.34221
  23618132.919    -4141886.943 6  -2627048.59621
  23185323.6064   11248657.72646   8744987.15661
 91  4 10 23 42 30.0010000  0  5G 2G 6G15G13G19
  21275772.9744   -3715994.32348  -2792271.68764
  21726024.380   -10893455.927 7  -8447257.08423
  24221184.669    -1932979.372 5  -1419207.80521
  23608253.731    -4193800.226 6  -2667500.27621
  23193059.6464   11289310.35646   8776664.43961
 91  4 10 23 42 45.0010000  0  5G 2G 6G15G13G19
  21276624.8024   -3711515.82048  -2788781.94064
  21722060.810   -10914282.407 7  -8463485.48123
  24218857.255    -1945201.177 5  -1428731.24121
  23598385.817    -4245656.265 6  -2707907.34021
  23200808.5674   11330030.10946   8808394.02861
 91  4 10 23 43  0.0010000  0  5G 2G 6G15G13G19
  21277487.2394   -3706985.58048  -2785251.87564
  21718107.4584  -10935060.91447  -8479676.50063
  24216553.2714   -1957309.96645  -1438166.59961
  23588528.7314   -4297452.29046  -2748267.63061
  23208570.169    11370819.423 6   8840177.81721
 91  4 10 23 43 15.0010000  0  5G 2G 6G15G13G19
  21278358.2714   -3702408.05448  -2781684.96664
  21714161.2004  -10955795.63247  -8495833.39163
  24214270.567    -1969309.877 5  -1447517.13021
  23578682.6694   -4349192.38446  -2788584.36961
  23216345.3334   11411673.69546   8872012.22161
 91  4 10 23 43 30.0010000  0  5G 2G 6G15G13G19
  21279238.3494   -3697782.91448  -2778080.95564
  21710224.2084  -10976485.93847  -8511955.68063
  24212007.802    -1981200.243 5  -1456782.30921
  23568848.614    -4400875.724 6  -2828856.86821
  23224130.4584   11452593.24846   8903897.49261
 91  4 10 23 43 45.0010000  0  5G 2G 6G15G13G19
  21280127.3024   -3693110.64448  -2774440.22264
  21706294.8964  -10997131.98847  -8528043.47863
  24209764.755    -1992981.039 5  -1465962.09021
  23559023.5914   -4452502.16546  -2869085.02361
  23231930.6694   11493577.79346   8935833.40761
 91  4 10 23 44  0.0010000  0  5G 2G 6G15G13G19
  21281026.0834   -3688390.32148  -2770762.04364
  21702375.0134  -11017732.52247  -8544095.81463
  24207543.216    -2004650.976 5  -1475055.49721
  23549210.216    -4504070.476 6  -2909267.90121
  23239744.4034   11534628.34346   8967820.75261
 91  4 10 23 44 15.0010000  0  5G 2G 6G15G13G19
  21281933.6924   -3683619.17848  -2767044.26764
  21698463.9744  -11038284.59547  -8560110.38463
  24205346.2864   -2016207.31145  -1484060.36861
  23539408.513    -4555577.710 5  -2949403.19521
  23247566.7714   11575747.37346   8999861.46361
 91  4 10 23 44 30.0010000  0  5G 2G 6G15G13G19
  21282851.0754   -3678796.98648  -2763286.70564
  21694562.0914  -11058787.71147  -8576086.80663
  24203167.778    -2027649.513 5  -1492976.32121
  23529618.302    -4607023.205 5  -2989490.36321
  23255408.3254   11616935.09246   9031955.69161
 91  4 10 23 44 45.0010000  0  5G 2G 6G15G13G19
  21283777.8174   -3673925.21248  -2759490.51164
  21690669.9114  -11079242.86147  -8592025.85463
  24201013.341    -2038978.699 5  -1501804.20121
  23519840.7004   -4658407.80645  -3029530.08761
  23263254.4974   11658190.08046   9064102.33461
 91  4 10 23 45  0.0010000  0  5G 2G 6G15G13G19
  21284714.6774   -3669004.20748  -2755655.95664
  21686786.2244  -11099650.17347  -8607927.62263
  24198878.474    -2050194.783 5  -1510543.96121
  23510072.2944   -4709731.66646  -3069522.48761
  23271119.6464   11699512.00846   9096301.13761
 91  4 10 23 45 15.0010000  0  5G 2G 6G15G13G19
  21285660.1614   -3664033.31048  -2751782.52364
  21682912.2634  -11120008.87647  -8623791.51463
  24196765.247    -2061296.735 5  -1519194.77121
  23500318.177    -4760993.668 6  -3109466.67821
  23278994.286    11740901.521 6   9128552.60521
 91  4 10 23 45 30.0010000  0  5G 2G 6G15G13G19
  21286615.3104   -3659015.70248  -2747872.69264
  21679047.0674  -11140321.46147  -8639619.47063
  24194674.122    -2072287.207 5  -1527758.72521
  23490574.2084   -4812196.34645  -3149364.65261
  23286887.1224   11782355.64345   9160854.42561
 91  4 10 23 45 45.0010000  0  5G 2G 6G15G13G19
  21287579.0604   -3653951.77948  -2743926.77064
  21675190.1774  -11160588.15847  -8655411.67263
  24192603.771    -2083166.518 5  -1536236.05621
  23480842.5994   -4863339.43646  -3189216.18561
  23294783.505    11823873.893 6   9193206.20321
 91  4 10 23 46  0.0010000  0  5G 2G 6G15G13G19
  21288550.6854   -3648841.30248  -2739944.57464
  21671342.3724  -11180808.51147  -8671167.76263
  24190554.692    -2093934.174 5  -1544626.38721
  23471121.8884   -4914422.79346  -3229021.19161
  23302700.5444   11865456.27745   9225607.96161
 91  4 10 23 46 15.0010000  0  5G 2G 6G15G13G19
  21289533.0134   -3643683.55948  -2735925.54664
  21667503.8334  -11200981.61047  -8686887.02763
  24188526.7244   -2104589.13545  -1552928.89161
  23461412.286    -4965445.126 6  -3268778.63821
  23310623.075    11907103.671 6   9258060.37621
 91  4 10 23 46 30.0010000  0  5G 2G 6G15G13G19
  21290522.3724   -3638481.73848  -2731872.17364
  21663673.4504  -11221110.05147  -8702571.49763
  24186519.3024   -2115134.23445  -1561145.80561
  23451713.1774   -5016408.91946  -3308490.46761
  23318562.997    11948812.958 5   9290561.01821
 91  4 10 23 46 45.0010000  0  5G 2G 6G15G13G19
  21291521.5834   -3633236.04148  -2727784.60864
  21659851.5604  -11241193.80147  -8718221.13963
  24184534.3804   -2125569.09745  -1569276.81261
  23442026.388    -5067314.239 6  -3348156.74121
  23326508.1614   11990583.81745   9323109.63661
 91  4 10 23 47  0.0010000  0  5G 2G 6G15G13G19
  21292528.0994   -3627946.54948  -2723662.91664
  21656038.4814  -11261232.74447  -8733835.87063
  24182570.192    -2135893.635 5  -1577321.84521
  23432351.3724   -5118160.71546  -3387777.17461
  23334471.060    12032416.253 5   9355706.24021
 91  4 10 23 47 15.0010000  0  5G 2G 6G15G13G19
  21293543.239    -3622609.318 8  -2719504.02424
  21652233.8804  -11281222.45147  -8749412.23263
  24180626.5914   -2146103.52345  -1585277.54161
  23422687.6774   -5168943.60446  -3427348.03961
  23342441.263    12074314.240 5   9388353.92121
 91  4 10 23 47 30.0010000  0  5G 2G 6G15G13G19
  21294568.0214   -3617225.78948  -2715309.06064
  21648439.5674  -11301164.21147  -8764951.23363
  24178706.2244   -2156200.01545  -1593144.88261
  23413034.950    -5219664.175 6  -3466870.35721
  23350426.7244   12116276.17145   9421051.43061
 91  4 10 23 47 45.0010000  0  5G 2G 6G15G13G19
  21295600.2244   -3611797.94648  -2711079.56564
  21644653.1144  -11321059.77547  -8780454.24063
  24176804.989    -2166184.872 5  -1600925.24321
  23403393.9114   -5270324.06946  -3506345.40061
  23358423.622    12158300.004 5   9453797.16921
 91  4 10 23 48  0.0010000  0  5G 2G 6G15G13G19
  21296641.5754   -3606326.37548  -2706815.99864
  21640876.7554  -11340909.31947  -8795921.38463
  24174925.731    -2176058.250 5  -1608618.72921
  23393764.825    -5320923.464 6  -3545773.29721
  23366434.521    12200385.187 5   9486590.71421
 91  4 10 23 48 15.0010000  0  5G 2G 6G15G13G19
  21297691.1144   -3600812.13248  -2702519.17864
  21637107.3804  -11360713.64847  -8811353.29863
  24173068.700    -2185821.272 5  -1616226.22021
  23384147.817    -5371463.099 6  -3585154.63521
  23374451.606    12242530.507 6   9519431.12321
 91  4 10 23 48 30.0010000  0  5G 2G 6G15G13G19
  21298747.9114   -3595259.38248  -2698192.35464
  21633346.9744  -11380476.43947  -8826752.84663
  24171231.239    -2195477.325 5  -1623750.36121
  23374541.513    -5421946.427 6  -3624492.09821
  23382482.317    12284731.927 5   9552315.24721
 91  4 10 23 48 45.0010000  0  5G 2G 6G15G13G19
  21299811.8494   -3589669.57648  -2693836.66364
  21629593.7244  -11400198.96847  -8842121.02063
  24169413.0134   -2205027.71445  -1631192.16961
  23364945.622    -5472374.650 6  -3663786.62021
  23390522.786    12326987.937 6   9585241.89321
 91  4 10 23 49  0.0010000  0  5G 2G 6G15G13G19
  21300882.2164   -3584042.31348  -2689451.77864
  21625848.3414  -11419880.47847  -8857457.22563
  24167617.302    -2214471.732 5  -1638551.08621
  23355358.653    -5522746.801 6  -3703037.44621
  23398575.661    12369298.976 6   9618211.43421
 91  4 10 23 49 15.0010000  0  5G 2G 6G15G13G19
  21301960.3494   -3578377.70748  -2685037.79364
  21622111.1064  -11439520.71547  -8872761.27763
  24165840.7554   -2223809.08445  -1645826.88761
  23345783.6224   -5573062.43946  -3742244.22761
  23406637.450    12411665.126 5   9651223.91021
 91  4 10 23 49 30.0010000  0  5G 2G 6G15G13G19
  21303045.0364   -3572675.86748  -2680594.79864
  21618381.4194  -11459119.52247  -8888033.04663
  24164082.841    -2233039.695 5  -1653019.52621
  23336219.7864   -5623321.42146  -3781406.87361
  23414711.021    12454085.964 6   9684279.00121
 91  4 10 23 49 45.0010000  0  5G 2G 6G15G13G19
  21304136.7084   -3566939.63248  -2676124.99964
  21614659.0134  -11478679.54447  -8903274.58863
  24162345.8644   -2242165.96445  -1660130.84761
  23326666.458    -5673526.253 6  -3820527.33621
  23422793.966    12496558.701 6   9717374.53021
 91  4 10 23 50  0.0010000  0  5G 2G 6G15G13G19
  21305235.1774   -3561168.05248  -2671627.66264
  21610944.3334  -11498199.38647  -8918484.82963
  24160629.513    -2251186.773 5  -1667159.99421
  23317123.4664   -5723675.51446  -3859604.48561
  23430887.231    12539084.346 5   9750511.28721
 91  4 10 23 50 15.0010000  0  5G 2G 6G15G13G19
  21306339.7944   -3555360.38948  -2667102.20464
  21607238.2004  -11517678.09147  -8933663.00363
  24158933.817    -2260101.195 6  -1674106.24221
  23307590.7164   -5773768.17846  -3898637.51861
  23438988.419    12581663.459 5   9783689.70621
 91  4 10 23 50 30.0010000  0  5G 2G 6G15G13G19
  21307453.1464   -3549512.97148  -2662545.76964
  21603539.4814  -11537111.72347  -8948806.06063
  24157257.505    -2268905.295 5  -1680966.53421
  23298069.669    -5823800.184 6  -3937623.31021
  23447102.411    12624299.693 5   9816912.64021
 91  4 10 23 50 45.0010000  0  5G 2G 6G15G13G19
  21308573.6144   -3543623.83548  -2657956.82564
  21599851.1144  -11556498.02247  -8963912.23163
  24155603.661    -2277596.954 6  -1687739.19421
  23288560.5834   -5873768.96146  -3976559.82961
  23455225.880    12666995.244 5   9850181.78621
 91  4 10 23 51  0.0010000  0  5G 2G 6G15G13G19
  21309700.8494   -3537699.33848  -2653340.32364
  21596169.7164  -11575842.76947  -8978986.02763
  24153969.7314   -2286181.68145  -1694428.53361
  23279062.380    -5923680.483 6  -4015451.71621
  23463362.708    12709743.721 5   9883492.18621
 91  4 10 23 51 15.0010000  0  5G 2G 6G15G13G19
  21310836.278    -3531734.212 8  -2648692.16124
  21592497.2084  -11595140.63647  -8994023.29363
  24152358.3104   -2294654.03146  -1701030.31361
  23269576.224    -5973529.106 6  -4054294.62321
  23471508.005    12752550.178 5   9916847.75821
 91  4 10 23 51 30.0010000  0  5G 2G 6G15G13G19
  21311978.2244   -3525731.02248  -2644014.34264
  21588833.6064  -11614393.80347  -9009025.72563
  24150765.8024   -2303016.69246  -1707546.60561
  23260102.974    -6023316.986 6  -4093090.18521
  23479665.286    12795411.908 5   9950246.39821
 91  4 10 23 51 45.0010000  0  5G 2G 6G15G13G19
  21313127.4974   -3519690.76548  -2639307.64064
  21585177.7864  -11633603.05447  -9023993.94163
  24149196.005    -2311270.374 5  -1713977.99521
  23250640.1924   -6073044.80346  -4131838.94761
  23487828.919    12838328.004 5   9983687.40121
 91  4 10 23 52  0.0010000  0  5G 2G 6G15G13G19
  21314284.9194   -3513606.63948  -2634566.75364
  21581531.6224  -11652761.05647  -9038922.22063
  24147646.9744   -2319407.54445  -1720318.58061
  23241189.1774   -6122705.30846  -4170535.25261
  23496008.903    12881305.359 5  10017176.14421
 91  4 10 23 52 15.0010000  0  5G 2G 6G15G13G19
  21315451.6694   -3507478.69148  -2629791.72364
  21577896.4584  -11671867.81747  -9053810.57463
  24146120.1224   -2327428.17946  -1726568.36461
  23231752.239    -6172298.048 6  -4209178.75721
  23504199.1854   12924343.82145  10050712.49061
 91  4 10 23 52 30.0010000  0  5G 2G 6G15G13G19
  21316625.0284   -3501313.05348  -2624987.32064
  21574269.2944  -11690929.08247  -9068663.47663
  24144615.1534   -2335338.03246  -1732731.82261
  23222327.021    -6221828.716 6  -4247773.90221
  23512398.372    12967437.076 5  10084291.53721
 91  4 10 23 52 45.0010000  0  5G 2G 6G15G13G19
  21317805.1304   -3495110.29148  -2620153.99164
  21570650.4504  -11709944.91147  -9083480.97463
  24143129.810    -2343137.579 5  -1738809.34921
  23212912.8564   -6271297.40146  -4286320.75261
  23520610.966    13010584.755 5  10117912.99521
 91  4 10 23 53  0.0010000  0  5G 2G 6G15G13G19
  21318994.2084   -3488862.97148  -2615285.94164
  21567042.2474  -11728907.78747  -9098257.21163
  24141670.3564   -2350819.09146  -1744794.87161
  23203512.286    -6320696.535 6  -4324813.39421
  23528834.599    13053794.378 5  10151582.72221
 91  4 10 23 53 15.0010000  0  5G 2G 6G15G13G19
  21320191.8104   -3482570.90248  -2610383.02464
  21563444.2084  -11747816.99747  -9112991.62963
  24140230.1854   -2358381.95046  -1750687.94961
  23194124.0604   -6370025.65746  -4363251.51161
  23537066.841    13097065.988 5  10185300.74321
 91  4 10 23 53 30.0010000  0  5G 2G 6G15G13G19
  21321397.3644   -3476234.20848  -2605445.33664
  21559855.5134  -11766672.42647  -9127684.14063
  24138814.0444   -2365826.06846  -1756488.48961
  23184751.4664   -6419284.09246  -4401634.52161
  23545312.911    13140399.270 5  10219066.82521
 91  4 10 23 53 45.0010000  0  5G 2G 6G15G13G19
  21322611.1384   -3469855.41748  -2600474.84064
  21556276.7004  -11785476.30647  -9142336.48563
  24137418.271    -2373153.754 5  -1762198.31121
  23175391.106    -6468473.976 6  -4439964.10921
  23553570.575    13183791.640 5  10252878.95521
 91  4 10 23 54  0.0010000  0  5G 2G 6G15G13G19
  21323834.1384   -3463429.10148  -2595467.31664
  21552709.9424  -11804223.07347  -9156944.32963
  24136047.911    -2380359.247 6  -1767812.92621
  23166044.833    -6517589.617 6  -4478235.87121
  23561842.263    13227248.473 5  10286741.31221
 91  4 10 23 54 15.0010000  0  5G 2G 6G15G13G19
  21325065.4814   -3456955.83048  -2590423.20064
  21549153.3494  -11822912.88747  -9171507.78863
  24134699.935    -2387442.889 5  -1773332.56421
  23156711.177    -6566631.056 6  -4516449.80921
  23570122.755    13270769.313 5  10320653.54621
 91  4 10 23 54 30.0010000  0  5G 2G 6G15G13G19
  21326305.8964   -3450438.20548  -2585344.52564
  21545606.7714  -11841548.08747  -9186028.69263
  24133374.255    -2394407.333 6  -1778759.34321
  23147392.341    -6615600.494 6  -4554607.63521
  23578414.856    13314351.498 5  10354613.58321
 91  4 10 23 54 45.0010000  0  5G 2G 6G15G13G19
  21327555.0834   -3443874.40548  -2580229.87264
  21542071.8724  -11860126.40247  -9200505.27563
  24132072.005    -2401250.112 5  -1784091.33121
  23138090.2474   -6664495.71146  -4592707.63161
  23586722.3884   13357996.83445  10388622.81761
 91  4 10 23 55  0.0010000  0  5G 2G 6G15G13G19
  21328812.3724   -3437264.88748  -2575079.59664
  21538547.5994  -11878647.98647  -9214937.64163
  24130792.6464   -2407971.45745  -1789328.67361
  23128798.7394   -6713316.75046  -4630749.81561
  23595039.302    13401704.805 5  10422680.86421
 91  4 10 23 55 15.0010000  0  5G 2G 6G15G13G19
  21330078.4744   -3430613.94548  -2569897.04064
  21535032.9424  -11897116.82447  -9229328.91163
  24129536.5054   -2414575.32145  -1794474.47561
  23119520.614    -6762067.509 6  -4668737.25721
  23603366.239    13445471.238 5  10456784.47221
 91  4 10 23 55 30.0010000  0  5G 2G 6G15G13G19
  21331351.4974   -3423921.15248  -2564681.87564
  21531528.9354  -11915532.21247  -9243678.53763
  24128302.8804   -2421061.21346  -1799528.36361
  23110257.099    -6810747.233 6  -4706669.34121
  23611706.192    13489296.365 5  10490933.80521
 91  4 10 23 55 45.0010000  0  5G 2G 6G15G13G19
  21332633.1224   -3417187.06148  -2559434.53164
  21528034.6464  -11933894.36247  -9257986.67663
  24127091.3884   -2427429.28245  -1804490.43961
  23101007.3644   -6859355.86646  -4744546.01961
  23620057.708    13533179.569 5  10525128.39221
 91  4 10 23 56  0.0010000  0  5G 2G 6G15G13G19
  21333922.8964   -3410413.69548  -2554156.58064
  21524549.1924  -11952205.08947  -9272254.74863
  24125900.685    -2433681.476 6  -1809362.20021
  23091769.278    -6907895.253 6  -4782368.73521
  23628419.239    13577118.632 5  10559366.51621
 91  4 10 23 56 15.0010000  0  5G 2G 6G15G13G19
  21335219.2784   -3403599.93848  -2548847.15864
  21521075.1774  -11970462.92047  -9286481.60263
  24124733.341    -2439816.074 6  -1814142.36821
  23082546.528    -6956363.839 6  -4820136.30321
  23636791.333    13621114.911 5  10593649.22321
 91  4 10 23 56 30.0010000  0  5G 2G 6G15G13G19
  21336523.7864   -3396743.94948  -2543504.82764
  21517611.5524  -11988665.59647  -9300665.47763
  24123589.286    -2445831.012 6  -1818829.26821
  23073336.317    -7004759.333 6  -4857846.90621
  23645177.497    13665170.241 5  10627977.94421
 91  4 10 23 56 45.0010000  0  5G 2G 6G15G13G19
  21337837.2004   -3389842.56148  -2538127.11964
  21514158.5914  -12006809.68847  -9314803.70163
  24122467.052    -2451723.087 6  -1823420.43821
  23064143.052    -7053078.059 6  -4895497.69421
  23653570.442    13709287.554 5  10662354.96221
 91  4 10 23 57  0.0010000  0  5G 2G 6G15G13G19
  21339158.1064   -3382901.83748  -2532718.76564
  21510715.989   -12024901.081 7  -9328900.86723
  24121368.700    -2457498.367 6  -1827920.60221
  23054960.419    -7101326.165 6  -4933093.45121
  23661979.216    13753460.713 5  10696775.49621
 91  4 10 23 57 15.0010000  0  5G 2G 6G15G13G19
  21340486.4584   -3375921.20948  -2527279.31464
  21507283.411   -12042938.759 7  -9342956.17623
  24120290.4504   -2463155.74646  -1832328.89161
  23045794.114    -7149502.625 6  -4970633.38221
  23670392.661    13797690.369 5  10731240.05321
 91  4 10 23 57 30.0010000  0  5G 2G 6G15G13G19
  21341822.9974   -3368896.89048  -2521805.81764
  21503862.497   -12060918.565 7  -9356966.38923
  24119238.2164   -2468690.99246  -1836642.03061
  23036640.950    -7197602.635 6  -5008113.74021
  23678819.9354   13841980.22645  10765751.51661
 91  4 10 23 57 45.0010000  0  5G 2G 6G15G13G19
  21343167.9114   -3361830.67248  -2516299.67164
  21500451.450   -12078842.258 7  -9370932.87723
  24118208.356    -2474105.973 6  -1840861.44321
  23027501.810    -7245627.935 6  -5045535.89021
  23687259.583    13886328.255 5  10800308.30921
 91  4 10 23 58  0.0010000  0  5G 2G 6G15G13G19
  21344520.9664   -3354721.09248  -2510759.74064
  21497051.153   -12096707.840 7  -9384854.08423
  24117199.1384   -2479398.68645  -1844985.57661
  23018378.0364   -7293576.62546  -5082898.33461
  23695713.505    13930736.047 5  10834911.67121
 91  4 10 23 58 15.0010000  0  5G 2G 6G15G13G19
  21345880.8494   -3347571.71048  -2505188.79064
  21493662.060   -12114518.775 7  -9398732.71123
  24116216.231    -2484572.645 6  -1849017.16521
  23009266.481    -7341451.949 6  -5120203.61021
  23704171.0444   13975200.04745  10869558.83061
 91  4 10 23 58 30.0010000  0  5G 2G 6G15G13G19
  21347249.2554   -3340381.64248  -2499586.13864
  21490283.505   -12132273.543 7  -9412567.57223
  24115254.5364   -2489626.65446  -1852955.30461
  23000170.841    -7389252.560 6  -5157450.68421
  23712649.153    14019721.256 5  10904250.57021
 91  4 10 23 58 45.0010000  0  5G 2G 6G15G13G19
  21348625.1614   -3333150.76948  -2493951.69064
  21486916.161   -12149971.837 7  -9426358.42623
  24114313.8564   -2494560.57845  -1856799.85461
  22991088.185    -7436978.019 6  -5194639.18021
  23721127.614    14064299.591 5  10938986.81821
 91  4 10 23 59  0.0010000  0  5G 2G 6G15G13G19
  21350008.6774   -3325878.17248  -2488284.73464
  21483558.552   -12167612.417 7  -9440104.30723
  24113399.841    -2499373.249 6  -1860549.93921
  22982020.9974   -7484626.93146  -5231768.04361
  23729624.661    14108935.879 5  10973768.23121
 91  4 10 23 59 15.0010000  0  5G 2G 6G15G13G19
  21351400.5834   -3318568.33648  -2482588.75964
  21480211.747   -12185199.384 7  -9453808.41523
  24112506.083    -2504068.638 6  -1864208.62421
  22972967.685    -7532203.417 6  -5268840.45321
  23738126.591    14153625.513 5  11008591.21421
 91  4 10 23 59 30.0010000  0  5G 2G 6G15G13G19
  21352799.5994   -3311217.13948  -2476860.55464
  21476877.200   -12202728.581 7  -9467467.50623
  24111635.630    -2508642.517 6  -1867772.63821
  22963927.864    -7579703.132 6  -5305853.05921
  23746644.528    14198372.514 5  11043458.88821
 91  4 10 23 59 45.0010000  0  5G 2G 6G15G13G19
  21354206.1464   -3303823.74948  -2471099.47064
  21473552.974   -12220198.737 7  -9481080.59223
  24110787.356    -2513093.791 6  -1871241.10921
  22954903.192    -7627124.918 6  -5342804.93421
  23755167.388    14243177.729 5  11078371.93621
 91  4 11  0  0  0.0010000  0  5G 2G 6G15G13G19
  21355621.4034   -3296388.77648  -2465305.98464
  21470238.849   -12237610.208 7  -9494647.94823
  24109964.599    -2517422.985 6  -1874614.46321
  22945894.247    -7674468.924 6  -5379696.20521
  23763704.255    14288040.524 5  11113329.84221
 91  4 11  0  0 15.0010000  0  5G 2G 6G15G13G19
  21357043.1694   -3288915.07848  -2459482.32464
  21466936.567   -12254965.337 7  -9508171.40223
  24109163.919    -2521632.646 6  -1877894.66321
  22936899.2554   -7721737.52646  -5416528.72261
  23772253.8174   14332958.05545  11148330.40261
 91  4 11  0  0 30.0010000  0  5G 2G 6G15G13G19
  21358473.6384   -3281397.61648  -2453624.55564
  21463646.271   -12272258.794 7  -9521646.79923
  24108385.2084   -2525717.39546  -1881077.54161
  22927919.8024   -7768925.26446  -5453298.23061
  23780812.411    14377935.206 5  11183377.41521
 91  4 11  0  0 45.0010000  0  5G 2G 6G15G13G19
  21359912.0994   -3273837.51248  -2447733.56464
  21460366.325   -12289491.476 7  -9535074.84023
  24107632.739    -2529677.968 6  -1884163.64721
  22918955.411    -7816032.790 6  -5490005.21921
  23789383.1064   14422970.90045  11218470.04661
 91  4 11  0  1  0.0010000  0  5G 2G 6G15G13G19
  21361359.3254   -3266235.11848  -2441809.61864
  21457098.536   -12306663.489 7  -9548455.61123
  24106902.286    -2533514.783 6  -1887153.32121
  22910005.583    -7863060.173 6  -5526649.77421
  23797963.864    14468064.747 5  11253607.99521
 91  4 11  0  1 15.0010000  0  5G 2G 6G15G13G19
  21362814.6464   -3258586.25748  -2435849.46264
  21453842.567   -12323770.472 7  -9561785.70423
  24106196.778    -2537223.316 6  -1890043.03921
  22901073.880    -7910002.770 6  -5563228.26221
  23806558.544    14513220.567 5  11288794.23321
 91  4 11  0  1 30.0010000  0  5G 2G 6G15G13G19
  21364279.0214   -3250889.97548  -2429852.36164
  21450600.458   -12340810.933 7  -9575063.96623
  24105514.708    -2540802.412 6  -1892831.88921
  22892155.833    -7956859.116 6  -5599739.53421
  23815159.9354   14558439.49145  11324029.64261
 91  4 11  0  1 45.0010000  0  5G 2G 6G15G13G19
  21365752.7244   -3243147.41248  -2423819.19864
  21447370.317   -12357785.703 7  -9588291.03623
  24104858.185    -2544253.033 6  -1895520.64921
  22883256.1064   -8003630.18946  -5636184.37261
  23823779.669    14603720.296 5  11359313.27421
 91  4 11  0  2  0.0010000  0  5G 2G 6G15G13G19
  21367233.8804   -3235361.74748  -2417752.44564
  21444151.435   -12374697.675 7  -9601469.17423
  24104225.521    -2547578.049 6  -1898111.51721
  22874371.9504   -8050318.72146  -5672564.88861
  23832405.083    14649059.754 5  11394642.59221
 91  4 11  0  2 15.0010000  0  5G 2G 6G15G13G19
  21368725.3254   -3227525.21748  -2411646.06264
  21440946.974   -12391538.748 7  -9614592.06523
  24103619.606    -2550769.463 6  -1900598.27721
  22865504.4034   -8096916.59946  -5708874.77361
  23841047.3724   14694465.64645  11430023.68761
 91  4 11  0  2 30.0010000  0  5G 2G 6G15G13G19
  21370225.0524   -3219642.41148  -2405503.61464
  21437754.560   -12408313.164 7  -9627663.02023
  24103036.8564   -2553831.89746  -1902984.56761
  22856653.1774   -8143428.06346  -5745117.31761
  23849697.700    14739933.297 5  11465452.91021
 91  4 11  0  2 45.0010000  0  5G 2G 6G15G13G19
  21371734.2474   -3211712.61448  -2399324.55864
  21434575.708   -12425020.062 7  -9640681.35823
  24102478.560    -2556764.196 6  -1905269.42321
  22847819.2784   -8189851.99546  -5781291.65761
  23858364.435    14785463.082 5  11500930.55121
 91  4 11  0  3  0.0010000  0  5G 2G 6G15G13G19
  21373252.5914   -3203731.84748  -2393105.78064
  21431409.997   -12441655.034 7  -9653643.65223
  24101945.427    -2559562.057 6  -1907449.53821
  22839002.122    -8236184.082 6  -5817394.42821
  23867039.4504   14831059.07845  11536459.78361
 91  4 11  0  3 15.0010000  0  5G 2G 6G15G13G19
  21374781.3334   -3195700.83348  -2386847.85264
  21428257.856   -12458218.495 7  -9666550.22723
  24101439.278    -2562226.053 6  -1909525.33821
  22830203.552    -8282424.592 6  -5853425.86121
  23875730.6534   14876720.56845  11572040.04561
 91  4 11  0  3 30.0010000  0  5G 2G 6G15G13G19
  21376318.7634   -3187618.72548  -2380550.10764
  21425120.185   -12474709.412 7  -9679400.27223
  24100957.5524   -2564755.28746  -1911496.13661
  22821420.6614   -8328572.54746  -5889385.14661
  23884430.2714   14922448.14245  11607671.80961
 91  4 11  0  3 45.0010000  0  5G 2G 6G15G13G19
  21377867.8334   -3179482.65848  -2374210.31764
  21421996.646   -12491124.495 7  -9692191.22423
  24100502.0604   -2567146.63646  -1913359.48761
  22812657.2164   -8374624.51746  -5925269.66061
  23893145.911    14968244.775 5  11643357.38221
 91  4 11  0  4  0.0010000  0  5G 2G 6G15G13G19
  21379424.3334   -3171298.92848  -2367833.38464
  21418885.935   -12507469.841 7  -9704927.83823
  24100070.7474   -2569406.04246  -1915120.02861
  22803911.216    -8420586.356 6  -5961083.93921
  23901873.6774   15014104.09445  11679091.80261
 91  4 11  0  4 15.0010000  0  5G 2G 6G15G13G19
  21380991.2784   -3163066.28248  -2361418.33864
  21415788.771   -12523743.804 7  -9717608.82823
  24099668.3884   -2571532.34145  -1916776.84661
  22795181.2554   -8466456.56846  -5996826.82361
  23910610.872    15060027.501 5  11714876.16021
 91  4 11  0  4 30.0010000  0  5G 2G 6G15G13G19
  21382567.7714   -3154782.67048  -2354963.57464
  21412707.505   -12539943.891 7  -9730232.25523
  24099287.450    -2573523.289 6  -1918328.18621
  22786470.356    -8512232.736 6  -6032496.42821
  23919361.4664   15106016.79745  11750711.85361
 91  4 11  0  4 45.0010000  0  5G 2G 6G15G13G19
  21384153.1224   -3146448.14948  -2348469.14364
  21409638.044   -12556069.783 7  -9742797.86423
  24098934.8564   -2575378.31846  -1919773.63661
  22777777.950    -8557914.294 6  -6068092.30521
  23928126.9664   15152071.83745  11786598.77961
 91  4 11  0  5  0.0010000  0  5G 2G 6G15G13G19
  21385748.8414   -3138063.22048  -2341935.43664
  21406582.872   -12572121.857 7  -9755305.95623
  24098610.2634   -2577097.99546  -1921113.61461
  22769103.7784   -8603501.46746  -6103614.65361
  23936903.5054   15198192.01845  11822536.45761
 91  4 11  0  5 15.0010000  0  5G 2G 6G15G13G19
  21387355.0674   -3129626.86148  -2335361.65464
  21403542.356   -12588098.946 7  -9767755.61323
  24098305.5994   -2578681.28446  -1922347.30461
  22760447.216    -8648993.241 6  -6139062.64921
  23945693.966    15244378.163 5  11858525.54421
 91  4 11  0  5 30.0010000  0  5G 2G 6G15G13G19
  21388968.5754   -3121144.89548  -2328752.32964
  21400515.622   -12604006.379 7  -9780150.99523
  24098032.427    -2580133.492 6  -1923478.85721
  22751806.7244   -8694394.79446  -6174440.34661
  23954493.9584   15290624.56345  11894561.57061
 91  4 11  0  5 45.0010000  0  5G 2G 6G15G13G19
  21390592.0364   -3112613.47548  -2322104.47064
  21397502.661   -12619840.080 7  -9792488.92323
  24097780.0444   -2581450.72446  -1924505.24061
  22743184.9194   -8739701.76646  -6209744.35561
  23963306.5674   15336934.82845  11930647.37661
 91  4 11  0  6  0.0010000  0  5G 2G 6G15G13G19
  21392225.3804   -3104034.82248  -2315419.80964
  21394503.513   -12635601.819 7  -9804770.77823
  24097554.9664   -2582634.86846  -1925427.90961
  22734579.888    -8784915.809 6  -6244975.93721
  23972129.6144   15383306.64045  11966781.13361
 91  4 11  0  6 15.0010000  0  5G 2G 6G15G13G19
  21393866.5674   -3095406.39748  -2308696.36363
  21391518.255   -12651288.797 7  -9816994.37823
  24097356.0134   -2583683.21646  -1926244.76861
  22725994.247    -8830034.283 6  -6280133.06121
  23980967.271    15429742.564 5  12002964.84121
 91  4 11  0  6 30.0010000  0  5G 2G 6G15G13G19
  21395518.4194   -3086729.62848  -2301935.24864
  21388547.122   -12666902.251 7  -9829160.68723
  24097180.7634   -2584597.12946  -1926956.87261
  22717427.7314   -8875058.43546  -6315216.68461
  23989813.1924   15476240.96445  12039197.24661
 91  4 11  0  6 45.0010000  0  5G 2G 6G15G13G19
  21397177.4894   -3078008.26848  -2295139.38064
  21385588.935   -12682445.638 7  -9841272.39923
  24097031.2634   -2585380.41646  -1927567.20061
  22708877.294    -8919991.739 6  -6350229.51621
  23998675.9894   15522798.05445  12075475.37861
 91  4 11  0  7  0.0010000  0  5G 2G 6G15G13G19
  21398846.7164   -3069239.41448  -2288306.50664
  21382645.919   -12697915.782 7  -9853327.03623
  24096907.8254   -2586029.89946  -1928073.25561
  22700342.708    -8964830.937 6  -6385169.01621
  24007544.606    15569416.605 5  12111801.40721
 91  4 11  0  7 15.0010000  0  5G 2G 6G15G13G19
  21400524.0834   -3060423.45348  -2281436.92964
  21379715.403   -12713312.632 7  -9865324.56623
  24096809.3564   -2586545.48146  -1928474.97161
  22691828.544    -9009575.728 6  -6420034.95121
  24016430.247    15616096.323 5  12148175.07721
 91  4 11  0  7 30.0010000  0  5G 2G 6G15G13G19
  21402210.6614   -3051560.54048  -2274530.76064
  21376799.513   -12728636.085 7  -9877264.89523
  24096736.130    -2586927.056 6  -1928772.26221
  22683333.153    -9054225.872 6  -6454827.14021
  24025321.5604   15662836.98245  12184596.24861
 91  4 11  0  7 45.0010000  0  5G 2G 6G15G13G19
  21403905.3414   -3042651.06448  -2267588.30964
  21373897.325   -12743886.145 7  -9889148.03723
  24096688.7084   -2587175.19446  -1928965.59361
  22674853.864    -9098781.639 6  -6489545.78821
  24034230.0214   15709638.10345  12221064.54161
 91  4 11  0  8  0.0010000  0  5G 2G 6G15G13G19
  21405610.2244   -3033693.70148  -2260608.54164
  21371009.208   -12759061.298 7  -9900972.81023
  24096668.5214   -2587288.55646
  22666393.669    -9143241.296 6  -6524189.53521
  24043144.1384   15756500.89145  12257580.87261
 91  4 11  0  8 15.0010000  0  5G 2G 6G15G13G19
  21407323.4034   -3024689.39648  -2253592.19964
  21368135.919   -12774162.020 7  -9912739.58323
  24096672.6464   -2587267.62746
  22657950.888    -9187605.429 6  -6558758.85721
  24052078.2784   15803424.38045  12294144.50961
 91  4 11  0  8 30.0010000  0  5G 2G 6G15G13G19
  21409045.0754   -3015637.43348  -2246538.71664
  21365276.411   -12789187.512 7  -9924447.73323
  24096702.7634   -2587111.55246
  22649526.903    -9231873.225 6  -6593253.11121
  24061014.5524   15850409.10545  12330755.86461
 91  4 11  0  8 45.0010000  0  5G 2G 6G15G13G19
  21410777.0444   -3006540.94848  -2239450.54564
  21362430.802   -12804140.519 7  -9936099.40424
  24096757.5054   -2586823.30746
  22641120.013    -9276047.264 6  -6627674.30621
  24069970.5674   15897451.75445  12367412.34961
 91  4 11  0  9  0.0010000  0  5G 2G 6G15G13G19
  21412517.8964   -2997396.25948  -2232324.81464
  21359600.310   -12819017.026 7  -9947691.46123
  24096836.8254   -2586398.76446  -1928360.40161
  22632732.755    -9320123.319 6  -6662019.14721
  24078933.958    15944556.103 5  12404116.91921
 91  4 11  0  9 15.0010000  0  5G 2G 6G15G13G19
  21414266.3334   -2988201.31248  -2225159.91664
  21356784.067   -12833814.511 7  -9959221.94723
  24096945.692    -2585835.782 6  -1927921.67621
  22624365.208    -9364098.979 6  -6696285.76121
  24087910.2004   15991724.24345  12440871.18861
 91  4 11  0  9 30.0010000  0  5G 2G 6G15G13G19
  21416026.2394   -2978960.41048  -2217959.21364
  21353983.021   -12848537.156 7  -9970694.11723
  24097075.9894   -2585138.62846  -1927378.40661
  22616014.3024   -9407978.38946  -6730477.38161
  24096896.8104   16038951.69545  12477671.68361
 91  4 11  0  9 45.0010000  0  5G 2G 6G15G13G19
  21417793.0994   -2969671.79548  -2210721.33064
  21351196.255   -12863182.936 7  -9982106.39024
  24097237.317    -2584305.688 6  -1926729.32421
  22607683.286    -9451759.512 6  -6764592.41321
  24105896.989    16086239.943 5  12514519.53421
 91  4 11  0 10  0.0010000  0  5G 2G 6G15G13G19
  21419570.7004   -2960332.63748  -2203444.06164
  21348423.560   -12877748.528 7  -9993456.17723
  24097419.9814   -2583333.67846  -1925971.88161
  22599370.7944   -9495439.13246  -6798628.35161
  24114906.224    16133591.844 5  12551416.99621
 91  4 11  0 10 15.0010000  0  5G 2G 6G15G13G19
  21421357.3104   -2950941.90348  -2196126.60764
  21345667.552   -12892232.663 7 -10004742.49423
  24097634.7164   -2582221.15746  -1925104.94361
  22591079.185    -9539015.433 6  -6832583.77521
  24123929.3804   16181008.62445  12588365.01061
 91  4 11  0 10 30.0010000  0  5G 2G 6G15G13G19
  21423153.5604   -2941505.92148  -2188773.89464
  21342926.005   -12906641.321 7 -10015969.99923
  24097870.1064   -2580974.58246  -1924133.55161
  22582804.505    -9582494.661 6  -6866463.56621
  24132965.6774   16228483.47545  12625358.27761
 91  4 11  0 10 45.0010000  0  5G 2G 6G15G13G19
  21424957.3644   -2932024.82348  -2181386.02664
  21340198.427   -12920974.476 7 -10027138.67024
  24098130.7314   -2579593.77846  -1923057.56761
  22574549.9664   -9625876.80346  -6900267.69961
  24142009.5444   16276016.12245  12662396.57761
 91  4 11  0 11  0.0010000  0  5G 2G 6G15G13G19
  21426770.2714   -2922497.97248  -2173962.50564
  21337484.325   -12935231.234 7 -10038247.81024
  24098419.5754   -2578078.07246  -1921876.45461
  22566313.2944   -9669160.65646  -6933995.24661
  24151067.1924   16323607.06845  12699480.31261
 91  4 11  0 11 15.0010000  0  5G 2G 6G15G13G19
  21428591.2244   -2912924.63648  -2166502.76264
  21334787.575   -12949410.352 7 -10049296.45523
  24098735.560    -2576426.548 6  -1920589.51921
  22558095.0994   -9712345.35346  -6967645.53761
  24160132.942    16371257.270 5  12736610.20421
 91  4 11  0 11 30.0010000  0  5G 2G 6G15G13G19
  21430422.5914   -2903304.08848  -2159006.23264
  21332104.325   -12963510.881 7 -10060283.85523
  24099076.630    -2574638.277 6  -1919196.01221
  22549896.255    -9755429.782 6  -7001217.68321
  24169215.458    16418967.153 5  12773786.62221
 91  4 11  0 11 45.0010000  0  5G 2G 6G15G13G19
  21432261.6534   -2893638.14248  -2151474.32664
  21329434.817   -12977534.300 7 -10071211.17123
  24099441.8104   -2572715.04946  -1917697.35761
  22541715.6064   -9798415.21846  -7034712.70861
  24178302.6614   16466734.92945  12811008.12561
 91  4 11  0 12  0.0010000  0  5G 2G 6G15G13G19
  21434109.9424   -2883925.70248  -2143906.18964
  21326781.575   -12991479.287 7 -10082077.37123
  24099833.974    -2570655.699 6  -1916092.62221
  22533555.372    -9841300.426 6  -7068129.62521
  24187403.7474   16514561.48945  12848275.45061
 91  4 11  0 12 15.0010000  0  5G 2G 6G15G13G19
  21435966.8254   -2874167.19648  -2136302.15764
  21324142.794   -13005345.996 7 -10092882.57323
  24100250.841    -2568460.372 6  -1914381.93821
  22525413.4034   -9884085.60846  -7101468.60461
  24196515.911    16562446.204 5  12885588.08021
 91  4 11  0 12 30.0010000  0  5G 2G 6G15G13G19
  21437832.9584   -2864362.16048  -2128661.87064
  21321519.302   -13019133.551 7 -10103626.09423
  24100694.0914   -2566128.19846  -1912564.61061
  22517289.7314   -9926769.61046  -7134728.74461
  24205637.3964   16610389.74145  12922946.55461
 91  4 11  0 12 45.0010000  0  5G 2G 6G15G13G19
  21439707.2634   -2854511.80148  -2120986.26064
  21318910.3884  -13032842.78147 -10114308.58464
  24101162.513    -2563660.482 6  -1910641.66921
  22509187.8804   -9969353.35946  -7167910.75561
  24214772.8804   16658390.66445  12960349.74461
 91  4 11  0 13  0.0010000  0  5G 2G 6G15G13G19
  21441590.5134   -2844614.16448  -2113273.81664
  21316317.083   -13046471.631 7 -10124928.44523
  24101661.4744   -2561055.23246  -1908611.57561
  22501102.9974  -10011834.56946  -7201012.87361
  24223919.9424   16706450.74345  12997799.03361
 91  4 11  0 13 15.0010000  0  5G 2G 6G15G13G19
  21443483.8964   -2834668.44648  -2105523.90864
  21313738.247   -13060018.758 7 -10135484.63124
  24102182.036    -2558311.167 6  -1906473.31021
  22493039.802   -10054212.093 6  -7234034.19221
  24233074.9584   16754570.70045  13035294.97161
 91  4 11  0 13 30.0010000  0  5G 2G 6G15G13G19
  21445385.6774   -2824675.91448  -2097737.52464
  21311176.153   -13073485.300 7 -10145978.01924
  24102730.7784   -2555429.67446  -1904227.95261
  22484993.9664  -10096486.92546  -7266975.50461
  24242244.224    16802749.233 5  13072836.54921
 91  4 11  0 13 45.0010000  0  5G 2G 6G15G13G19
  21447294.7784   -2814637.13348  -2089915.10064
  21308629.856   -13086871.655 7 -10156408.92724
  24103306.9504   -2552411.32346  -1901875.95961
  22476968.1304  -10138659.51746  -7299837.13561
  24251425.3334   16850985.43645  13110423.08861
 91  4 11  0 14  0.0010000  0  5G 2G 6G15G13G19
  21449213.8024   -2804554.42648  -2082058.44964
  21306097.435   -13100179.659 7 -10166778.78124
  24103903.3334   -2549258.14546  -1899418.90661
  22468963.2084  -10180731.61146  -7332620.46461
  24260610.8104   16899277.31345  13148052.98661
 91  4 11  0 14 15.0020000  0  5G 2G 6G15G13G19
  21451141.2684   -2794427.74148  -2074167.52864
  21303577.736   -13113410.624 7 -10177088.60823
  24104531.9864   -2545970.27346  -1896856.90761
  22460975.416   -10222706.337 6  -7365327.90721
  24269813.9794   16947626.94245  13185727.90461
 91  4 11  0 14 30.0020000  0  5G 2G 6G15G13G19
  21453077.2294   -2784255.25948  -2066240.93164
  21301076.830   -13126559.183 7 -10187334.22223
  24105181.8544   -2542544.95246  -1894187.78761
  22453007.6824  -10264574.69146  -7397952.48261
  24279025.9554   16996031.14344  13223445.32261
 91  4 11  0 14 45.0020000  0  5G 2G 6G15G13G19
  21455021.8464   -2774035.16248  -2058277.21964
  21298590.729   -13139624.840 7 -10197515.24023
  24105859.1114   -2538980.83046  -1891410.52061
  22445060.5024  -10306338.05446  -7430495.23961
  24288248.236    17044494.124 4  13261208.55021
 91  4 11  0 15  0.0020000  0  5G 2G 6G15G13G19
  21456975.4634   -2763770.48348  -2050278.77564
  21296118.994   -13152610.330 7 -10207633.79023
  24106565.908    -2535280.861 6  -1888527.41021
  22437133.0804  -10347999.13246  -7462958.29561
  24297479.260    17093012.867 4  13299015.22921
 91  4 11  0 15 15.0020000  0  5G 2G 6G15G13G19
  21458937.4004   -2753458.26448  -2042243.28864
  21293663.283   -13165512.493 7 -10217687.40623
  24107295.8224   -2531441.88246  -1885535.96261
  22429224.4944  -10389554.57146  -7495339.03061
  24306724.025    17141590.074 4  13336867.46321
 91  4 11  0 15 30.0020000  0  5G 2G 6G15G13G19
  21460909.0254   -2743095.86448  -2034168.69364
  21291225.752   -13178328.106 7 -10227673.57723
  24108052.057    -2527460.979 6  -1882433.93921
  22421338.2294  -10431001.24346  -7527635.02461
  24315978.971    17190228.506 5  13374767.40421
 91  4 11  0 15 45.0020000  0  5G 2G 6G15G13G19
  21462890.9714   -2732682.02948  -2026054.02464
  21288803.502   -13191055.861 7 -10237591.29223
  24108836.4084   -2523336.89346  -1879220.33761
  22413470.9864  -10472337.73346  -7559845.15361
  24325249.9634   17238929.19544  13412715.87061
 91  4 11  0 16  0.0020000  0  5G 2G 6G15G13G19
  21464881.5494   -2722221.66248  -2017903.09264
  21286396.783   -13203700.396 7 -10247444.15923
  24109648.541    -2519074.444 6  -1875898.92721
  22405625.2914  -10513568.72846  -7591973.08061
  24334525.049    17287686.958 5  13450708.79521
 91  4 11  0 16 15.0020000  0  5G 2G 6G15G13G19
  21466880.7444   -2711716.85348  -2009717.53264
  21284006.229   -13216263.464 7 -10257233.54423
  24110485.5804   -2514675.47346  -1872471.11461
  22397798.8304  -10554695.88946  -7624020.08861
  24343815.0334   17336499.69144  13488744.55061
 91  4 11  0 16 30.0020000  0  5G 2G 6G15G13G19
  21468888.0644   -2701168.18648  -2001497.79764
  21281631.502   -13228745.190 7 -10266959.54923
  24111348.4004   -2510140.35846  -1868937.23361
  22389992.150   -10595719.280 6  -7655986.24921
  24353116.354    17385366.892 4  13526822.75521
 91  4 11  0 16 45.0020000  0  5G 2G 6G15G13G19
  21470903.3464   -2690575.67148  -1993243.89364
  21279271.682   -13241145.193 7 -10276621.87223
  24112239.4864   -2505469.05246  -1865297.22261
  22382205.6664  -10636638.64746  -7687871.35061
  24362424.854    17434288.374 4  13564943.25421
 91  4 11  0 17  0.0020000  0  5G 2G 6G15G13G19
  21472928.5724   -2679934.74348  -1984952.27064
  21276927.518   -13253458.862 7 -10286216.92323
  24113153.2914   -2500657.09146  -1861547.62561
  22374440.0414  -10677449.31246  -7719671.74861
  24371742.658    17483268.359 5  13603109.33621
 91  4 11  0 17 15.0020000  0  5G 2G 6G15G13G19
  21474961.8144   -2669250.66448  -1976627.02064
  21274601.072   -13265691.220 7 -10295748.61923
  24114092.9394   -2495709.42246  -1857692.26761
  22366693.0644  -10718156.13846  -7751391.22961
  24381073.5254   17532301.42844  13641316.78961
 91  4 11  0 17 30.0020000  0  5G 2G 6G15G13G19
  21477003.4004   -2658520.15348  -1968265.59064
  21272289.229   -13277838.632 7 -10305214.11923
  24115062.7604   -2490623.05946  -1853728.83861
  22358967.1584  -10758755.66946  -7783027.10561
  24390414.682    17581390.690 4  13679568.03021
 91  4 11  0 17 45.0020000  0  5G 2G 6G15G13G19
  21479054.4554   -2647741.47348  -1959866.62464
  21269994.713   -13289899.060 7 -10314611.84123
  24116058.518    -2485395.762 6  -1849655.59821
  22351262.1274  -10799245.50446  -7814577.50261
  24399768.400    17630538.032 4  13717864.50621
 91  4 11  0 18  0.0020000  0  5G 2G 6G15G13G19
  21481114.2754   -2636918.65448  -1951433.26564
  21267715.775   -13301876.253 7 -10323944.70723
  24117076.158    -2480031.373 6  -1845475.53521
  22343576.7684  -10839629.87146  -7846045.71561
  24409131.7914   17679739.25444  13756202.99861
 91  4 11  0 18 15.0020000  0  5G 2G 6G15G13G19
  21483182.2444   -2626049.52048  -1942963.81864
  21265452.6114  -13313767.67047 -10333210.73663
  24118126.643    -2474527.773 6  -1841186.99621
  22335912.7914  -10879906.14246  -7877429.71561
  24418507.494    17728996.391 4  13794585.04221
 91  4 11  0 18 30.0020000  0  5G 2G 6G15G13G19
  21485260.2134   -2615131.93348  -1934456.61564
  21263205.377   -13325570.867 7 -10342408.02023
  24119199.713    -2468882.552 6  -1836788.10021
  22328268.4944  -10920071.80746  -7908727.51461
  24427887.002    17778311.509 4  13833012.27521
 91  4 11  0 18 45.0020000  0  5G 2G 6G15G13G19
  21487346.6274   -2604169.24148  -1925914.26564
  21260975.924   -13337288.949 7 -10351538.97923
  24120299.0574   -2463099.17346  -1832281.53861
  22320646.455   -10960129.671 6  -7939941.31821
  24437284.260    17827681.089 4  13871481.93621
 91  4 11  0 19  0.0020000  0  5G 2G 6G15G13G19
  21489439.0024   -2593167.89048  -1917341.78964
  21258761.5494  -13348927.99847 -10360608.35963
  24121427.7054   -2457184.04046  -1827672.31761
  22313042.354   -11000086.072 6  -7971076.06621
  24446688.408    17877098.683 4  13909989.00921
 91  4 11  0 19 15.0020000  0  5G 2G 6G15G13G19
  21491541.9864   -2582121.91248  -1908734.54264
  21256561.814   -13360481.679 7 -10369611.21423
  24122577.744    -2451130.913 6  -1822955.57421
  22305459.7914  -11039934.62346  -8002126.77161
  24456103.143    17926570.325 4  13948538.21221
 91  4 11  0 19 30.0020000  0  5G 2G 6G15G13G19
  21493652.7054   -2571027.37548  -1900089.45464
  21254380.908   -13371946.020 7 -10378544.45223
  24123753.7754   -2444936.02946  -1818128.37461
  22297897.994   -11079671.229 7  -8033090.25721
  24465524.760    17976099.451 4  13987132.19121
 91  4 11  0 19 45.0020000  0  5G 2G 6G15G13G19
  21495772.7524   -2559888.50648  -1891409.82264
  21252215.893   -13383324.857 7 -10387411.06323
  24124960.2994   -2438603.56746  -1813193.94961
  22290357.447   -11119299.709 7  -8063969.48421
  24474965.2834   18025681.90344  14025767.74661
 91  4 11  0 20  0.0020000  0  5G 2G 6G15G13G19
  21497902.5494   -2548700.51648  -1882691.91764
  21250066.994   -13394613.027 7 -10396207.02823
  24126191.494    -2432128.226 6  -1808148.22221
  22282837.9084  -11158815.03047  -8094760.54461
  24484408.236    18075322.262 4  14064448.39521
 91  4 11  0 20 15.0020000  0  5G 2G 6G15G13G19
  21500040.4244   -2537461.62548  -1873934.34664
  21247937.830   -13405808.424 7 -10404930.69923
  24127451.869    -2425508.202 6  -1802989.73821
  22275339.5184  -11198215.12147  -8125461.81561
  24493868.447    18125022.227 4  14103175.50721
 91  4 11  0 20 30.0020000  0  5G 2G 6G15G13G19
  21502187.5884   -2526179.37248  -1865142.98864
  21245822.8934  -13416918.39547 -10413587.80763
  24128736.7524   -2418751.25046  -1797724.54861
  22267862.4944  -11237507.30847  -8156079.00661
  24503334.2914   18174773.96644  14141942.95061
 91  4 11  0 20 45.0020000  0  5G 2G 6G15G13G19
  21504342.5334   -2514852.42348  -1856316.80164
  21243725.604   -13427941.413 7 -10422177.15923
  24130048.955    -2411855.690 5  -1792351.37121
  22260406.908   -11276689.852 7  -8186610.76121
  24512814.252    18224578.739 4  14180751.73321
 91  4 11  0 21  0.0020000  0  5G 2G 6G15G13G19
  21506506.4554   -2503484.02448  -1847458.31564
  21241643.4864  -13438880.15947 -10430700.84763
  24131388.5104   -2404824.83745  -1786872.76061
  22252970.9864  -11315765.46447  -8217059.20061
  24522298.5804   18274433.34544  14219599.32761
 91  4 11  0 21 15.0020000  0  5G 2G 6G15G13G19
  21508676.8774   -2492071.99548  -1838565.83164
  21239578.955   -13449732.259 7 -10439157.01523
  24132755.0804   -2397656.25045  -1781286.83361
  22245554.4554  -11354731.83447  -8247422.51261
  24531797.682    18324339.984 4  14258487.47621
 91  4 11  0 21 30.0020000  0  5G 2G 6G15G13G19
  21510858.0184   -2480617.14748  -1829639.98064
  21237529.432   -13460498.239 7 -10447546.07923
  24134142.174    -2390350.766 5  -1775594.22521
  22238161.2294  -11393589.43147  -8277701.05861
  24541302.400    18374297.543 4  14297415.29821
 91  4 11  0 21 45.0020000  0  5G 2G 6G15G13G19
  21513044.9084   -2469119.07248  -1820680.44964
  21235498.080   -13471177.606 7 -10455867.65323
  24135558.986    -2382908.033 5  -1769794.68121
  22230788.1584  -11432337.66147  -8307894.39661
  24550820.721    18424306.017 4  14336382.80121
 91  4 11  0 22  0.0020000  0  5G 2G 6G15G13G19
  21515241.6584   -2457575.23548  -1811685.26064
  21233482.8304  -13481767.38247 -10464119.41863
  24137005.104    -2375325.344 5  -1763886.07921
  22223434.1194  -11470973.68247  -8338000.29661
  24560349.783    18474367.936 3  14375391.94021
 91  4 11  0 22 15.0020000  0  5G 2G 6G15G13G19
  21517447.8384   -2445990.49848  -1802658.20164
  21231483.0724  -13492272.22447 -10472304.99663
  24138470.791    -2367607.162 6  -1757871.89421
  22216102.908   -11509502.165 7  -8368022.39821
  24569880.7604   18524478.30343  14414438.84561
 91  4 11  0 22 30.0020000  0  5G 2G 6G15G13G19
  21519658.9714   -2434360.12848  -1793595.58164
  21229501.9634  -13502686.96647 -10480420.37363
  24139967.393    -2359748.962 5  -1751748.61921
  22208793.0334  -11547917.98647  -8397956.70961
  24579429.4324   18574641.84843  14453527.16361
 91  4 11  0 22 45.0020000  0  5G 2G 6G15G13G19
  21521880.8614   -2422684.34648  -1784497.57964
  21227537.1824  -13513011.64547 -10488465.56563
  24141488.150    -2351750.999 5  -1745516.41121
  22201503.2524  -11586220.70547  -8427802.89261
  24588986.1894   18624858.27043  14492656.69461
 91  4 11  0 23  0.0020000  0  5G 2G 6G15G13G19
  21524112.2214   -2410966.77748  -1775367.00964
  21225587.791   -13523249.559 7 -10496443.14723
  24143034.4944   -2343617.01346  -1739178.23761
  22194236.4794  -11624414.06447  -8457563.85561
  24598550.7684   18675123.62343  14531824.35761
 91  4 11  0 23 15.0020000  0  5G 2G 6G15G13G19
  21526350.0254   -2399203.94948  -1766201.16964
  21223657.432   -13533397.009 7 -10504350.23323
  24144611.9554   -2335343.12346  -1732731.03161
  22186990.0964  -11662494.50747  -8487236.82961
  24608123.7914   18725441.29043  14571032.78761
 91  4 11  0 23 30.0020000  0  5G 2G 6G15G13G19
  21528597.2054   -2387394.20948  -1756998.77664
  21221744.752   -13543452.014 7 -10512185.28923
  24146214.9004   -2326927.57946  -1726173.46861
  22179765.174   -11700459.997 7  -8516820.22921
  24617713.252    18775812.812 3  14610283.18621
 91  4 11  0 23 45.0020000  0  5G 2G 6G15G13G19
  21530852.7994   -2375537.64048  -1747759.89064
  21219848.814   -13553414.479 7 -10519948.23523
  24147840.861    -2318370.778 5  -1719505.81721
  22172562.6354  -11738310.49447  -8546314.02261
  24627308.3854   18826237.83843  14649575.25561
 91  4 11  0 24  0.0020000  0  4G 2G 6G15G13
  21533118.3144   -2363634.60948  -1738484.80564
  21217970.572   -13563284.297 7 -10527638.98623
  24149495.713    -2309672.651 5  -1712728.04121
  22165380.908   -11776045.783 7  -8575718.04421
 91  4 11  0 24 15.0020000  0  4G 2G 6G15G13
  21535391.4864   -2351688.94748  -1729176.49864
  21216108.900   -13573064.926 7 -10535260.24123
  24151176.9394   -2300836.92645  -1705843.05761
  22158221.135   -11813669.436 7  -8605035.07821
 91  4 11  0 24 30.0020000  0  5G 2G 6G15G13G19
  21537672.6114   -2339700.31048  -1719834.71064
  21214264.275   -13582755.956 7 -10542811.68023
  24152885.072    -2291863.306 5  -1698850.60521
  22151083.4714  -11851180.68847  -8634264.52161
  24656151.9634         -0.33353
 91  4 11  0 24 45.0020000  0  5G 2G 6G15G13G19
  21539962.3144   -2327669.69448  -1710460.20864
  21212437.893   -13592358.190 7 -10550293.92623
  24154620.822    -2282753.148 5  -1691751.77221
  22143966.2214  -11888580.34547  -8663407.01661
  24665782.0804      50624.69443
 91  4 11  0 25  0.0020000  0  5G 2G 6G15G13G19
  21542260.4244   -2315592.92148  -1701049.74164
  21210627.869   -13601867.115 7 -10557703.46523
  24156381.611    -2273501.883 5  -1684542.97521
  22136871.5104  -11925864.08647  -8692459.18361
  24675425.400      101301.936 3
 91  4 11  0 25 15.0020000  0  5G 2G 6G15G13G19
  21544567.3854   -2303473.11548  -1691605.74064
  21208835.9244  -13611285.64447 -10565042.56663
  24158164.096    -2264112.762 5  -1677226.75921
  22129798.1584  -11963034.73247  -8721423.22461
  24685079.5804     152028.12243        -0.42971
 91  4 11  0 25 30.0020000  0  5G 2G 6G15G13G19
  21546882.1664   -2291308.34148  -1682126.69764
  21207060.7834  -13620611.30247 -10572309.30163
  24159975.424    -2254583.477 5  -1669801.32821
  22122746.2364  -12000090.04347  -8750297.39461
  24694745.8934     202805.11243     39565.90761
 91  4 11  0 25 45.0020000  0  5G 2G 6G15G13G19
  21549204.4554   -2279098.52848  -1672612.55864
  21205304.275   -13629843.897 7 -10579503.52123
  24161821.635    -2244914.063 5  -1662266.71021
  22115717.252   -12037029.643 7  -8779081.40321
  24704416.1194     253632.85544     79171.78761
 91  4 11  0 26  0.0020000  0  5G 2G 6G15G13G19
  21551536.3614   -2266847.69948  -1663066.46064
  21203564.885   -13638987.024 7 -10586628.02523
  24163685.213    -2235108.337 5  -1654625.87121
  22108708.8144  -12073857.37047  -8807778.23961
  24714099.3224     304507.19644    118813.99261
 91  4 11  0 26 15.0020000  0  5G 2G 6G15G13G19
  21553876.0494   -2254550.39748  -1653484.14964
  21201843.018   -13648035.055 7 -10593678.41923
  24165578.4794   -2225161.04745  -1646874.72761
  22101723.510   -12110567.492 7  -8836383.43121
  24723791.830      355433.530 4    158496.71021
 91  4 11  0 26 30.0020000  0  5G 2G 6G15G13G19
  21556224.8464   -2242209.91148  -1643868.18764
  21200138.088   -13656991.098 7 -10600657.14323
  24167496.447    -2215075.485 5  -1639015.83121
  22094759.5334  -12147162.99446  -8864899.30961
  24733486.4794     406408.31644    198217.16961
 91  4 11  0 26 45.0020000  0  5G 2G 6G15G13G19
  21558581.3304   -2229825.29148  -1634217.83664
  21198452.432   -13665853.820 7 -10607563.14723
  24169444.338    -2204850.407 5  -1631048.22021
  22087816.9944  -12183642.65246  -8893324.92661
  24743198.9324     457432.41644    237976.05661
 91  4 11  0 27  0.0020000  0  5G 2G 6G15G13G19
  21560947.0884   -2217398.48548  -1624534.60964
  21196782.533   -13674624.977 7 -10614397.80123
  24171412.7214   -2194487.90345  -1622973.54361
  22080896.1434  -12220008.30447  -8921661.69861
  24752917.814      508503.540 4    277771.58121
 91  4 11  0 27 15.0020000  0  5G 2G 6G15G13G19
  21563319.6434   -2204926.16848  -1614815.91864
  21195131.314   -13683300.997 7 -10621158.31223
  24173411.166    -2183984.629 5  -1614789.15621
  22073998.8694  -12256256.36946  -8949906.84961
  24762646.877      559625.009 4    317606.35621
 91  4 11  0 27 30.0020000  0  5G 2G 6G15G13G19
  21565702.0964   -2192405.95148  -1605059.90964
  21193499.432   -13691878.970 7 -10627842.43423
  24175441.666    -2173338.072 5  -1606493.11621
  22067124.4324  -12292383.92846  -8978058.10361
  24772383.283      610799.078 4    357482.08521
 91  4 11  0 27 45.0020000  0  5G 2G 6G15G13G19
  21568092.2444   -2179847.08548  -1595273.78064
  21191883.916   -13700367.939 7 -10634457.19723
  24177494.572    -2162557.376 5  -1598092.56621
  22060271.4794  -12328400.03246  -9006122.50761
  24782131.010      662016.421 4    397391.57021
 91  4 11  0 28  0.0020000  0  5G 2G 6G15G13G19
  21570490.6824   -2167241.26148  -1585451.06264
  21190287.057   -13708759.393 7 -10640995.97523
  24179571.033    -2151634.390 5  -1589581.12921
  22053439.869   -12364296.060 6  -9034093.34421
  24791883.8144     713285.23444    437341.13161
 91  4 11  0 28 15.0020000  0  5G 2G 6G15G13G19
  21572898.4004   -2154590.57648  -1575593.39064
  21188708.885   -13717055.155 7 -10647460.19123
  24181676.6974   -2140571.04145  -1580960.33761
  22046632.0184  -12400073.80147  -9061972.01461
  24801650.5334     764603.16844    477328.99661
 91  4 11  0 28 30.0020000  0  5G 2G 6G15G13G19
  21575314.4394   -2141893.65348  -1565699.68964
  21187148.221   -13725253.451 7 -10653848.46423
  24183808.4944   -2129365.77845  -1572228.96261
  22039845.5184  -12435731.61947  -9089757.23661
  24811426.2604     815971.36043    517356.01761
 91  4 11  0 28 45.0020000  0  5G 2G 6G15G13G19
  21577738.3934   -2129151.85148  -1555771.01664
  21185606.736   -13733355.489 7 -10660161.72623
  24185967.2294   -2118020.18145  -1563388.22361
  22033082.1744  -12471270.91247  -9117450.10561
  24821213.0574     867388.26043    557420.99261
 91  4 11  0 29  0.0020000  0  5G 2G 6G15G13G19
  21580172.2604   -2116365.54748  -1545807.66664
  21184082.689   -13741361.389 7 -10666400.07623
  24188153.5884   -2106534.67745  -1554438.47561
  22026342.8934  -12506691.76147  -9145050.67561
  24831004.361      918853.422 3    597523.55421
 91  4 11  0 29 15.0020000  0  5G 2G 6G15G13G19
  21582613.4634   -2103537.20748  -1535811.55764
  21182578.2754  -13749273.38647 -10672565.25763
  24190361.9714   -2094911.61145  -1545381.53461
  22019624.4244  -12541996.54247  -9172560.80861
  24840810.643      970364.186 3    637661.66821
 91  4 11  0 29 30.0020000  0  5G 2G 6G15G13G19
  21585063.3304   -2090664.62248  -1525780.97664
  21181090.307   -13757089.012 7 -10678655.34023
  24192599.525    -2083148.835 5  -1536215.71321
  22012927.8774  -12577182.73747  -9199978.53761
  24850617.127     1021922.522 3    677836.85121
 91  4 11  0 29 45.0020000  0  5G 2G 6G15G13G19
  21587520.8694   -2077747.39548  -1515715.60864
  21179621.135   -13764807.598 7 -10684669.80723
  24194869.143    -2071245.904 5  -1526940.70521
  22006255.2604  -12612249.44647  -9227303.15661
  24860442.229     1073528.724 3    718049.33021
 91  4 11  0 30  0.0020000  0  5G 2G 6G15G13G19
  21589987.9714   -2064782.86848  -1505613.38164
  21178172.799   -13772426.119 7 -10690606.30323
  24197158.721    -2059200.080 5  -1517554.33521
  21999605.7054  -12647193.68647  -9254532.35261
  24870272.127     1125185.420 3    758301.16621
 91  4 11  0 30 15.0020000  0  5G 2G 6G15G13G19
  21592464.5884   -2051770.97848  -1495474.24964
  21176740.939   -13779944.317 7 -10696464.62423
  24199479.885    -2047011.154 5  -1508056.46321
  21992980.4324  -12682015.37147  -9281666.04761
  24880112.1504    1176892.48943    798592.20161
 91  4 11  0 30 30.0020000  0  5G 2G 6G15G13G19
  21594949.2914   -2038716.34448  -1485301.81064
  21175328.299   -13787366.440 7 -10702248.08323
  24201823.2294   -2034683.94445  -1498450.83861
  21986375.6354  -12716718.79147  -9308707.59761
  24889958.197     1228645.271 3    838918.92521
 91  4 11  0 30 45.0020000  0  4G 2G 6G15G13
  21597440.8144   -2025615.95048  -1475093.71464
  21173935.604   -13794689.324 7 -10707954.21423
  24204200.2444   -2022215.41145  -1488735.09761
  21979795.354   -12751300.843 7  -9335654.56021
 91  4 11  0 31  0.0020000  0  4G 2G 6G15G13
  21599942.5104   -2012474.74448  -1464853.81864
  21172560.041   -13801917.564 7 -10713586.59223
  24206592.689    -2009610.342 5  -1478912.95721
  21973236.330   -12785766.032 7  -9362510.46521
 91  4 11  0 31 15.0020000  0  4G 2G 6G15G13
  21602452.2364   -1999287.04848  -1454577.69764
  21171203.135   -13809045.110 7 -10719140.51023
  24209020.9864   -1996863.11745  -1468980.05761
  21966701.197   -12820108.232 7  -9389270.53621
 91  4 11  0 31 30.0020000  0  4G 2G 6G15G13
  21604970.6974   -1986051.43248  -1444264.23364
  21169865.854   -13816070.502 7 -10724614.83123
  24211476.783    -1983972.636 5  -1458935.50321
  21960189.5494  -12854326.13947  -9415933.75161
 91  4 11  0 31 45.0020000  0  4G 2G 6G15G13
  21607498.4554   -1972768.75348  -1433914.10164
  21168548.385   -13822994.315 7 -10730009.99723
  24213957.6584   -1970939.40345  -1448779.74461
  21953700.5104  -12888420.42747  -9442500.64461
 91  4 11  0 32  0.0020000  0  4G 2G 6G15G13
  21610034.3694   -1959439.20348  -1423527.44264
  21167250.963   -13829816.337 7 -10735325.84323
  24216461.0254   -1957763.60145  -1438512.87961
  21947237.2604  -12922390.95347  -9468971.09361
 91  4 11  0 32 15.0020000  0  4G 2G 6G15G13
  21612580.0184   -1946062.93648
  21165972.229   -13836536.583 7 -10740562.38523
  24218997.0724   -1944445.62645
  21940796.1114  -12956237.66047  -9495345.06661
 91  4 11  0 32 30.0020000  0  4G 2G 6G15G13
  21615133.8144   -1932643.84448
  21164711.8934  -13843158.67147 -10745722.44463
  24221556.8464   -1930989.27045
  21934377.846   -12989964.211 7  -9521625.41021
 91  4 11  0 32 45.0020000  0  4G 2G 6G15G13
  21617696.3544   -1919176.20448  -1392153.70564
  21163471.479   -13849676.611 7 -10750801.34223
  24224147.299    -1917388.701 5  -1407052.90721
  21927984.0724  -13023564.54547  -9547807.40561
 91  4 11  0 33  0.0020000  0  4G 2G 6G15G13
  21620267.3464   -1905664.52948  -1381625.12964
  21162249.5574  -13856094.64347 -10755802.39663
  24226761.4634   -1903648.36845  -1396346.16461
  21921613.182   -13057042.954 7  -9573894.39321
 91  4 11  0 33 15.0020000  0  4G 2G 6G15G13
  21622847.2834   -1892110.48648  -1371063.54564
  21161047.314   -13862414.028 7 -10760726.57923
  24229400.6744   -1889770.04645  -1385531.89561
  21915265.854   -13090400.912 7  -9599887.52921
 91  4 11  0 33 30.0020000  0  4G 2G 6G15G13
  21625434.6434   -1878516.24048  -1360470.63264
  21159862.8544  -13868636.81347 -10765575.49063
  24232064.6434   -1875756.06345  -1374611.90461
  21908939.643   -13123640.374 7  -9625788.32521
 91  4 11  0 33 45.0020000  0  4G 2G 6G15G13
  21628030.1114   -1864873.43148  -1349839.88264
  21158699.2214  -13874754.37447 -10770342.40963
  24234763.9394   -1861598.09945  -1363579.72261
  21902638.533   -13156752.665 7  -9651590.03421
 91  4 11  0 34  0.0020000  0  4G 2G 6G15G13
  21630634.3074   -1851183.88048  -1339172.70964
  21157555.244   -13880768.289 7 -10775028.56223
  24237483.5334   -1847297.75245  -1352436.59861
  21896362.158   -13189739.578 7  -9677294.03521
 91  4 11  0 34 15.0020000  0  4G 2G 6G15G13
  21633248.0334   -1837450.82748  -1328471.64464
  21156430.150   -13886681.703 7 -10779636.40523
  24240230.1194   -1832858.66145  -1341185.37061
  21890107.791   -13222604.215 7  -9702902.76921
 91  4 11  0 34 30.0020000  0  4G 2G 6G15G13
  21635870.5884   -1823673.64148  -1317736.18164
  21155322.947   -13892493.447 7 -10784165.02823
  24243004.5964   -1818279.84945  -1329825.25261
  21883877.385   -13255345.610 7  -9728415.46421
 91  4 11  0 34 45.0020000  0  4G 2G 6G15G13
  21638500.9554   -1809848.36948  -1306963.25064
  21154237.721   -13898199.538 7 -10788611.31423
  24245807.0884   -1803557.51245  -1318353.31561
  21877670.994   -13287959.555 7  -9753828.84221
 91  4 11  0 35  0.0020000  0  4G 2G 6G15G13
  21641142.1824   -1795969.81148  -1296148.79964
  21153173.900   -13903794.345 7 -10792970.89223
  24248636.3304   -1788686.41545  -1306765.44761
  21871490.236   -13320440.501 7  -9779138.59521
 91  4 11  0 35 15.0020000  0  4G 2G 6G15G13
  21643793.5884   -1782037.02548  -1285292.09664
  21152129.010   -13909276.589 7 -10797242.75823
  24251494.8304   -1773665.46445  -1295060.81761
  21865334.494   -13352787.411 7  -9804343.90121
 91  4 11  0 35 30.0020000  0  4G 2G 6G15G13
  21646454.7914   -1768046.33048  -1274390.26464
  21151109.439   -13914642.500 7 -10801423.97123
  24254384.3614   -1758491.35545  -1283236.85261
  21859205.697   -13384996.305 7  -9829441.66021
 91  4 11  0 35 45.0020000  0  4G 2G 6G15G13
  21649128.0104   -1754004.37348  -1263448.49264
  21150107.963   -13919898.493 7 -10805519.53823
  24257297.9324   -1743170.77645  -1271298.75561
  21853101.564   -13417073.673 7  -9854436.93521
 91  4 11  0 36  0.0020000  0  4G 2G 6G15G13
  21651809.0254   -1739913.26148  -1252468.41664
  21149129.080   -13925046.471 7 -10809530.93723
  24260238.439    -1727705.811 5  -1259248.13721
  21847021.416   -13449021.530 7  -9879331.28921
 91  4 11  0 36 15.0020000  0  4G 2G 6G15G13
  21654500.1584   -1725774.96148  -1241451.56664
  21148167.885   -13930088.024 7 -10813459.40623
  24263207.4714   -1712098.47245  -1247086.58561
  21840965.658   -13480841.610 7  -9904126.08121
 91  4 11  0 36 30.0020000  0  4G 2G 6G15G13
  21657197.760    -1711594.827 8  -1230402.12724
  21147229.5804  -13935028.28947 -10817308.95263
  24266204.3074   -1696354.12045  -1234818.26461
  21834934.486   -13512538.859 7  -9928825.15521
 91  4 11  0 36 45.0020000  0  4G 2G 6G15G13
  21659903.385    -1697378.717 8  -1219324.65324
  21146306.947   -13939872.831 7 -10821083.91423
  24269226.7054   -1680478.54945  -1222447.69961
  21828924.252   -13544118.988 7  -9953432.97021
 91  4 11  0 37  0.0020000  0  4G 2G 6G15G13
  21662614.525    -1683130.769 8  -1208222.37024
  21145402.221   -13944625.601 7 -10824787.35023
  24272273.900    -1664475.859 5  -1209978.08121
  21822936.635   -13575586.064 7  -9977952.69421
 91  4 11  0 37 15.0020000  0  4G 2G 6G15G13
  21665332.236    -1668845.573 8  -1197091.06424
  21144518.1504  -13949280.82247 -10828414.78363
  24275346.4554   -1648340.72845  -1197405.27161
  21816971.299   -13606934.435 7 -10002379.91721
 91  4 11  0 37 30.0020000  0  4G 2G 6G15G13
  21668058.689    -1654523.270 8  -1185930.84224
  21143649.5104  -13953838.52447 -10831966.22963
  24278438.5644   -1632073.43845  -1184729.45161
  21811029.354   -13638163.973 7 -10026714.54721
 91  4 11  0 37 45.0020000  0  4G 2G 6G15G13
  21670792.322    -1640159.071 8  -1174737.97224
  21142800.932   -13958293.679 7 -10835437.76823
  24281558.3694   -1615669.07845  -1171946.83261
  21805108.072   -13669269.858 7 -10050952.82421
 91  4 11  0 38  0.0020000  0  4G 2G 6G15G13
  21673533.2914   -1625753.04048  -1163512.50264
  21141973.510   -13962646.016 7 -10838829.18823
  24284711.1584   -1599127.50545  -1159057.29961
  21799213.494   -13700251.610 7 -10075094.37221
 91  4 11  0 38 15.0020000  0  4G 2G 6G15G13
  21676282.3934   -1611306.10448  -1152255.16064
  21141164.8544  -13966896.09447 -10842140.92963
  24287879.2604   -1582450.13645  -1146061.94761
  21793341.658   -13731109.923 7 -10099139.73421
 91  4 11  0 38 30.0020000  0  4G 2G 6G15G13
  21679039.1744   -1596817.89348  -1140965.65864
  21140375.8774  -13971043.60347 -10845372.74363
  24291083.8384   -1565636.66445  -1132960.53661
  21787492.439   -13761844.569 7 -10123088.73421
 91  4 11  0 38 45.0020000  0  4G 2G 6G15G13
  21681804.7214   -1582284.91648  -1129641.27064
  21139607.2294  -13975084.64547 -10848521.59663
  24294304.1974   -1548683.56345  -1119750.32361
  21781666.979   -13792451.951 7 -10146938.56921
 91  4 11  0 39  0.0020000  0  4G 2G 6G15G13
  21684577.9714   -1567708.01848  -1118282.65964
  21138858.9474  -13979019.79047 -10851587.93363
  24297561.6504   -1531591.71945  -1106431.99761
  21775868.197   -13822932.568 7 -10170689.62421
 91  4 11  0 39 15.0020000  0  4G 2G 6G15G13
  21687360.4324   -1553089.65248  -1106891.73464
  21138129.3144  -13982851.50647 -10854573.67663
  24300838.2294   -1514363.68145  -1093007.55761
  21770090.119   -13853288.827 7 -10194343.77521
 91  4 11  0 39 30.0020000  0  4G 2G 6G15G13
  21690151.3614   -1538424.51248  -1095464.36264
  21137420.3934  -13986573.96647 -10857474.29263
  24304142.2604   -1496994.17145  -1079472.87961
  21764340.064   -13883515.071 7 -10217896.62121
 91  4 11  0 39 45.0020000  0  4G 2G 6G15G13
  21692950.6434   -1523717.69248  -1084004.51264
  21136732.0024  -13990192.04547 -10860293.56063
  24307474.0414   -1479488.11345  -1065831.80361
  21758610.471   -13913616.060 7 -10241351.86521
 91  4 11  0 40  0.0020000  0  4G 2G 6G15G13
  21695757.5184   -1508966.57248  -1072510.14064
  21136063.5884  -13993703.05547 -10863029.40663
  24310830.9394   -1461843.53245  -1052082.78361
  21752906.4004  -13943589.23147 -10264707.51461
 91  4 11  0 40 15.0020000  0  4G 2G 6G15G13
  21698573.9004   -1494167.11448  -1060978.10164
  21135416.5104  -13997102.65347 -10865678.43663
  24314216.3304   -1444056.20245  -1038222.53761
  21747228.900   -13973430.311 7 -10287960.22421
 91  4 11  0 40 30.0020000  0  4G 2G 6G15G13
  21701397.7914   -1479324.00048  -1049412.04464
  21134790.5254  -14000395.29847 -10868244.12863
  24317627.6194   -1426130.87945  -1024254.75261
  21741574.3854  -14003143.77247 -10311113.50361
 91  4 11  0 40 45.0020000  0  4G 2G 6G15G13
  21704230.5964   -1464437.23548  -1037811.97064
  21134185.1044  -14003580.83047 -10870726.35463
  24321065.0804   -1408067.48545  -1010179.39061
  21735943.9634  -14032729.49747 -10334167.24061
 91  4 11  0 41  0.0020000  0  4G 2G 6G15G13
  21707073.0724   -1449505.90048  -1026177.16664
  21133597.6114  -14006657.75547 -10873123.95263
  24324527.4554   -1389865.21345   -995995.81161
  21730338.564   -14062186.405 7 -10357120.59921
 91  4 11  0 41 15.0020000  0  4G 2G 6G15G13
  21709921.2134   -1434533.13048  -1014510.07964
  21133032.9714  -14009629.34947 -10875439.47663
  24328017.4004   -1371527.47045   -981706.66061
  21724758.205   -14091517.417 7 -10379975.86221
 91  4 11  0 41 30.0020000  0  4G 2G 6G15G13
  21712777.8464   -1419515.45548  -1002808.00064
  21132489.0024  -14012491.55047 -10877669.76063
  24331536.7054   -1353050.51245   -967309.03261
  21719200.854   -14120718.677 7 -10402730.01821
 91  4 11  0 41 45.0020000  0  4G 2G 6G15G13
  21715645.6824   -1404452.12748   -991070.34664
  21131964.2214  -14015243.60847 -10879814.21663
  24335077.5574   -1334433.79245   -952802.50061
  21713668.721   -14149789.475 7 -10425382.51521
 91  4 11  0 42  0.0020000  0  4G 2G 6G15G13
  21718519.3934   -1389344.99848   -979298.55964
  21131461.9394  -14017887.22247 -10881874.17463
  24338644.8304   -1315679.18845   -938188.53161
  21708161.072   -14178731.623 7 -10447934.76721
 91  4 11  0 42 15.0020000  0  4G 2G 6G15G13
  21721403.1824   -1374195.18648   -967493.51564
  21130978.6274  -14020423.00347 -10883850.10463
  24342242.1044   -1296788.03245   -923468.15361
  21702677.369   -14207545.750 7 -10470387.26221
 91  4 11  0 42 30.0020000  0  4G 2G 6G15G13
  21724294.2994   -1358999.36748   -955652.62064
  21130517.7994  -14022847.58147 -10885739.38063
  24345860.8144   -1277756.94045   -908638.73661
  21697219.932   -14236228.502 7 -10492737.38121
 91  4 11  0 42 45.0020000  0  4G 2G 6G15G13
  21727195.0414   -1343758.76948   -943776.83164
  21130076.2604  -14025162.13047 -10887542.92163
  24349512.7754   -1258587.50845   -893701.52061
  21691785.510   -14264781.082 7 -10514986.07621
 91  4 11  0 43  0.0020000  0  4G 2G 6G15G13
  21730102.0104   -1328478.79448   -931870.36264
  21129657.4084  -14027371.67547 -10889264.63963
  24353183.9164   -1239285.04845   -878660.65261
  21686376.713   -14293208.749 7 -10537137.43121
 91  4 11  0 43 15.0020000  0  4G 2G 6G15G13
  21733017.9324   -1313158.30448   -919932.31864
  21129256.9864  -14029474.77547 -10890903.41663
  24356882.682    -1219848.386 5   -863515.22221
  21680990.041   -14321510.035 7 -10559190.31022
 91  4 11  0 43 30.0020000  0  4G 2G 6G15G13
  21735941.9794   -1297794.22948   -907960.31764
  21128876.7134  -14031468.05347 -10892456.61763
  24360608.8774   -1200274.74345   -848263.03961
  21675629.7294  -14349681.63747 -10581142.13861
 91  4 11  0 43 45.0020000  0  4G 2G 6G15G13
  21738874.4084   -1282382.60348   -895951.26064
  21128519.6274  -14033347.50747 -10893921.12563
  24364360.275    -1180560.225 5   -832901.08821
  21670294.939   -14377719.695 7 -10602989.89821
 91  4 11  0 44  0.0020000  0  4G 2G 6G15G13
  21741816.1434   -1266925.41748   -883906.70364
  21128182.7524  -14035114.90547 -10895298.31263
  24368136.0184   -1160706.81445   -817430.89261
  21664983.8464  -14405625.93747 -10624734.95262
 91  4 11  0 44 15.0020000  0  4G 2G 6G15G13
  21744765.7754   -1251422.52048   -871826.52564
  21127868.3934  -14036769.86847 -10896587.89263
  24371939.9164   -1140714.56045   -801852.52461
  21659698.807   -14433400.041 7 -10646377.04022
 91  4 11  0 44 30.0020000  0  4G 2G 6G15G13
  21747724.6504   -1235873.99048   -859710.78764
  21127575.3614  -14038312.15247 -10897789.66963
  24375770.8074   -1120583.51445   -786165.99061
  21654438.885   -14461041.629 7 -10667915.86521
 91  4 11  0 44 45.0020000  0  4G 2G 6G15G13
  21750691.6504   -1220278.73948   -847558.64564
  21127303.8694  -14039740.52247 -10898902.68463
  24379628.0884   -1100312.56246   -770370.44461
  21649204.2214  -14488549.62547 -10689350.60061
 91  4 11  0 45  0.0020000  0  4G 2G 6G15G13
  21753667.2294   -1204643.25448   -835375.15264
  21127051.6894  -14041061.23747 -10899931.81063
  24383511.3224   -1079908.41346   -754471.11561
  21643993.5574  -14515930.54947 -10710686.31462
 91  4 11  0 45 15.0020000  0  4G 2G 6G15G13
  21756649.9394   -1188964.27048   -823157.76164
  21126822.6044  -14042270.97947 -10900874.46063
  24387421.4794   -1059368.08846   -738465.66461
  21638808.2214  -14543181.01747 -10731920.37362
 91  4 11  0 45 30.0020000  0  4G 2G 6G15G13
  21759642.1824   -1173245.21348   -810909.14964
  21126611.6744  -14043372.67447 -10901732.91963
  24391355.9474   -1038695.13646   -722356.87761
  21633646.1824  -14570304.14847 -10753055.21262
 91  4 11  0 45 45.0020000  0  4G 2G 6G15G13
  21762642.3144   -1157482.09148   -798626.19664
  21126423.1504  -14044362.40447 -10902504.13263
  24395314.1664   -1017885.67046   -706141.70761
  21628509.7134  -14597295.85847 -10774087.64562
 91  4 11  0 46  0.0020000  0  4G 2G 6G15G13
  21765649.9324   -1141676.33948   -786310.03064
  21126255.1434  -14045241.07747 -10903188.80863
  24399300.3854    -996940.93646   -689821.13561
  21623398.1354  -14624157.37947 -10795018.63162
 91  4 11  0 46 15.0020000  0  4G 2G 6G15G13
  21768665.2444   -1125829.36348   -773961.74364
  21126109.1584  -14046009.85247 -10903787.84863
  24403313.3144    -975862.10646   -673396.07461
  21618311.3544  -14650890.03647 -10815849.20862
 91  4 11  0 46 30.0020000  0  4G 2G 6G15G13
  21771689.1584   -1109940.03548   -761580.45464
  21125984.4554  -14046667.46247 -10904300.26563
  24407345.3544    -954648.35646   -656865.88461
  21613247.8304  -14677492.50647 -10836578.33662
 91  4 11  0 46 45.0020000  0  4G 2G 6G15G13
  21774719.9394   -1094006.34948   -749164.59964
  21125880.2754  -14047211.72847 -10904724.36863
  24411413.4554    -933298.00746   -640229.25261
  21608211.2294  -14703962.66147 -10857204.36362
 91  4 11  0 47  0.0020000  0  4G 2G 6G15G13
  21777761.6974   -1078033.37148   -736718.12664
  21125797.6354  -14047647.70747 -10905064.08463
  24415498.127     -911816.220 6   -623490.19121
  21603197.9554  -14730305.55547 -10877731.23062
 91  4 11  0 47 15.0020000  0  4G 2G 6G15G13
  21780807.6354   -1062018.33948   -724238.88664
  21125735.8694  -14047972.34047 -10905317.04063
  24419611.8074    -890200.56146   -606646.81861
  21598210.7524  -14756518.18047 -10898156.57962
 91  4 11  0 47 30.0020000  0  4G 2G 6G15G13
  21783863.6744   -1045959.20348   -711725.27864
  21125695.1894  -14048183.37247 -10905481.47563
  24423753.6894    -868449.18646   -589697.69461
  21593247.3854  -14782598.35547 -10918478.73062
 91  4 11  0 47 45.0020000  0  4G 2G 6G15G13
  21786928.3224   -1029856.03248   -699177.36064
  21125680.2134  -14048280.48647
  24427916.2214    -846561.86346   -572642.64361
  21588309.7914  -14808545.85647 -10938697.49462
 91  4 11  0 48  0.0020000  0  4G 2G 6G15G13
  21790002.0414   -1013706.77748   -686593.53564
  21125682.9004  -14048261.51247
  24432106.7444    -824536.88146   -555480.31261
  21583397.8384  -14834358.61347 -10958811.26262
 91  4 11  0 48 15.0020000  0  4G 2G 6G15G13
  21793081.2524    -997519.38248   -673979.98064
  21125705.6194  -14048134.24247
  24436323.0414    -802382.17446   -538216.90061
  21578510.2754  -14860044.24147 -10978825.97262
 91  4 11  0 48 30.0020000  0  4G 2G 6G15G13
  21796170.8774    -981288.07448   -661332.21363
  21125752.3304  -14047892.56447
  24440564.5414    -780092.24246   -520848.11861
  21573646.8614  -14885596.97447 -10998737.12862
 91  4 11  0 48 45.0020000  0  4G 2G 6G15G13
  21799268.1354    -965010.85448   -648648.66864
  21125821.1744  -14047534.36747 -10904975.73163
  24444832.8304    -757665.06546   -503372.39961
  21568810.6354  -14911014.77647 -11018543.14462
 91  4 11  0 49  0.0020000  0  4G 2G 6G15G13
  21802373.6824    -948689.88748   -635931.03863
  21125909.1274  -14047061.61947 -10904607.35263
  24449124.6274    -735103.05246   -485791.61061
  21563998.4474  -14936300.00447 -11038245.85461
 91  4 11  0 49 15.0020000  0  4G 2G 6G15G13
  21805487.8384    -932327.17348   -623180.87264
  21126020.2994  -14046476.22547 -10904151.19663
  24453443.3074    -712408.31545   -468107.39661
  21559212.4164  -14961454.31847 -11057846.55162
 91  4 11  0 49 30.0020000  0  4G 2G 6G15G13
  21808610.2524    -915919.43048   -610395.62264
  21126154.9244  -14045774.43747 -10903604.34163
  24457789.0104    -689577.53545   -450317.16661
  21554450.3144  -14986474.15147 -11077342.46262
 91  4 11  0 49 45.0020000  0  4G 2G 6G15G13
  21811740.5414    -899467.14548   -597575.67064
  21126310.5414  -14044956.90747 -10902967.29963
  24462161.1664    -666611.53045   -432421.58561
  21549714.5254  -15011360.00947 -11096733.97562
 91  4 11  0 50  0.0020000  0  4G 2G 6G15G13
  21814879.8614    -882968.22148   -584719.37464
  21126489.1434  -14044021.08347 -10902238.07763
  24466556.971     -643508.410 5   -414419.13621
  21545005.2364  -15036109.55047 -11116019.26762
 91  4 11  0 50 15.0020000  0  4G 2G 6G15G13
  21818027.6434    -866427.68148   -571830.65264
  21126688.096   -14042971.818 7 -10901420.45823
  24470975.666     -620273.217 5   -396313.78521
  21540320.4794  -15060727.66247 -11135202.15262
 91  4 11  0 50 30.0020000  0  4G 2G 6G15G13
  21821182.322     -849844.743 8   -558908.89424
  21126909.6194  -14041808.05947 -10900513.62263
  24475425.3854    -596905.37645   -378105.07561
  21535660.5494  -15085213.58547 -11154282.02662
 91  4 11  0 50 45.0020000  0  4G 2G 6G15G13
  21824348.760     -833214.228 8   -545950.06124
  21127154.4004  -14040524.63647 -10899513.54863
  24479896.7444    -573399.77145   -359789.02061
  21531027.3544  -15109562.00847 -11173254.76062
 91  4 11  0 51  0.0020000  0  4G 2G 6G15G13
  21827520.0024    -816541.55148   -532958.37964
  21127419.1664  -14039126.71647 -10898424.25363
  24484396.658     -549761.863 5   -341369.85621
  21526419.7294  -15133778.17947 -11192124.44362
 91  4 11  0 51 15.0020000  0  4G 2G 6G15G13
  21830702.6824    -799824.18748   -519931.86964
  21127706.8304  -14037611.62247 -10897243.65563
  24488917.916     -525989.338 5   -322845.81121
  21521836.8694  -15157859.56847 -11210889.09962
 91  4 11  0 51 30.0020000  0  4G 2G 6G15G13
  21833890.9554    -783066.05548   -506873.59364
  21128017.9324  -14035983.00747 -10895974.59863
  24493468.3464    -502086.32545   -304220.08861
  21517278.7684  -15181810.02347 -11229551.72762
 91  4 11  0 51 45.0020000  0  4G 2G 6G15G13
  21837088.2994    -766264.77148   -493781.69463
  21128348.0104  -14034238.22847 -10894615.03163
  24498042.6504    -478050.54945   -285490.92661
  21512746.7604  -15205626.99147 -11248110.34562
 91  4 11  0 52  0.0020000  0  4G 2G 6G15G13
  21840294.1354    -749416.40348   -480653.09963
  21128705.1194  -14032373.22347 -10893161.77163
  24502640.9634    -453877.96845   -266655.13561
  21508240.3144  -15229306.48547 -11266561.83662
 91  4 11  0 52 15.0020000  0  4G 2G 6G15G13
  21843509.4084    -732525.88448   -467491.66264
  21129081.3144  -14030392.75747 -10891618.54963
  24507266.6044    -429573.76445   -247716.80261
  21503759.9554  -15252853.23647 -11284909.88862
 91  4 11  0 52 30.0020000  0  4G 2G 6G15G13
  21846730.4474    -715594.94348   -454298.73763
  21129479.7054  -14028298.36847 -10889986.55363
  24511916.4004    -405140.01545   -228677.50761
  21499303.9944  -15276268.86747 -11303155.77662
 91  4 11  0 52 45.0020000  0  4G 2G 6G15G13
  21849960.182     -698620.317 8   -441071.76523
  21129902.5494  -14026086.63347 -10888263.11263
  24516591.1434    -380573.67045   -209534.90961
  21494872.9164  -15299549.82847 -11321296.71962
 91  4 11  0 53  0.0020000  0  4G 2G 6G15G13
  21853199.322     -681604.907 8   -427813.01723
  21130344.002   -14023760.180 7 -10886450.28223
  24521291.2134    -355877.71045   -190291.29361
  21490468.4324  -15322699.13347 -11339335.07762
 91  4 11  0 53 15.0020000  0  4G 2G 6G15G13
  21856444.432     -664547.200 8   -414521.31023
  21130808.7444  -14021317.35547 -10884546.77563
  24526015.2054    -331050.75545   -170945.61861
  21486088.9394  -15345715.49747 -11357269.84462
 91  4 11  0 53 30.0020000  0  4G 2G 6G15G13
  21859698.8224    -647448.99448   -401198.04163
  21131295.9794  -14018759.81147 -10882553.87463
  24530763.2524    -306094.64245   -151499.29761
  21481733.3774  -15368600.27147 -11375102.06962
 91  4 11  0 53 45.0020000  0  4G 2G 6G15G13
  21862960.4474    -630308.12748   -387841.53263
  21131804.5104  -14016085.13547 -10880469.70363
  24535536.3774    -281007.59645   -131950.93861
  21477403.6744  -15391351.00647 -11392829.85462
 91  4 11  0 54  0.0020000  0  4G 2G 6G15G13
  21866229.1664    -613127.53948   -374454.07163
  21132335.1354  -14013296.33147 -10878296.60463
  24540335.6114    -255792.75245   -112303.02661
  21473099.8614  -15413970.94347 -11410455.71962
 91  4 11  0 54 15.0020000  0  4G 2G 6G15G13
  21869507.0804    -595904.98348   -361033.90964
  21132887.5964  -14010390.62147 -10876032.40763
  24545159.9554    -230447.58245    -92553.53361
  21468821.2134  -15436457.46547 -11427977.62062
 91  4 11  0 54 30.0020000  0  4G 2G 6G15G13
  21872792.2054    -578639.73048   -347580.47664
  21133463.2524  -14007367.11847 -10873676.42863
  24550006.5804    -204971.76945    -72702.25661
  21464567.5334  -15458809.86747 -11445395.01662
 91  4 11  0 54 45.0020000  0  4G 2G 6G15G13
  21876085.9084    -561331.83948   -334093.81964
  21134060.8304  -14004226.14547 -10871228.91363
  24554878.7364    -179365.69645    -52749.47861
  21460339.0104  -15481028.28247 -11462708.00862
 91  4 11  0 55  0.0020000  0  4G 2G 6G15G13
  21879387.0644    -543982.73248   -320575.04264
  21134680.9944  -14000968.62747 -10868690.58063
  24559776.8384    -153630.85645    -32696.36061
  21456136.7604  -15503114.01347 -11479917.60862
 91  4 11  0 55 15.0020000  0  4G 2G 6G15G13
  21882696.5574    -526590.20248   -307022.43263
  21135323.4944  -13997592.17247 -10866059.57563
  24564698.8224    -127765.17245    -12541.27961
  21451959.4084  -15525064.62647 -11497021.92462
 91  4 11  0 55 30.0020000  0  4G 2G 6G15G13
  21886015.564     -509150.035 8   -293432.70624
  21135988.9474  -13994092.31247 -10863332.40763
  24569646.213     -101764.492 5      7718.98021
  21447808.4394  -15546875.87247 -11514017.63762
 91  4 11  0 55 45.0020000  0  4G 2G 6G15G13
  21889342.416     -491667.679 8   -279810.10523
  21136677.9394  -13990474.40947 -10860513.25463
  24574618.3224     -75634.71745     28079.83661
  21443683.5804  -15568552.93347 -11530908.79462
 91  4 11  0 56  0.0020000  0  4G 2G 6G15G13
  21892677.268     -474144.031 8   -266155.32724
  21137388.439   -13986739.024 7 -10857602.54823
  24579614.3934     -49376.66945     48540.64661
  21439583.6194  -15590096.65147 -11547696.04262
 91  4 11  0 56 15.0020000  0  4G 2G 6G15G13
  21896020.9004    -456571.39548   -252462.37863
  21138123.6664  -13982878.60347 -10854594.43063
  24584637.8464     -22982.91345     69107.22761
  21435510.8854  -15611499.56947 -11564373.58662
 91  4 11  0 56 30.0020000  0  4G 2G 6G15G13
  21899374.174     -438952.880 8   -238733.67924
  21138881.2524  -13978895.89847 -10851491.02063
  24589687.4714       3543.52645     89777.17461
  21431464.4164  -15632764.59647 -11580943.67562
 91  4 11  0 56 45.0020000  0  4G 2G 6G15G13
  21902734.846     -421291.276 8   -224971.40923
  21139661.0574  -13974793.55247 -10848294.38163
  24594757.760       30199.444 5    110548.00321
  21427443.7054  -15653894.48647 -11597408.46862
 91  4 11  0 57  0.0020000  0  4G 2G 6G15G13
  21906104.150     -403584.531 8   -211173.96223
  21140465.260   -13970569.397 7 -10845002.82323
  24599854.6894      56986.63445    131421.13461
  21423449.0574  -15674887.02447 -11613766.22862
 91  4 11  0 57 15.0020000  0  4G 2G 6G15G13
  21909482.236     -385833.108 8   -197341.70123
  21141292.4164  -13966223.77147 -10841616.61463
  24604978.8694      83904.42345    152396.03561
  21419479.4084  -15695742.47547 -11630017.17562
 91  4 11  0 57 30.0020000  0  4G 2G 6G15G13
  21912869.150     -368036.179 8   -183473.97923
  21142142.3854  -13961755.51247 -10838134.84763
  24610124.8934     110953.67945    173473.36561
  21415537.1504  -15716460.19147 -11646160.79262
 91  4 11  0 57 45.0020000  0  4G 2G 6G15G13
  21916263.768     -350194.568 8   -169571.43723
  21143016.0104  -13957165.40247 -10834558.12963
  24615296.9084     138133.15245    194652.18161
  21411621.2834  -15737040.83447 -11662197.59662
 91  4 11  0 58  0.0020000  0  4G 2G 6G15G13
  21919667.783     -332307.307 8   -155633.32723
  21143913.0254  -13952452.37547 -10830885.63363
  24620493.564      165443.619 5    215933.03921
  21407731.4084  -15757483.55747 -11678126.93262
 91  4 11  0 58 15.0020000  0  4G 2G 6G15G13
  21923080.158     -314373.389 8   -141658.85824
  21144833.7684  -13947615.26747 -10827116.45363
  24625718.1044     192886.17845    237316.84861
  21403866.822   -15777787.102 7 -11693947.82222
 91  4 11  0 58 30.0020000  0  4G 2G 6G15G13
  21926502.322     -296392.476 8   -127647.77423
  21145777.6044  -13942653.37947 -10823250.04063
  24630962.7294     220460.96145    258803.68761
  21400030.4084  -15797950.78747 -11709659.72162
 91  4 11  0 58 45.0020000  0  4G 2G 6G15G13
  21929933.432     -278364.249 8   -113599.82123
  21146745.8544  -13937566.19847 -10819285.99663
  24636235.2914     248168.09345    280393.65561
  21396219.7294  -15817974.58147 -11725262.62462
 91  4 11  0 59  0.0020000  0  4G 2G 6G15G13
  21933372.244     -260290.963 8    -99516.75224
  21147737.5964  -13932356.00447 -10815226.09863
  24641534.0024     276004.84745    302084.62661
  21392435.8934  -15837860.70747 -11740758.25162
 91  4 11  0 59 15.0020000  0  4G 2G 6G15G13
  21936821.361     -242167.126 8    -85394.29924
  21148753.2364  -13927017.29047 -10811066.05763
  24646855.7994     303976.61745    323880.79961
  21388678.4714  -15857603.67047 -11756142.32262
 91  4 11  0 59 30.0020000  0  4G 2G 6G15G13
  21940278.674     -223997.247 8    -71235.96424
  21149792.9324  -13921554.19347 -10806809.08963
  24652204.096      332078.870 5    345778.64521
  21384947.7994  -15877207.77047 -11771418.18662
 91  4 11  0 59 45.0020000  0  4G 2G 6G15G13
  21943745.236     -205780.679 8    -57041.24924
  21150856.3384  -13915966.02847 -10802454.67063
  24657577.0184     360311.86045    367778.36861
  21381243.939   -15896672.285 7 -11786585.28722
 91  4 11  1  0  0.0020000  0  4G 2G 6G15G13
  21947220.080     -187520.786 8    -42812.77523
  21151942.2994  -13910256.00247 -10798005.29163
  24662974.119      388671.959 5    389877.13521
  21377566.3304  -15916000.66747 -11801646.30962
 91  4 11  1  0 15.0020000  0  4G 2G 6G15G13
  21950703.611     -169216.361 8    -28549.60324
  21153052.2444  -13904422.76247 -10793459.90263
  24668396.0104     417160.46845    412075.96361
  21373913.721   -15935191.560 7 -11816600.19322
 91  4 11  1  0 30.0020000  0  4G 2G 6G15G13
  21954195.400     -150863.319 8    -14248.54623
  21154187.4714  -13898461.84547 -10788815.02863
  24673842.7294     445781.03145    434377.69061
  21370288.9794  -15954240.70247 -11831443.62562
 91  4 11  1  0 45.0020000  0  4G 2G 6G15G13
  21957697.361     -132459.739 8        91.89124
  21155345.1744  -13892371.46747 -10784069.26963
  24679312.7214     474535.19645    456783.51661
  21366691.229   -15973146.363 7 -11846175.25222
 91  4 11  1  1  0.0020000  0  4G 2G 6G15G13
  21961208.158     -114012.994 8     14465.96223
  21156528.2214  -13886158.80747 -10779228.23263
  24684808.8774     503415.83545    479287.90861
  21363119.9004  -15991915.88347 -11860800.79962
 91  4 11  1  1 15.0020000  0  4G 2G 6G15G13
  21964726.9324     -95521.26548     28875.08963
  21157734.4554  -13879821.86847 -10774290.35563
  24690327.275      532424.337 5    501891.91921
  21359573.7444  -16010547.46247 -11875318.85562
 91  4 11  1  1 30.0020000  0  4G 2G 6G15G13
  21968254.3144     -76985.75448     43318.33363
  21158963.5964  -13873361.67847 -10769256.43263
  24695872.9164     561559.27445    524594.45861
  21356054.150   -16029042.130 7 -11889730.23422
 91  4 11  1  1 45.0020000  0  4G 2G 6G15G13
  21971790.1974     -58404.85448     57796.94664
  21160216.8304  -13866776.47247 -10764125.10063
  24701442.2834     590821.99945    547396.57261
  21352561.1354  -16047398.11847 -11904033.53762
 91  4 11  1  2  0.0020000  0  4G 2G 6G15G13
  21975334.0494     -39779.65348     72310.08263
  21161492.5494  -13860067.11447 -10758897.01963
  24707034.2834     620211.49945    570297.47761
  21349094.299   -16065616.737 7 -11918229.81422
 91  4 11  1  2 15.0020000  0  4G 2G 6G15G13
  21978887.1974     -21106.54348     86860.54963
  21162794.9944  -13853230.11347 -10753569.48363
  24712650.0254     649731.12145    593299.76561
  21345654.814   -16083694.188 7 -11932316.08822
 91  4 11  1  2 30.0020000  0  4G 2G 6G15G13
  21982450.7294      -2386.51248    101447.58063
  21164119.2684  -13846266.07247 -10748142.95063
  24718292.6434     679379.42345    616402.33161
  21342240.986   -16101631.216 7 -11946292.93922
 91  4 11  1  2 45.0020000  0  4G 2G 6G15G13
  21986021.6894      16382.03648    116072.41763
  21165469.0574  -13839173.22447 -10742616.05063
  24723960.1274     709158.08245    639606.47461
  21338854.721   -16119426.463 7 -11960159.30922
 91  4 11  1  3  0.0020000  0  4G 2G 6G15G13
  21989600.7754      35193.17348    130730.44064
  21166842.1044  -13831957.45447 -10736993.36363
  24729651.518      739060.971 5    662907.40621
  21335494.205   -16137085.797 7 -11973919.77822
 91  4 11  1  3 15.0020000  0  4G 2G 6G15G13
  21993189.4944      54051.07648    145424.90363
  21168240.4164  -13824614.49947 -10731271.57463
  24735365.5104     769091.74445    686308.01161
  21332160.5884  -16154605.05147 -11987571.09062
 91  4 11  1  3 30.0020000  0  4G 2G 6G15G13
  21996787.6974      72955.21148    160155.39064
  21169660.6504  -13817144.78747 -10725451.01563
  24741103.775      799249.620 5    709807.63821
  21328852.697   -16171984.871 7 -12001113.75622
 91  4 11  1  3 45.0020000  0  4G 2G 6G15G13
  22000392.2684      91903.24348    174920.08363
  21171106.6434  -13809550.41247 -10719533.31463
  24746866.7994     829532.26245    733404.49761
  21325572.393   -16189227.377 7 -12014549.42022
 91  4 11  1  4  0.0020000  0  4G 2G 6G15G13
  22004008.3774     110899.04548    189721.99863
  21172575.8464  -13801827.50547 -10713515.46363
  24752654.7914     859943.21345    757101.33161
  21322318.182   -16206328.799 7 -12027875.15622
 91  4 11  1  4 15.0020000  0  4G 2G 6G15G13
  22007632.1274     129942.81548    204561.29463
  21174070.2444  -13793975.68547 -10707397.15563
  24758465.5574     890482.53945    780898.20661
  21319090.6114  -16223288.85547 -12041090.72862
 91  4 11  1  4 30.0020000  0  4G 2G 6G15G13
  22011263.5884     149030.47648    219434.78563
  21175588.2214  -13785998.85547 -10701181.44163
  24764300.424      921145.725 5    804791.57821
  21315889.252   -16240111.339 7 -12054199.10622
 91  4 11  1  4 45.0020000  0  4G 2G 6G15G13
  22014903.7834     168159.38948    234340.42663
  21177129.8144  -13777899.61447 -10694870.34563
  24770158.8854     951929.97445    828779.30161
  21312712.893   -16256799.108 7 -12067202.50622
 91  4 11  1  5  0.0020000  0  4G 2G 6G15G13
  22018552.0494     187332.14848    249280.23063
  21178694.6504  -13769675.22447 -10688461.72463
  24776040.6194     982837.60745    852863.15961
  21309563.635   -16273349.760 7 -12080099.06622
 91  4 11  1  5 15.0020000  0  4G 2G 6G15G13
  22022208.9164     206546.60548    264252.53463
  21180282.8304  -13761327.83047 -10681957.26063
  24781945.1194    1013866.24545    877041.30861
  21306440.494   -16289765.343 7 -12092890.37922
 91  4 11  1  5 30.0020000  0  3G 2G 6G13
  22025873.1824     225804.99448    279259.06763
  21181894.9554  -13752854.82247 -10675354.91363
  21303343.0334  -16306043.43947 -12105574.55562
 91  4 11  1  5 45.0020000  0  3G 2G 6G13
  22029546.3774     245106.23548    294298.99563
  21183531.4714  -13744257.31947 -10668655.56163
  21300270.814   -16322185.186 7 -12118152.48822
 91  4 11  1  6  0.0020000  0  3G 2G 6G13
  22033227.5884     264453.22448    309374.57263
  21185192.6194  -13735532.12247 -10661856.70763
  21297225.260   -16338187.774 7 -12130621.98822
 91  4 11  1  6 15.0020000  0  3G 2G 6G13
  22036918.2834     283848.03848    324487.41663
  21186877.4554  -13726677.20147 -10654956.77063
  21294207.236   -16354049.002 7 -12142981.33222
 91  4 11  1  6 30.0020000  0  3G 2G 6G13
  22040618.9084     303291.02148    339637.79263
  21188585.6824  -13717691.99847 -10647955.31163
  21291214.752   -16369768.561 7 -12155230.28822
 91  4 11  1  6 45.0020000  0  3G 2G 6G13
  22044326.6274     322776.84248    354821.54963
  21190318.9164  -13708581.85247 -10640856.50063
  21288249.916   -16385351.748 7 -12167372.98322
 91  4 11  1  7  0.0020000  0  3G 2G 6G13
  22048042.7444     342307.64448    370040.35763
  21192077.9714  -13699344.43647 -10633658.51563
  21285310.986   -16400796.500 7 -12179407.80222
 91  4 11  1  7 15.0020000  0  3G 2G 6G13
  22051768.5494     361881.88348    385293.00963
  21193859.5104  -13689981.17247 -10626362.46963
  21282397.260   -16416104.256 7 -12191335.87222
 91  4 11  1  7 30.0020000  0  3G 2G 6G13
  22055502.8144     381505.86748    400584.42363
  21195665.8544  -13680485.74347 -10618963.43763
  21279512.385   -16431268.894 7 -12203152.42022
 91  4 11  1  7 45.0020000  0  3G 2G 6G13
  22059244.7294     401172.94948    415909.41263
  21197497.3854  -13670864.40447 -10611466.29463
  21276652.650   -16446296.615 7 -12214862.28522
 91  4 11  1  8  0.0020000  0  3G 2G 6G13
  22062996.3144     420885.80048    431270.07563
  21199352.3934  -13661114.68947 -10603869.11763
  21273819.158   -16461185.175 7 -12226463.71022
 91  4 11  1  8 15.0020000  0  3G 2G 6G13
  22066756.8144     440644.95548    446666.81663
  21201232.2444  -13651235.81147 -10596171.29263
  21271012.619   -16475933.944 7 -12237956.20522
 91  4 11  1  8 30.0020000  0  3G 2G 6G13
  22070524.2294     460449.43248    462098.87563
  21203137.9864  -13641228.54347 -10588373.42363
  21268232.494   -16490543.962 7 -12249340.58622
 91  4 11  1  8 45.0020000  0  3G 2G 6G13
  22074302.7684     480300.73448    477567.41863
  21205064.9864  -13631091.53647 -10580474.46363
  21265478.924   -16505013.662 7 -12260615.62322
 91  4 11  1  9  0.0020000  0  3G 2G 6G13
  22078089.5494     500199.89148    493073.25063
  21207019.6434  -13620823.51047 -10572473.40763
  21262751.932   -16519342.238 7 -12271780.70122
 91  4 11  1  9 15.0020000  0  3G 2G 6G13
  22081883.6044     520142.75848    508613.14163
  21208998.8544  -13610428.50947 -10564373.41063
  21260050.791   -16533533.652 7 -12282838.89622
 91  4 11  1  9 30.0020000  0  3G 2G 6G13
  22085687.3544     540130.92548    524188.33463
  21211002.0184  -13599904.70747 -10556173.04863
  21257376.838   -16547586.408 7 -12293789.04322
 91  4 11  1  9 45.0020000  0  3G 2G 6G13
  22089499.6744     560165.82448    539799.94163
  21213028.4714  -13589250.71447 -10547871.23763
  21254729.900   -16561499.019 7 -12304629.98922
 91  4 11  1 10  0.0020000  0  3G 2G 6G13
  22093320.0254     580243.02448    555444.51263
  21215080.1044  -13578470.82747 -10539471.33663
  21252107.963   -16575276.047 7 -12315365.28722
 91  4 11  1 10 15.0020000  0  3G 2G 6G13
  22097149.2054     600362.37848    571121.92363
  21217155.5804  -13567565.10347 -10530973.37363
  21249511.955   -16588917.403 7 -12325994.86522
 91  4 11  1 10 30.0020000  0  3G 2G 6G13
  22100987.1274     620532.29848    586838.73563
  21219256.7604  -13556525.19547 -10522370.85363
  21246943.643   -16602414.974 7 -12336512.40022
 91  4 11  1 10 45.0020000  0  3G 2G 6G13
  22104834.7444     640748.97648    602591.98363
  21221381.3304  -13545354.75747 -10513666.62663
  21244401.447   -16615772.384 7 -12346920.72122
 91  4 11  1 11  0.0020000  0  3G 2G 6G13
  22108691.408      661014.933 8    618383.62623
  21223532.2294  -13534051.09247 -10504858.58763
  21241887.330   -16628987.529 7 -12357218.18622
 91  4 11  1 11 15.0020000  0  3G 2G 6G13
  22112556.5184     681325.16548    634209.77063
  21225706.1584  -13522619.03047 -10495950.49363
  21239398.947   -16642064.933 7 -12367408.32022
 91  4 11  1 11 30.0020000  0  3G 2G 6G13
  22116429.705      701680.444 8    650071.01223
  21227907.963   -13511057.762 7 -10486941.72223
  21236936.041   -16655004.051 7 -12377490.70022
 91  4 11  1 11 45.0020000  0  3G 2G 6G13
  22120310.705      722079.997 8    665966.75423
  21230132.2914  -13499368.06447 -10477832.87763
  21234500.408   -16667806.011 7 -12387466.20522
 91  4 11  1 12  0.0020000  0  3G 2G 6G13
  22124203.143      742526.521 8    681899.09923
  21232379.9244  -13487547.12747 -10468621.76763
  21232090.455   -16680467.915 7 -12397332.56722
 91  4 11  1 12 15.0020000  0  3G 2G 6G13
  22128101.4394     763020.60248    697868.50463
  21234657.5964  -13475594.18647 -10459307.79163
  21229708.557   -16692989.292 7 -12407089.43822
 91  4 11  1 12 30.0020000  0  3G 2G 6G13
  22132012.143      783564.574 8    713876.78023
  21236955.2214  -13463506.87747 -10449889.11863
  21227352.205   -16705367.492 7 -12416734.74222
 91  4 11  1 12 45.0020000  0  3G 2G 6G13
  22135928.416      804152.001 8    729918.91723
  21239281.7054  -13451291.57247 -10440370.70263
  21225022.143   -16717608.893 7 -12426273.44422
 91  4 11  1 13  0.0020000  0  3G 2G 6G13
  22139855.0254     824781.78748    745994.06363
  21241629.7134  -13438949.16847 -10430753.25363
  21222719.432   -16729715.035 7 -12435706.75222
 91  4 11  1 13 15.0020000  0  3G 2G 6G13
  22143789.596      845455.820 8    762103.68323
  21244002.4164  -13426477.87847 -10421035.36963
  21220441.971   -16741683.971 7 -12445033.14622
 91  4 11  1 13 30.0020000  0  3G 2G 6G13
  22147732.1194     866177.93248    778250.77363
  21246402.1194  -13413873.66847 -10411213.91463
  21218191.088   -16753511.959 7 -12454249.71022
 91  4 11  1 13 45.0020000  0  3G 2G 6G13
  22151684.9394     886948.64748    794435.73863
  21248825.8694  -13401135.91847 -10401288.40463
  21215966.783   -16765198.399 7 -12463355.98622
 91  4 11  1 14  0.0020000  0  3G 2G 6G13
  22155646.221      907763.696 8    810655.24023
  21251273.4324  -13388268.91847 -10391262.17963
  21213769.182   -16776747.832 7 -12472355.49322
 91  4 11  1 14 15.0020000  0  3G 2G 6G13
  22159617.221      928626.383 8    826911.86223
  21253746.3074  -13375269.25747 -10381132.58063
  21211598.424   -16788156.932 7 -12481245.65322
 91  4 11  1 14 30.0020000  0  3G 2G 6G13
  22163596.674      949539.422 8    843207.72323
  21256245.2994  -13362134.20647 -10370897.48363
  21209454.096   -16799423.323 7 -12490024.61122
 91  4 11  1 14 45.0020000  0  3G 2G 6G13
  22167585.268      970499.258 8    859540.04523
  21258769.8544  -13348867.20647 -10360559.57263
  21207336.807   -16810550.188 7 -12498694.85422
 91  4 11  1 15  0.0020000  0  3G 2G 6G13
  22171582.213      991506.184 8    875909.06523
  21261320.5494  -13335467.81147 -10350118.49463
  21205245.658   -16821537.382 7 -12507256.25522
 91  4 11  1 15 15.0020000  0  3G 2G 6G13
  22175589.768     1012564.430 8    892318.07223
  21263896.6744  -13321931.88447 -10339571.02363
  21203181.674   -16832380.731 7 -12515705.57122
 91  4 11  1 15 30.0020000  0  3G 2G 6G13
  22179604.674     1033670.047 8    908763.99723
  21266499.2754  -13308263.17047 -10328920.08463
  21201145.424   -16843084.188 7 -12524045.88022
 91  4 11  1 15 45.0020000  0  3G 2G 6G13
  22183629.932     1054823.207 8    925246.96123
  21269126.0804  -13294461.60347 -10318165.62363
  21199134.197   -16853647.779 7 -12532277.20622
 91  4 11  1 16  0.0020000  0  3G 2G 6G13
  22187666.7914    1076025.73347    941768.39863
  21271775.2604  -13280525.24247 -10307306.12563
  21197151.744   -16864069.578 7 -12540398.03922
 91  4 11  1 16 15.0020000  0  3G 2G 6G13
  22191709.229     1097275.189 7    958326.40423
  21274453.5254  -13266456.19247 -10296343.23062
  21195194.752   -16874352.100 7 -12548410.34722
 91  4 11  1 16 30.0020000  0  3G 2G 6G13
  22195760.7604    1118572.24347    974921.50163
  21277157.9164  -13252254.08847 -10285276.66262
  21193264.908   -16884494.857 7 -12556313.75022
 91  4 11  1 16 45.0020000  0  3G 2G 6G13
  22199824.346     1139914.710 7    991551.98123
  21279882.0184  -13237921.03047 -10274108.05063
  21191360.869   -16894500.081 7 -12564109.98222
 91  4 11  1 17  0.0020000  0  3G 2G 6G13
  22203892.2444    1161304.15947   1008219.07463
  21282637.9244  -13223455.23747 -10262836.01363
  21189483.385   -16904366.344 7 -12571797.93222
 91  4 11  1 17 15.0020000  0  3G 2G 6G13
  22207971.721     1182734.972 7   1024918.40023
  21285412.1114  -13208862.30547 -10251464.90563
  21187631.143   -16914099.303 7 -12579382.01322
 91  4 11  1 17 30.0020000  0  3G 2G 6G13
  22212058.932     1204213.229 8   1041654.68723
  21288215.4324  -13194135.93747 -10239989.81663
  21185805.338   -16923692.695 7 -12586857.33822
 91  4 11  1 17 45.0020000  0  3G 2G 6G13
  22216154.346     1225740.115 8   1058428.86723
  21291045.3384  -13179274.98547 -10228409.85763
  21184006.6114  -16933145.65747 -12594223.24262
 91  4 11  1 18  0.0020000  0  3G 2G 6G13
  22220261.369     1247316.519 7   1075241.63623
  21293896.4394  -13164278.57547 -10216724.35463
  21182235.135   -16942457.332 7 -12601479.04422
 91  4 11  1 18 15.0020000  0  3G 2G 6G13
  22224378.150     1268943.939 8   1092094.15523
  21296776.0104  -13149145.22147 -10204932.13663
  21180490.080   -16951626.101 7 -12608623.49722
 91  4 11  1 18 30.0020000  0  3G 2G 6G13
  22228501.572     1290617.406 8   1108982.55623
  21299681.9794  -13133879.77047 -10193036.98463
  21178771.205   -16960657.167 7 -12615660.65122
 91  4 11  1 18 45.0020000  0  3G 2G 6G13
  22232634.1354    1312341.43547   1125910.36563
  21302614.1114  -13118477.69547 -10181035.36863
  21177079.713   -16969546.291 7 -12622587.19622
 91  4 11  1 19  0.0020000  0  3G 2G 6G13
  22236776.7444    1334112.86447   1142875.10363
  21305570.1894  -13102942.03647 -10168929.66262
  21175415.314   -16978296.533 7 -12629405.52222
 91  4 11  1 19 15.0020000  0  3G 2G 6G13
  22240930.4164    1355935.19947   1159879.50663
  21308553.2604  -13087269.19447 -10156717.06063
  21173776.861   -16986904.550 7 -12636113.02522
 91  4 11  1 19 30.0020000  0  3G 2G 6G13
  22245092.408     1377807.610 7   1176922.93223
  21311561.0414  -13071459.95547 -10144398.17462
  21172164.658   -16995371.070 7 -12642710.27322
 91  4 11  1 19 45.0020000  0  3G 2G 6G13
  22249264.1584    1399728.03747   1194003.77263
  21314593.0334  -13055516.34147 -10131974.57663
  21170581.760   -17003698.321 7 -12649198.99722
 91  4 11  1 20  0.0020000  0  3G 2G 6G13
  22253445.9864    1421698.78247   1211123.82363
  21317652.6974  -13039436.12547 -10119444.53662
  21169022.877   -17011884.160 7 -12655577.53122
 91  4 11  1 20 15.0020000  0  3G 2G 6G13
  22257635.783     1443720.417 7   1228283.52523
  21320739.3144  -13023218.75247 -10106807.61862
  21167491.072   -17019928.278 7 -12661845.63422
 91  4 11  1 20 30.0020000  0  3G 2G 6G13
  22261833.557     1465788.833 7   1245479.68123
  21323853.4324  -13006868.24247 -10094066.96562
  21165987.049   -17027834.851 7 -12668006.56222
 91  4 11  1 20 45.0020000  0  3G 2G 6G13
  22266043.9944    1487903.31847   1262711.73763
  21326987.6824  -12990385.17047 -10081223.01462
  21164509.0644  -17035604.59447 -12674060.86762
 91  4 11  1 21  0.0020000  0  3G 2G 6G13
  22270260.3544    1510069.71847   1279984.25163
  21330150.3694  -12973763.82747 -10068271.32162
  21163057.4324  -17043231.46647 -12680003.84462
 91  4 11  1 21 15.0020000  0  3G 2G 6G13
  22274488.8144    1532285.70447   1297295.40263
  21333340.8774  -12957006.56647 -10055213.71663
  21161632.3694  -17050718.08147 -12685837.53762
 91  4 11  1 21 30.0020000  0  3G 2G 6G13
  22278725.4004    1554551.11347   1314645.06263
  21336554.5494  -12940113.30147 -10042050.13563
  21160234.814   -17058064.704 7 -12691562.13422
 91  4 11  1 21 45.0020000  0  3G 2G 6G13
  22282971.4474    1576859.46147   1332028.18463
  21339794.1664  -12923090.28347 -10028785.44762
  21158862.1744  -17065277.85747 -12697182.73862
 91  4 11  1 22  0.0020000  0  3G 2G 6G13
  22287223.8934    1599217.77147   1349450.23763
  21343060.6664  -12905930.88347 -10015414.48863
  21157516.3614  -17072350.88247 -12702694.14062
 91  4 11  1 22 15.0020000  0  3G 2G 6G13
  22291491.5724    1621629.15647   1366913.64363
  21346349.8464  -12888631.69547 -10001934.60062
  21156197.033   -17079280.528 7 -12708093.83422
 91  4 11  1 22 30.0020000  0  3G 2G 6G13
  22295765.400     1644088.942 7   1384414.76423
  21349668.5104  -12871197.31747  -9988349.37162
  21154904.6824  -17086071.37347 -12713385.36362
 91  4 11  1 22 45.0020000  0  3G 2G 6G13
  22300046.900     1666598.903 7   1401954.97823
  21353014.5104  -12853626.01547  -9974657.44762
  21153639.7684  -17092721.95947 -12718567.60262
 91  4 11  1 23  0.0020000  0  3G 2G 6G13
  22304339.0104    1689157.46747   1419533.06863
  21356384.2834  -12835919.58547  -9960860.23263
  21152399.9394  -17099234.11347 -12723641.97262
 91  4 11  1 23 15.0020000  0  3G 2G 6G13
  22308641.8934    1711764.97247   1437149.29563
  21359778.3074  -12818077.59847  -9946957.38862
  21151188.0104  -17105607.37247 -12728608.10762
 91  4 11  1 23 30.0020000  0  3G 2G 6G13
  22312953.7604    1734421.74147   1454803.91163
  21363199.3384  -12800099.59447  -9932948.55662
  21150000.7914  -17111841.58147 -12733465.89662
 91  4 11  1 23 45.0020000  0  3G 2G 6G13
  22317275.033     1757132.263 7   1472500.41023
  21366647.4324  -12781981.03747  -9918830.20762
  21148841.6744  -17117932.71847 -12738212.20362
 91  4 11  1 24  0.0020000  0  3G 2G 6G13
  22321606.0184    1779895.13447   1490237.69763
  21370122.7604  -12763723.24547  -9904603.36062
  21147710.4714  -17123881.99847 -12742847.97062
 91  4 11  1 24 15.0020000  0  3G 2G 6G13
  22325947.049     1802705.759 7   1508012.20223
  21373622.6664  -12745330.95647  -9890271.70762
  21146603.2364  -17129694.04447 -12747376.79962
 91  4 11  1 24 30.0020000  0  3G 2G 6G13
  22330297.5024    1825564.07247   1525823.85963
  21377146.1354  -12726804.21547  -9875835.28962
  21145524.4474  -17135369.09847 -12751798.88362
 91  4 11  1 24 45.0020000  0  3G 2G 6G13
  22334658.9164    1848473.08847   1543675.03163
  21380695.5574  -12708139.91847  -9861291.68862
  21144470.729   -17140904.441 7 -12756112.10022
 91  4 11  1 25  0.0020000  0  3G 2G 6G13
  22339026.1664    1871434.51947   1561567.04363
  21384276.7134  -12689336.30847  -9846639.52862
  21143444.1664  -17146298.20147 -12760314.99762
 91  4 11  1 25 15.0020000  0  3G 2G 6G13
  22343405.1664    1894446.66947   1579498.58063
  21387882.1114  -12670395.32447  -9831880.32662
  21142443.9944  -17151552.62347 -12764409.31762
 91  4 11  1 25 30.0020000  0  3G 2G 6G13
  22347795.939     1917505.089 7   1597466.16723
  21391508.1044  -12651321.37647  -9817017.51362
  21141470.4634  -17156672.17247 -12768398.53862
 91  4 11  1 25 45.0020000  0  3G 2G 6G13
  22352189.635     1940613.317 7   1615472.56623
  21395168.3544  -12632110.63047  -9802048.10962
  21140522.6974  -17161653.00547 -12772279.67362
 91  4 11  1 26  0.0020000  0  3G 2G 6G13
  22356598.9084    1963771.80747   1633518.13563
  21398845.5884  -12612762.59847  -9786971.72262
  21139601.3144  -17166494.87047 -12776052.51762
 91  4 11  1 26 15.0020000  0  3G 2G 6G13
  22361015.455     1986984.772 7   1651606.14223
  21402558.1744  -12593273.28347  -9771785.24662
  21138706.5184  -17171193.83147 -12779714.00962
 91  4 11  1 26 30.0020000  0  3G 2G 6G13
  22365441.814     2010248.564 7   1669733.75823
  21406291.6824  -12573646.05947  -9756491.30762
  21137838.7524  -17175753.55547 -12783267.00662
 91  4 11  1 26 45.0020000  0  3G 2G 6G13
  22369880.6274    2033561.88647   1687899.97063
  21410050.5024  -12553882.40047  -9741091.05962
  21136997.5964  -17180175.56947 -12786712.69462
 91  4 11  1 27  0.0020000  0  3G 2G 6G13
  22374325.408     2056927.037 7   1706106.56523
  21413840.0184  -12533980.13047  -9725582.80062
  21136182.4554  -17184457.68447 -12790049.37462
 91  4 11  1 27 15.0020000  0  3G 2G 6G13
  22378779.947     2080345.021 7   1724354.33223
  21417655.2914  -12513938.34547  -9709965.82962
  21135394.6744  -17188599.16947 -12793276.47062
 91  4 11  1 27 30.0020000  0  3G 2G 6G13
  22383245.150     2103809.299 7   1742638.17223
  21421494.1744  -12493763.33447  -9694245.04562
  21134630.9944  -17192606.76647 -12796399.23362
 91  4 11  1 27 45.0020000  0  3G 2G 6G13
  22387720.416     2127325.799 7   1760962.70623
  21425358.6894  -12473449.20047  -9678415.85662
  21133895.6274  -17196474.48247 -12799413.00662
 91  4 11  1 28  0.0020000  0  3G 2G 6G13
  22392206.510     2150894.655 7   1779328.03623
  21429250.4244  -12452995.89847  -9662478.22762
  21133185.7994  -17200202.40147 -12802317.84562
 91  4 11  1 28 15.0020000  0  3G 2G 6G13
  22396700.385     2174515.066 7   1797733.53823
  21433169.8774  -12432404.37647  -9646432.89762
  21132503.3544  -17203791.62147 -12805114.60362
 91  4 11  1 28 30.0020000  0  3G 2G 6G13
  22401204.0884    2198184.05047   1816176.89063
  21437114.4864  -12411677.48547  -9630282.07962
  21131845.6114  -17207245.06947 -12807805.56862
 91  4 11  1 28 45.0020000  0  3G 2G 6G13
  22405717.377     2221902.034 7   1834658.42423
  21441085.2294  -12390814.76347  -9614025.42462
  21131214.6894  -17210562.54047 -12810390.57462
 91  4 11  1 29  0.0020000  0  3G 2G 6G13
  22410242.5884    2245670.79847   1853179.53063
  21445078.7444  -12369814.51247  -9597661.60262
  21130610.1044  -17213742.26347 -12812868.24662
 91  4 11  1 29 15.0020000  0  3G 2G 6G13
  22414776.1824    2269489.39047   1871739.46063
  21449099.2684  -12348677.71147  -9581191.37962
  21130030.7214  -17216785.39447 -12815239.48562
 91  4 11  1 29 30.0020000  0  3G 2G 6G13
  22419315.643     2293358.970 7   1890339.11723
  21453150.9324  -12327403.17147  -9564613.82762
  21129476.6824  -17219691.01447 -12817503.56662
 91  4 11  1 29 45.0020000  0  3G 2G 6G13
  22423867.8224    2317277.85447   1908977.19463
  21457225.0724  -12305992.40847  -9547930.12462
  21128950.3544  -17222460.82347 -12819661.82462
 91  4 11  1 30  0.0020000  0  3G 2G 6G13
  22428430.3384    2341245.46347   1927653.24663
  21461322.5104  -12284446.14547  -9531140.83662
  21128449.1664  -17225095.65547 -12821714.90562
 91  4 11  1 30 15.0020000  0  3G 2G 6G13
  22432999.213     2365265.149 7   1946369.86923
  21465452.2294  -12262761.13147  -9514243.43162
  21127973.6894  -17227592.08048 -12823660.13662
 91  4 11  1 30 30.0020000  0  3G 2G 6G13
  22437581.4394    2389337.32047   1965127.39563
  21469602.3854  -12240937.20647  -9497237.78162
  21127526.0104  -17229950.02148 -12825497.45762
 91  4 11  1 30 45.0020000  0  3G 2G 6G13
  22442172.1194    2413462.55347   1983926.26763
  21473782.8304  -12218973.32947  -9480123.08562
  21127103.0724  -17232168.70748 -12827226.26562
 91  4 11  1 31  0.0020000  0  3G 2G 6G13
  22446770.572     2437637.962 7   2002764.23423
  21477990.9714  -12196872.43647  -9462901.62462
  21126706.5334  -17234251.56048 -12828849.23462
 91  4 11  1 31 15.0020000  0  3G 2G 6G13
  22451383.018     2461863.963 7   2021641.62223
  21482219.1354  -12174634.43547  -9445573.32262
  21126336.2054  -17236198.32148 -12830366.15562
 91  4 11  1 31 30.0020000  0  3G 2G 6G13
  22456003.1434    2486139.59547   2040557.68763
  21486476.7994  -12152260.21947  -9428138.87762
  21125991.8384  -17238010.22548 -12831777.99162
 91  4 11  1 31 45.0020000  0  3G 2G 6G13
  22460630.4634    2510465.64647   2059513.04263
  21490763.1974  -12129748.94647  -9410597.64162
  21125672.5184  -17239686.47848 -12833084.12662
 91  4 11  1 32  0.0020000  0  3G 2G 6G13
  22465268.2754    2534841.92547   2078507.53563
  21495073.143   -12107100.749 7  -9392949.71022
  21125378.6894  -17241227.43848 -12834284.84462
 91  4 11  1 32 15.0020000  0  3G 2G 6G13
  22469915.9554    2559266.35947   2097539.55063
  21499409.7994  -12084318.06547  -9375196.98162
  21125110.3304  -17242635.32448 -12835381.86062
 91  4 11  1 32 30.0020000  0  3G 2G 6G13
  22474572.572     2583740.474 7   2116610.27723
  21503771.752   -12061399.097 7  -9357338.05622
  21124869.1504  -17243908.71848 -12836374.07762
 91  4 11  1 32 45.0020000  0  3G 2G 6G13
  22479240.6824    2608266.37347   2135721.35563
  21508158.963   -12038341.912 7  -9339371.43522
  21124653.1974  -17245045.87348 -12837260.14062
 91  4 11  1 33  0.0020000  0  3G 2G 6G13
  22483918.127     2632842.646 7   2154871.68423
  21512571.416   -12015147.889 7  -9321298.18222
  21124461.9714  -17246048.05148 -12838041.02562
 91  4 11  1 33 15.0020000  0  3G 2G 6G13
  22488606.0414    2657471.45347   2174062.95263
  21517009.5254  -11991814.95247  -9303116.68563
  21124296.9164  -17246913.31748 -12838715.22362
 91  4 11  1 33 30.0020000  0  3G 2G 6G13
  22493303.877     2682157.625 7   2193298.91623
  21521475.713   -11968338.529 7  -9284823.37822
  21124157.4944  -17247637.02448 -12839279.11762
 91  4 11  1 33 45.0020000  0  3G 2G 6G13
  22498012.1044    2706909.50047   2212586.08163
  21525974.3384  -11944710.09747  -9266411.62562
  21124049.0964  -17248211.13548 -12839726.44662
 91  4 11  1 34  0.0020000  0  3G 2G 6G13
  22502731.619     2731713.910 7   2231914.18023
  21530497.955   -11920942.935 7  -9247891.77422
  21123966.7994  -17248649.03248 -12840067.63662
 91  4 11  1 34 15.0020000  0  3G 2G 6G13
  22507464.213     2756567.973 7   2251280.96823
  21535043.143   -11897039.663 7  -9229265.86422
  21123906.7994  -17248953.48748 -12840304.83962
 91  4 11  1 34 30.0020000  0  3G 2G 6G13
  22512199.8464    2781473.53847   2270687.89463
  21539622.4084  -11872998.80447  -9210532.73662
  21123875.1194  -17249123.17748
 91  4 11  1 34 45.0030000  0  3G 2G 6G13
  22516953.6404    2806433.71347   2290137.37363
  21544219.804   -11848817.344 7  -9191690.05422
  21123869.0934  -17249156.99048
 91  4 11  1 35  0.0030000  0  3G 2G 6G13
  22521709.022     2831442.906 7   2309625.04123
  21548850.9294  -11824500.64147  -9172741.98462
  21123890.2414  -17249057.09948
 91  4 11  1 35 15.0030000  0  3G 2G 6G13
  22526481.0934    2856504.85247   2329153.82763
  21553501.452   -11800045.213 7  -9153685.81923
  21123932.015   -17248821.660 8
 91  4 11  1 35 30.0030000  0  3G 2G 6G13
  22531259.241     2881616.796 7   2348721.55423
  21558182.2334  -11775454.05747  -9134523.89762
  21124003.4524  -17248453.36048
 91  4 11  1 35 45.0030000  0  3G 2G 6G13
  22536044.897     2906779.433 7   2368328.79323
  21562890.2334  -11750726.31647  -9115255.53962
  21124100.8274  -17247951.65548 -12839523.99762
 91  4 11  1 36  0.0030000  0  3G 2G 6G13
  22540843.9994    2931990.33147   2387973.63463
  21567619.0464  -11725864.18347  -9095882.45663
  21124219.6014  -17247319.55248 -12839031.42062
 91  4 11  1 36 15.0030000  0  3G 2G 6G13
  22545653.437     2957255.343 7   2407660.64123
  21572374.5934  -11700862.30247  -9076400.48362
  21124365.9834  -17246551.07948 -12838432.58262
 91  4 11  1 36 30.0030000  0  3G 2G 6G13
  22550471.663     2982569.602 7   2427386.02623
  21577158.1554  -11675725.22247  -9056813.15962
  21124536.7804  -17245651.27648 -12837731.41062
 91  4 11  1 36 45.0030000  0  3G 2G 6G13
  22555298.4604    3007935.21247
  21581967.0774  -11650451.08747
  21124733.6474  -17244618.47148 -12836926.59662
 91  4 11  1 37  0.0030000  0  3G 2G 6G13
  22560134.2964    3033353.03347
  21586803.5544  -11625039.17747
  21124954.9524  -17243451.98048 -12836017.61662
 91  4 11  1 37 15.0030000  0  3G 2G 6G13
  22564980.8514    3058822.76047   2486804.04262
  21591665.101   -11599489.974 7  -8997409.11822
  21125203.7024  -17242152.31348 -12835004.85862
 91  4 11  1 37 30.0030000  0  3G 2G 6G13
  22569836.640     3084337.761 7   2506685.84022
  21596552.3824  -11573809.89447  -8977398.67563
  21125473.3124  -17240726.04848 -12833893.45762
 91  4 11  1 37 45.0030000  0  3G 2G 6G13
  22574699.585     3109903.300 7   2526607.02622
  21601465.671   -11547993.689 7  -8957282.16722
  21125770.9604  -17239167.94348 -12832679.31962
 91  4 11  1 38  0.0030000  0  3G 2G 6G13
  22579573.101     3135519.527 7   2546567.71122
  21606407.429   -11522041.427 7  -8937059.64222
  21126091.7964  -17237478.17048 -12831362.58562
 91  4 11  1 38 15.0030000  0  3G 2G 6G13
  22584458.366     3161187.736 7   2566568.89722
  21611372.015   -11495951.922 7  -8916730.17622
  21126438.9374  -17235655.76148 -12829942.49662
 91  4 11  1 38 30.0030000  0  3G 2G 6G13
  22589354.0384    3186904.93447   2586608.26262
  21616358.304   -11469728.302 7  -8896296.20523
  21126809.8434  -17233704.05048 -12828421.65062
 91  4 11  1 38 45.0030000  0  3G 2G 6G13
  22594255.0544    3212673.71147   2606687.82362
  21621377.7334  -11443368.00447  -8875755.72362
  21127206.5464  -17231620.51048 -12826798.07061
 91  4 11  1 39  0.0030000  0  3G 2G 6G13
  22599170.491     3238490.925 7   2626805.11823
  21626416.694   -11416874.016 7  -8855111.08222
  21127626.6634  -17229408.43948 -12825074.36662
 91  4 11  1 39 15.0030000  0  4G 2G 6G12G13
  22604091.468     3264360.217 7   2646962.99423
  21631487.116   -11390242.956 7  -8834359.62823
  25021921.8904         -0.64155
  21128072.9834  -17227064.39648 -12823247.80462
 91  4 11  1 39 30.0030000  0  4G 2G 6G12G13
  22609026.8274    3290283.28847   2667162.78863
  21636578.312   -11363473.315 7  -8813500.17623
  25013464.1714     -44443.57045
  21128544.3514  -17224587.24048 -12821317.52562
 91  4 11  1 39 45.0030000  0  4G 2G 6G12G13
  22613966.6794    3316257.68847   2687402.57362
  21641700.983   -11336567.510 7  -8792534.63722
  25005008.4914     -88875.92245
  21129040.335   -17221979.410 8 -12819285.41322
 91  4 11  1 40  0.0030000  0  4G 2G 6G12G13
  22618920.655     3342283.052 7   2707682.06523
  21646843.929   -11309526.004 7  -8771463.35022
  24996556.522     -133297.868 5
  21129561.585   -17219241.446 8 -12817151.91122
 91  4 11  1 40 15.0030000  0  4G 2G 6G12G13
  22623883.0074    3368357.43247   2727999.75062
  21652015.851   -11282350.639 7  -8750287.75823
  24988105.0464    -177710.90945
  21130107.1714  -17216375.52748 -12814918.70262
 91  4 11  1 40 30.0030000  0  4G 2G 6G12G13
  22628853.835     3394486.239 7   2748359.85122
  21657215.476   -11255036.317 7  -8729003.89323
  24979655.1164    -222109.66545        -0.08271
  21130677.8274  -17213376.32448 -12812581.62662
 91  4 11  1 40 45.0030000  0  4G 2G 6G12G13
  22633834.772     3420666.346 7   2768759.92522
  21662440.562   -11227586.161 7  -8707614.18423
  24971207.858     -266497.013 5    -34587.50321
  21131273.3194  -17210247.28848 -12810143.38862
 91  4 11  1 41  0.0030000  0  4G 2G 6G12G13
  22638826.3744    3446897.76847   2789199.98762
  21667688.796   -11200000.141 7  -8686118.60423
  24962763.6874    -310872.55045    -69165.72161
  21131893.6944  -17206988.41448 -12807603.98062
 91  4 11  1 41 15.0030000  0  4G 2G 6G12G13
  22643827.952     3473177.194 7   2809677.44822
  21672962.819   -11172281.827 7  -8664519.93422
  24954320.4444    -355239.46645   -103737.20761
  21132537.9054  -17203603.41148 -12804966.28462
 91  4 11  1 41 30.0030000  0  4G 2G 6G12G13
  22648839.5304    3499509.56047   2830196.16662
  21678263.265   -11144426.174 7  -8642814.25322
  24945881.6404    -399592.40945   -138297.82561
  21133206.0934  -17200087.37348 -12802226.48562
 91  4 11  1 41 45.0030000  0  4G 2G 6G12G13
  22653860.8434    3525897.87347   2850758.48062
  21683591.874   -11116430.388 7  -8620999.37522
  24937443.780     -443928.397 5   -172845.21321
  21133901.0304  -17196437.55948 -12799382.44862
 91  4 11  1 42  0.0030000  0  4G 2G 6G12G13
  22658891.3274    3552343.05947   2871365.11462
  21688946.726   -11088293.766 7  -8599074.74822
  24929010.9444    -488246.20545   -207378.44461
  21134622.288   -17192653.316 8 -12796433.65922
 91  4 11  1 42 15.0030000  0  4G 2G 6G12G13
  22663934.7494    3578840.49447   2892012.45862
  21694327.140   -11060020.792 7  -8577043.88423
  24920579.3044    -532550.12845   -241900.84961
  21135366.5154  -17188739.44448 -12793383.86262
 91  4 11  1 42 30.0030000  0  4G 2G 6G12G13
  22668990.2184    3605392.55347   2912702.36862
  21699731.858   -11031609.267 7  -8554905.05222
  24912152.327     -576837.472 5   -276410.33621
  21136135.7414  -17184693.78648 -12790231.37362
 91  4 11  1 42 45.0030000  0  4G 2G 6G12G13
  22674052.6474    3631999.91747   2933435.36862
  21705162.226   -11003058.438 7  -8532657.67423
  24903728.3584    -621107.33945   -310906.19761
  21136931.9444  -17180515.82048 -12786975.78862
 91  4 11  1 43  0.0030000  0  4G 2G 6G12G13
  22679123.9684    3658657.11947   2954207.20562
  21710624.569   -10974373.898 7  -8510306.10423
  24895305.4134    -665364.90945   -345392.50961
  21137749.7494  -17176211.13448 -12783621.45962
 91  4 11  1 43 15.0030000  0  4G 2G 6G12G13
  22684207.4214    3685369.61047   2975022.12462
  21716108.882   -10945550.510 7  -8487846.34123
  24886887.3664    -709604.58545   -379864.83961
  21138594.429   -17171774.827 8 -12780164.57322
 91  4 11  1 43 30.0030000  0  4G 2G 6G12G13
  22689302.1244    3712136.88647   2995879.73062
  21721618.507   -10916588.859 7  -8465278.84222
  24878472.6554    -753826.73445   -414323.53161
  21139463.4374  -17167207.62848 -12776605.69162
 91  4 11  1 43 45.0030000  0  4G 2G 6G12G13
  22694405.007     3738960.607 7   3016781.31322
  21727158.265   -10887487.282 7  -8442602.31322
  24870059.8194    -798029.31745   -448766.96461
  21140357.4684  -17162507.82048 -12772943.47562
 91  4 11  1 44  0.0030000  0  4G 2G 6G12G13
  22699520.7264    3765841.03147   3037727.08962
  21732720.679   -10858245.760 7  -8419816.72723
  24861651.9684    -842211.93545   -483194.85761
  21141277.9834  -17157675.54848 -12769178.04162
 91  4 11  1 44 15.0030000  0  4G 2G 6G12G13
  22704647.7884    3792779.79547   3058718.32162
  21738313.507   -10828862.627 7  -8396920.80122
  24853249.7724    -886372.67345   -517605.68561
  21142222.312   -17152709.323 8 -12765308.23522
 91  4 11  1 44 30.0030000  0  4G 2G 6G12G13
  22709783.460     3819773.671 7   3079752.49722
  21743932.687   -10799341.240 7  -8373917.14322
  24844849.1014    -930514.37645   -552001.69761
  21143191.585   -17147612.459 8 -12761336.62722
 91  4 11  1 44 45.0030000  0  4G 2G 6G12G13
  22714933.319     3846823.910 7   3100830.58822
  21749573.233   -10769680.378 7  -8350804.80722
  24836451.780     -974635.566 5   -586381.71421
  21144186.944   -17142384.024 8 -12757262.50122
 91  4 11  1 45  0.0030000  0  4G 2G 6G12G13
  22720090.702     3873931.538 7   3121953.40022
  21755245.702   -10739879.149 7  -8327583.08622
  24828060.4994   -1018735.14245   -620744.91361
  21145206.897   -17137023.139 8 -12753085.16522
 91  4 11  1 45 15.0030000  0  4G 2G 6G12G13
  22725258.187     3901094.642 7   3143119.43922
  21760944.507   -10709939.591 7  -8304253.58022
  24819670.905    -1062814.849 5   -655092.59621
  21146252.085   -17131532.387 8 -12748806.63422
 91  4 11  1 45 30.0030000  0  4G 2G 6G12G13
  22730436.640     3928314.441 7   3164329.65822
  21766669.046   -10679860.629 7  -8280815.45022
  24811289.2264   -1106873.07345   -689423.56161
  21147322.374   -17125910.210 8 -12744425.70022
 91  4 11  1 45 45.0030000  0  4G 2G 6G12G13
  22735627.116     3955590.432 7   3185583.66522
  21772419.155   -10649642.934 7  -8257269.21522
  24802909.7104   -1150910.18745   -723738.07561
  21148417.444   -17120157.578 8 -12739943.10822
 91  4 11  1 46  0.0030000  0  4G 2G 6G12G13
  22740829.132     3982923.218 7   3206881.92422
  21778195.007   -10619285.850 7  -8233614.36522
  24794532.2884   -1194925.11545   -758035.29161
  21149536.819   -17114274.195 8 -12735358.63522
 91  4 11  1 46 15.0030000  0  4G 2G 6G12G13
  22746041.0854    4010309.52447   3228221.89362
  21783998.179   -10588792.806 7  -8209853.57122
  24786160.1554   -1238921.03845   -792317.71761
  21150680.155   -17108263.454 8 -12730674.92222
 91  4 11  1 46 30.0030000  0  4G 2G 6G12G13
  22751263.4054    4037752.98447   3249606.39862
  21789827.976   -10558160.379 7  -8185984.16922
  24777793.0384   -1282894.12145   -826582.33661
  21151848.460   -17102122.025 8 -12725889.37522
 91  4 11  1 46 45.0030000  0  4G 2G 6G12G13
  22756496.7494    4065249.95347   3271032.59862
  21795682.640   -10527392.249 7  -8162009.02123
  24769427.913    -1326847.770 5   -860831.82221
  21153041.257   -17095853.720 8 -12721004.96422
 91  4 11  1 47  0.0030000  0  4G 2G 6G12G13
  22761739.882     4092803.036 7   3292502.52022
  21801562.530   -10496485.986 7  -8137926.23823
  24761066.1474   -1370779.14045   -895063.93861
  21154259.218   -17089456.238 8 -12716019.89022
 91  4 11  1 47 15.0030000  0  4G 2G 6G12G13
  22766995.6404    4120415.17947   3314018.46762
  21807469.538   -10465438.650 7  -8113733.53222
  24752709.8584   -1414684.83245   -929276.05061
  21155501.858   -17082926.713 8 -12710931.92822
 91  4 11  1 47 30.0030000  0  4G 2G 6G12G13
  22772258.9054    4148082.14047   3335577.12962
  21813405.343   -10434254.692 7  -8089434.36022
  24744361.4524   -1458568.83145   -963471.25061
  21156767.897   -17076269.643 8 -12705744.58222
 91  4 11  1 47 45.0030000  0  4G 2G 6G12G13
  22777533.804     4175803.571 7   3357178.23222
  21819366.843   -10402934.678 7  -8065029.17723
  24736013.687    -1502431.443 5   -997649.79821
  21158059.655   -17069485.873 8 -12700458.50722
 91  4 11  1 48  0.0030000  0  4G 2G 6G12G13
  22782822.0694    4203579.33047   3378821.66962
  21825348.616   -10371478.778 7  -8040518.10322
  24727672.983    -1546272.424 5  -1031811.47821
  21159373.788   -17062575.621 8 -12695073.87422
 91  4 11  1 48 15.0030000  0  4G 2G 6G12G13
  22788114.1404    4231408.02247   3400506.35562
  21831363.632   -10339888.356 7  -8015902.20722
  24719333.5464   -1590092.86245  -1065957.16261
  21160712.9374  -17055540.36548 -12689591.83362
 91  4 11  1 48 30.0030000  0  4G 2G 6G12G13
  22793424.9134    4259296.91447   3422237.94862
  21837399.046   -10308156.478 7  -7991176.08422
  24711000.491    -1633885.349 5  -1100081.08221
  21162075.929   -17048373.147 8 -12684006.96822
 91  4 11  1 48 45.0030000  0  4G 2G 6G12G13
  22798738.874     4287240.709 7   3444012.32522
  21843466.343   -10276288.396 7  -7966343.83022
  24702671.9294   -1677654.94045  -1134187.13961
  21163465.241   -17041079.617 8 -12678323.68322
 91  4 11  1 49  0.0030000  0  4G 2G 6G12G13
  22804068.6944    4315237.48547   3465827.98562
  21849553.304   -10244286.314 7  -7941407.16422
  24694346.413    -1721403.221 5  -1168276.61721
  21164876.069   -17033662.009 8 -12672543.70822
 91  4 11  1 49 15.0030000  0  4G 2G 6G12G13
  22809407.1714    4343289.55947   3487686.74262
  21855670.382   -10212148.075 7  -7916364.39522
  24686024.890    -1765127.798 5  -1202347.60421
  21166311.249   -17026118.303 8 -12666665.47322
 91  4 11  1 49 30.0030000  0  4G 2G 6G12G13
  22814752.7804    4371393.39247   3509585.82262
  21861812.671   -10179877.201 7  -7891218.28222
  24677707.6404   -1808831.72245  -1236402.51161
  21167770.608   -17018451.851 8 -12660691.59322
 91  4 11  1 49 45.0030000  0  4G 2G 6G12G13
  22820111.6714    4399551.82547   3531527.45262
  21867977.327   -10147471.075 7  -7865966.77022
  24669394.171    -1852512.123 5  -1270439.08021
  21169253.1084  -17010660.41448 -12654620.31762
 91  4 11  1 50  0.0030000  0  4G 2G 6G12G13
  22825482.3664    4427763.89347   3553510.87262
  21874168.515   -10114930.926 7  -7840610.82822
  24661088.4764   -1896169.80945  -1304457.96061
  21170759.022   -17002745.123 8 -12648452.53922
 91  4 11  1 50 15.0030000  0  4G 2G 6G12G13
  22830861.3274    4456030.34247   3575536.67362
  21880387.171   -10082255.972 7  -7815149.84322
  24652784.0074   -1939803.45545  -1338458.09961
  21172289.202   -16994705.524 8 -12642187.89222
 91  4 11  1 50 30.0030000  0  4G 2G 6G12G13
  22836250.7964    4484352.76047   3597606.08462
  21886631.226   -10049444.552 7  -7789582.52322
  24644486.327    -1983411.130 5  -1372438.01221
  21173842.593   -16986540.075 8 -12635825.18422
 91  4 11  1 50 45.0030000  0  4G 2G 6G12G13
  22841650.9134    4512733.32447   3619720.80562
  21892901.890   -10016494.881 7  -7763907.47122
  24636193.1244   -2026990.60245  -1406395.94561
  21175420.835   -16978247.044 8 -12629363.05922
 91  4 11  1 51  0.0030000  0  4G 2G 6G12G13
  22847062.1944    4541168.78347   3641878.30362
  21899197.546    -9983410.239 7  -7738127.24923
  24627907.1324   -2070544.77146  -1440334.15361
  21177023.0854  -16969829.74748 -12622804.09962
 91  4 11  1 51 15.0030000  0  4G 2G 6G12G13
  22852484.0774    4569659.10947   3664078.55462
  21905518.562    -9950190.987 7  -7712242.13422
  24619622.718    -2114073.554 6  -1474252.58821
  21178647.530   -16961288.610 8 -12616148.65022
 91  4 11  1 51 30.0030000  0  4G 2G 6G12G13
  22857917.2724    4598207.79347   3686324.27862
  21911865.694    -9916833.745 7  -7686249.49422
  24611344.4764   -2157573.19046  -1508148.32061
  21180297.374   -16952620.404 8 -12609394.18122
 91  4 11  1 51 45.0030000  0  4G 2G 6G12G13
  22863359.1794    4626811.65747   3708612.99562
  21918239.171    -9883341.793 7  -7660151.88522
  24603071.632    -2201046.571 6  -1542023.58821
  21181970.632   -16943828.588 8 -12602543.39022
 91  4 11  1 52  0.0030000  0  4G 2G 6G12G13
  22868809.6944    4655471.12647   3730945.04262
  21924639.890    -9849714.747 7  -7633949.00922
  24594805.0304   -2244492.98946  -1575877.82761
  21183667.4214  -16934913.04348 -12595596.18962
 91  4 11  1 52 15.0030000  0  4G 2G 6G12G13
  22874275.7104    4684183.72247   3753318.48662
  21931063.812    -9815955.331 7  -7607642.98622
  24586541.179    -2287914.635 6  -1609712.80021
  21185387.3514  -16925876.38048 -12588554.61362
 91  4 11  1 52 30.0030000  0  4G 2G 6G12G13
  22879751.7494    4712951.72847   3775735.10662
  21937511.796    -9782061.248 7  -7581232.02622
  24578284.1874   -2331308.89746  -1643526.41061
  21187129.827   -16916716.357 8 -12581416.91022
 91  4 11  1 52 45.0030000  0  4G 2G 6G12G13
  22885233.0464    4741773.25746   3798193.43361
  21943988.7414   -9748034.59747  -7554717.77962
  24570030.0154   -2374677.41645  -1677319.96461
  21188895.6324  -16907435.17548 -12574184.79362
 91  4 11  1 53  0.0030000  0  4G 2G 6G12G13
  22890730.1554    4770648.15347   3820693.35262
  21950487.6244   -9713875.65947  -7528100.43662
  24561783.2574   -2418020.02446  -1711093.31261
  21190685.382   -16898033.460 8 -12566858.76122
 91  4 11  1 53 15.0030000  0  4G 2G 6G12G13
  22896234.2494    4799574.05347   3843233.00562
  21957013.9834   -9679587.12147  -7501382.09662
  24553538.679    -2461338.934 6  -1744848.22421
  21192495.890   -16888513.663 8 -12559440.71522
 91  4 11  1 53 30.0030000  0  4G 2G 6G12G13
  22901748.3664    4828553.07247   3865814.05562
  21963562.601    -9645167.049 7  -7474561.27322
  24545300.8744   -2504631.72246  -1778582.78161
  21194331.491   -16878874.126 8 -12551929.36922
 91  4 11  1 53 45.0030000  0  4G 2G 6G12G13
  22907272.4134    4857583.32147   3888435.01862
  21970138.390    -9610617.353 7  -7447639.44522
  24537067.5934   -2547899.96146  -1812298.20161
  21196187.210   -16869117.048 8 -12544326.42722
 91  4 11  1 54  0.0030000  0  4G 2G 6G12G13
  22912807.4994    4886669.77447   3911099.77762
  21976737.2024   -9575933.07447  -7420612.74762
  24528840.1164   -2591138.31246  -1845990.32461
  21198067.554   -16859237.634 8 -12536628.16522
 91  4 11  1 54 15.0030000  0  4G 2G 6G12G13
  22918353.4054    4915807.92947   3933804.82562
  21983363.1874   -9541118.95647  -7393484.87262
  24520616.351    -2634351.110 6  -1879662.54121
  21199969.694   -16849240.554 8 -12528838.21022
 91  4 11  1 54 30.0030000  0  4G 2G 6G12G13
  22923905.991     4945000.227 7   3956552.05021
  21990013.9524   -9506172.77547  -7366254.09162
  24512398.101    -2677535.612 5  -1913312.68921
  21201895.257   -16839123.472 8 -12520954.74622
 91  4 11  1 54 45.0030000  0  4G 2G 6G12G13
  22929473.1474    4974248.67947   3979343.04762
  21996688.202    -9471092.668 7  -7338918.95022
  24504186.5544   -2720689.69645  -1946939.17961
  21203843.1714  -16828884.87348 -12512976.60062
 91  4 11  1 55  0.0030000  0  4G 2G 6G12G13
  22935051.6084    5003552.06347   4002176.85362
  22003388.272    -9435879.942 7  -7311480.47822
  24495980.7264   -2763814.01446  -1980542.43761
  21205813.4834  -16818526.25248 -12504904.92162
 91  4 11  1 55 15.0030000  0  4G 2G 6G12G13
  22940637.7574    5032911.10447   4025054.01462
  22010114.6164   -9400534.09247  -7283938.27062
  24487780.116    -2806907.680 6  -2014121.83621
  21207808.257   -16808047.008 8 -12496739.25322
 91  4 11  1 55 30.0030000  0  4G 2G 6G12G13
  22946233.647     5062324.167 6   4047973.27121
  22016866.296    -9365056.825 7  -7256293.65522
  24479585.2804   -2849972.02845  -2047678.38161
  21209825.8664  -16797449.02448 -12488481.07462
 91  4 11  1 55 45.0030000  0  4G 2G 6G12G13
  22951841.3354    5091790.36047   4070933.93462
  22023640.8744   -9329449.32847  -7228547.55862
  24471395.226    -2893007.860 6  -2081212.69121
  21211864.616   -16786733.498 8 -12480131.27522
 91  4 11  1 56  0.0030000  0  4G 2G 6G12G13
  22957460.140     5121313.780 7   4093939.18822
  22030442.5304   -9293707.67146  -7200696.92462
  24463211.999    -2936010.724 5  -2114721.32521
  21213926.812   -16775896.502 8 -12471686.84122
 91  4 11  1 56 15.0030000  0  4G 2G 6G12G13
  22963089.0074    5150892.42347   4116987.46862
  22037268.983    -9257834.058 7  -7172743.47922
  24455035.140    -2978982.484 6  -2148205.72721
  21216011.632   -16764940.573 8 -12463149.72922
 91  4 11  1 56 30.0030000  0  4G 2G 6G12G13
  22968728.3044    5180528.50947   4140080.53162
  22044121.788    -9221826.425 7  -7144685.61022
  24446863.147    -3021920.486 6  -2181663.80221
  21218118.616   -16753863.798 8 -12454518.45122
 91  4 11  1 56 45.0030000  0  4G 2G 6G12G13
  22974377.0694    5210220.45846   4163217.09461
  22051000.101    -9185686.361 7  -7116524.52023
  24438699.9054   -3064826.00146  -2215096.57261
  21220248.9294  -16742667.79448 -12445794.26462
 91  4 11  1 57  0.0030000  0  4G 2G 6G12G13
  22980037.608     5239965.981 7   4186395.42322
  22057902.0304   -9149416.49747  -7088262.29962
  24430539.452    -3107701.163 6  -2248505.68321
  21222402.4764  -16731355.17148 -12436979.20662
 91  4 11  1 57 15.0030000  0  4G 2G 6G12G13
  22985710.140     5269769.888 7   4209619.23422
  22064828.5624   -9113012.21347  -7059895.32662
  24422388.6634   -3150540.82146  -2281887.14761
  21224577.7884  -16719921.28948 -12428069.66262
 91  4 11  1 57 30.0030000  0  4G 2G 6G12G13
  22991391.0934    5299628.57447   4232885.72862
  22071781.2654   -9076477.09247  -7031426.41962
  24414242.0224   -3193348.24546  -2315243.48361
  21226776.5624  -16708370.15348 -12419068.75262
 91  4 11  1 57 45.0030000  0  4G 2G 6G12G13
  22997083.5774    5329546.44747   4256198.35562
  22078760.3974   -9039807.03647  -7002852.35562
  24406102.351    -3236118.817 6  -2348571.09521
  21228997.4994  -16696697.56448 -12409973.20062
 91  4 11  1 58  0.0030000  0  4G 2G 6G12G13
  23002789.2804    5359521.70947   4279555.70162
  22085762.468    -9003003.965 7  -6974174.65522
  24397970.2184   -3278853.99546  -2381871.12861
  21231241.8274  -16684905.59648 -12400784.62562
 91  4 11  1 58 15.0030000  0  4G 2G 6G12G13
  23008502.9994    5389555.06247   4302958.30862
  22092792.882    -8966067.308 7  -6945392.86222
  24389844.491    -3321552.832 6  -2415142.85521
  21233508.1554  -16672993.88748 -12391502.74662
 91  4 11  1 58 30.0030000  0  4G 2G 6G12G13
  23014231.1634    5419645.81947   4326405.65062
  22099845.007    -8928998.049 7  -6916507.73922
  24381726.3904   -3364215.79446  -2448386.62561
  21235796.874   -16660963.565 8 -12382128.44722
 91  4 11  1 58 45.0030000  0  4G 2G 6G12G13
  23019965.9134    5449794.29647   4349897.96762
  22106925.772    -8891796.035 7  -6887519.17222
  24373613.913    -3406842.164 6  -2481601.87421
  21238108.8124  -16648814.55248 -12372661.65462
 91  4 11  1 59  0.0030000  0  4G 2G 6G12G13
  23025714.5224    5480000.44947   4373435.22562
  22114029.780    -8854461.362 7  -6858427.23822
  24365509.616    -3449431.753 6  -2514788.45721
  21240443.8664  -16636546.85348 -12363102.38562
 91  4 11  1 59 15.0030000  0  4G 2G 6G12G13
  23031474.1014    5510262.44947   4397015.99762
  22121158.390    -8816996.021 7  -6829233.47622
  24357411.187    -3491986.058 6  -2547947.54821
  21242800.554   -16624162.591 8 -12353452.28922
 91  4 11  1 59 30.0030000  0  4G 2G 6G12G13
  23037242.4684    5540581.88247   4420641.52762
  22128314.452    -8779398.743 7  -6799936.92322
  24349321.9994   -3534503.21746  -2581077.70161
  21245179.968   -16611660.640 8 -12343710.48622
 91  4 11  1 59 45.0030000  0  4G 2G 6G12G13
  23043023.6554    5570956.56047   4444310.10162
  22135493.835    -8741671.744 7  -6770539.27822
  24341238.374    -3576985.017 6  -2614180.29721
  21247580.515   -16599043.443 8 -12333878.87922
 91  4 11  2  0  0.0030000  0  4G 2G 6G12G13
  23048813.6164    5601386.08747   4468021.41062
  22142697.601    -8703815.760 7  -6741041.12722
  24333160.265    -3619431.915 6  -2647255.68721
  21250003.554   -16586311.407 8 -12323957.78922
 91  4 11  2  0 15.0030000  0  4G 2G 6G12G13
  23054615.2104    5631869.48747   4491774.70562
  22149924.241    -8665831.994 7  -6711443.40522
  24325088.0934   -3661844.52246  -2680304.35861
  21252447.187   -16573466.097 8 -12313948.43722
 91  4 11  2  0 30.0030000  0  4G 2G 6G12G13
  23060425.5774    5662404.75847   4515568.41962
  22157176.288    -8627722.812 7  -6681747.96222
  24317024.6474   -3704224.54546  -2713327.64561
  21254913.202   -16560509.961 8 -12303852.72522
 91  4 11  2  0 45.0030000  0  4G 2G 6G12G13
  23066247.1554    5692995.32647   4539405.22062
  22164452.312    -8589484.633 7  -6651952.00122
  24308966.405    -3746568.213 6  -2746322.59621
  21257400.210   -16547439.564 8 -12293667.97922
 91  4 11  2  1  0.0030000  0  4G 2G 6G12G13
  23072080.8354    5723644.07247   4563287.35362
  22171754.569    -8551114.707 7  -6622053.38022
  24300915.265    -3788872.163 6  -2779286.59621
  21259909.280   -16534252.287 8 -12283392.16022
 91  4 11  2  1 15.0030000  0  4G 2G 6G12G13
  23077922.7264    5754350.53747   4587214.46662
  22179080.851    -8512613.881 7  -6592052.76022
  24292873.1474   -3831136.77446  -2812219.94661
  21262441.312   -16520948.708 8 -12273025.71122
 91  4 11  2  1 30.0030000  0  4G 2G 6G12G13
  23083774.8904    5785110.50147   4611183.26962
  22186431.319    -8473986.441 7  -6561953.48022
  24284836.749    -3873365.936 6  -2845125.67521
  21264994.937   -16507533.393 8 -12262572.19922
 91  4 11  2  1 45.0030000  0  4G 2G 6G12G13
  23089639.7654    5815927.55747   4635196.54962
  22193807.601    -8435229.224 7  -6531753.07622
  24276809.1474   -3915555.93246  -2878000.87161
  21267568.312   -16494003.435 8 -12252029.35322
 91  4 11  2  2  0.0030000  0  4G 2G 6G12G13
  23095515.5154    5846802.84147   4659255.21662
  22201207.085    -8396341.063 7  -6501450.63922
  24268787.577    -3957705.110 6  -2910844.28321
  21270164.913   -16480357.722 8 -12241396.30922
 91  4 11  2  2 15.0030000  0  4G 2G 6G12G13
  23101402.3274    5877735.00847   4683358.20062
  22208631.8584   -8357323.44947  -6471047.32762
  24260773.8514   -3999814.47846  -2943656.65761
  21272783.460   -16466597.802 8 -12230674.27222
 91  4 11  2  2 30.0030000  0  4G 2G 6G12G13
  23107298.2884    5908721.32247   4707503.37762
  22216080.804    -8318179.351 7  -6440545.46222
  24252768.9444   -4041886.48646  -2976439.92661
  21275423.085   -16452726.735 8 -12219865.63122
 91  4 11  2  2 45.0030000  0  4G 2G 6G12G13
  23113203.3824    5939760.20347   4731689.52162
  22223554.218    -8278910.711 7  -6409946.54822
  24244769.6014   -4083922.49146  -3009195.14861
  21278084.140   -16438746.368 8 -12208971.81822
 91  4 11  2  3  0.0030000  0  4G 2G 6G12G13
  23119122.5074    5970858.01847   4755921.57962
  22231050.9294   -8239511.29447  -6379245.73062
  24236777.093    -4125915.882 6  -3041917.14621
  21280766.390   -16424650.677 8 -12197988.14822
 91  4 11  2  3 15.0030000  0  4G 2G 6G12G13
  23125049.6714    6002009.23447   4780195.25162
  22238571.6634   -8199986.73647  -6348447.40662
  24228793.468    -4167871.731 6  -3074609.90521
  21283469.351   -16410445.426 8 -12186919.10222
 91  4 11  2  3 30.0030000  0  4G 2G 6G12G13
  23130989.1404    6033218.88447   4804514.45962
  22246117.7804   -8160332.13847  -6317547.74762
  24220818.757    -4209784.882 6  -3107269.38821
  21286193.679   -16396125.873 8 -12175760.98822
 91  4 11  2  3 45.0030000  0  4G 2G 6G12G13
  23136937.8514    6064480.81547   4828874.40262
  22253688.0464   -8120554.06447  -6286551.87562
  24212848.4914   -4251661.15546  -3139900.14161
  21288939.468   -16381698.659 8 -12164518.98922
 91  4 11  2  4  0.0030000  0  4G 2G 6G12G13
  23142898.1324    6095797.12947   4853276.71762
  22261281.0544   -8080650.57447  -6255458.27762
  24204887.6244   -4293498.17846  -3172500.31261
  21291706.132   -16367161.738 8 -12153191.49722
 91  4 11  2  4 15.0030000  0  4G 2G 6G12G13
  23148868.0154    6127173.33747   4877725.71162
  22268900.2654   -8040616.28347  -6224262.75462
  24196935.897    -4335290.150 6  -3205065.38021
  21294493.718   -16352509.912 8 -12141774.47322
 91  4 11  2  4 30.0030000  0  4G 2G 6G12G13
  23154850.7574    6158606.35647   4902218.96262
  22276541.7264   -8000454.45647  -6192967.85862
  24188990.585    -4377039.733 6  -3237597.41021
  21297303.1474  -16337746.61148 -12130270.59162
 91  4 11  2  4 45.0030000  0  4G 2G 6G12G13
  23160841.9764    6190096.11947   4926756.44362
  22284208.8434   -7960165.42747  -6161573.84162
  24181051.999    -4418746.702 6  -3270096.24421
  21300134.085   -16322872.200 8 -12118680.11622
 91  4 11  2  5  0.0030000  0  4G 2G 6G12G13
  23166846.0304    6221647.67647   4951342.06662
  22291901.6944   -7919744.35847  -6130076.93162
  24173125.9214   -4460405.78546  -3302557.75261
  21302986.397   -16307881.982 8 -12106999.40722
 91  4 11  2  5 15.0030000  0  4G 2G 6G12G13
  23172860.9444    6253258.98947   4975974.25262
  22299617.288    -7879193.489 7  -6098478.88022
  24165206.944    -4502018.691 6  -3334983.30921
  21305860.062   -16292778.299 8 -12095230.28722
 91  4 11  2  5 30.0030000  0  4G 2G 6G12G13
  23178888.0074    6284926.97047   5000650.60662
  22307358.3124   -7838516.04547  -6066782.19862
  24157297.710    -4543588.187 6  -3367375.01321
  21308754.944   -16277564.130 8 -12083375.06722
 91  4 11  2  5 45.0030000  0  4G 2G 6G12G13
  23184924.7804    6316654.38747   5025373.28362
  22315122.718    -7797709.523 7  -6034984.93022
  24149395.640    -4585111.262 6  -3399730.56121
  21311672.569   -16262237.348 8 -12071432.10322
 91  4 11  2  6  0.0030000  0  4G 2G 6G12G13
  23190974.718     6348441.219 7   5050142.20922
  22322912.5074   -7756774.15347  -6003087.27962
  24141502.358    -4626587.479 6  -3432049.57221
  21314610.030   -16246798.238 8 -12059401.61122
 91  4 11  2  6 15.0030000  0  4G 2G 6G12G13
  23197033.0934    6380284.46847   5074955.14462
  22330725.8824   -7715713.12447  -5971091.69062
  24133617.6944   -4668019.60546  -3464334.27761
  21317569.085   -16231250.034 8 -12047286.11022
 91  4 11  2  6 30.0030000  0  4G 2G 6G12G13
  23203105.0304    6412187.00447   5099814.25662
  22338564.2654   -7674523.94447  -5938996.26762
  24125743.6794   -4709404.73646  -3496582.27561
  21320548.351   -16215590.219 8 -12035083.63422
 91  4 11  2  6 45.0030000  0  4G 2G 6G12G13
  23209187.2184    6444152.65647   5124722.54762
  22346428.319    -7633202.788 7  -5906797.98722
  24117878.921    -4750738.473 6  -3528790.35021
  21323550.476   -16199815.167 8 -12022791.36722
 91  4 11  2  7  0.0030000  0  4G 2G 6G12G13
  23215281.0074    6476178.39547   5149677.67762
  22354315.757    -7591752.807 6  -5874499.32722
  24110020.9134   -4792023.49046  -3560960.38461
  21326573.843   -16183928.056 8 -12010411.79422
 91  4 11  2  7 15.0030000  0  4G 2G 6G12G13
  23221386.5224    6508263.21547   5174678.83262
  22362227.9294   -7550175.36146  -5842101.34262
  24102173.608    -4833260.639 6  -3593093.14921
  21329618.085   -16167930.316 8 -11997945.99822
 91  4 11  2  7 30.0030000  0  4G 2G 6G12G13
  23227504.3274    6540408.98147   5199727.47962
  22370164.1794   -7508468.70746  -5809602.68062
  24094335.7964   -4874447.71046  -3625186.88461
  21332683.272   -16151820.411 8 -11985392.81022
 91  4 11  2  7 45.0030000  0  4G 2G 6G12G13
  23233632.6244    6572615.58747   5224823.54262
  22378124.585    -7466633.329 6  -5777003.70922
  24086507.530    -4915584.544 6  -3657241.46521
  21335770.499   -16135598.953 8 -11972752.69322
 91  4 11  2  8  0.0030000  0  4G 2G 6G12G13
  23239773.2184    6604883.33247   5249967.23362
  22386110.530    -7424669.145 6  -5744304.36822
  24078689.397    -4956670.560 6  -3689256.47121
  21338878.030   -16119265.837 8 -11960025.57622
 91  4 11  2  8 15.0030000  0  4G 2G 6G12G13
  23245924.7724    6637212.15747   5275158.53162
  22394120.702    -7382576.342 6  -5711504.80722
  24070880.069    -4997705.404 6  -3721231.59321
  21342007.647   -16102821.112 8 -11947211.49422
 91  4 11  2  8 30.0030000  0  4G 2G 6G12G13
  23252088.4214    6669599.62547   5300395.51762
  22402153.843    -7340357.496 7  -5678607.03522
  24063081.1554   -5038691.10646  -3753168.40761
  21345157.765   -16086267.465 8 -11934312.53022
 91  4 11  2  8 45.0030000  0  4G 2G 6G12G13
  23258261.7494    6702046.36147   5325678.68661
  22410212.999    -7298012.301 6  -5645610.80522
  24055291.0544   -5079626.77346  -3785066.24561
  21348328.390   -16069604.698 8 -11921328.55122
 91  4 11  2  9  0.0030000  0  4G 2G 6G12G13
  23264449.6244    6734553.01347   5351008.54762
  22418294.702    -7255540.611 6  -5612516.01022
  24047510.6324   -5120511.80046  -3816924.62161
  21351519.804   -16052832.826 8 -11908259.53522
 91  4 11  2  9 15.0030000  0  4G 2G 6G12G13
  23270646.1874    6767119.83747   5376385.28561
  22426401.249    -7212942.022 6  -5579322.32422
  24039740.2494   -5161345.28746  -3848742.87461
  21354732.577   -16035951.618 8 -11895105.34322
 91  4 11  2  9 30.0030000  0  4G 2G 6G12G13
  23276855.4054    6799749.30247   5401810.83462
  22434531.022    -7170214.285 6  -5546028.00522
  24031980.483    -5202124.427 6  -3880518.74621
  21357966.452   -16018958.686 8 -11881864.08422
 91  4 11  2  9 45.0030000  0  4G 2G 6G12G13
  23283075.1404    6832440.08747   5427284.16862
  22442686.835    -7127359.128 6  -5512634.39922
  24024230.0934   -5242850.36146  -3912253.17761
  21361221.1944  -16001855.66648 -11868537.05162
 91  4 11  2 10  0.0030000  0  4G 2G 6G12G13
  23289308.5544    6865191.95747   5452805.10062
  22450865.851    -7084376.946 6  -5479141.81122
  24016490.374    -5283523.019 6  -3943946.07821
  21364496.538   -15984643.170 8 -11855124.69422
 91  4 11  2 10 15.0030000  0  4G 2G 6G12G13
  23295552.8664    6898008.76847   5478376.64062
  22459070.429    -7041264.117 6  -5445547.42022
  24008761.632    -5324138.199 6  -3975594.20021
  21367793.062   -15967317.673 8 -11841624.29622
 91  4 11  2 10 30.0030000  0  4G 2G 6G12G13
  23301809.0934    6930886.71947   5503995.81462
  22467298.483    -6998024.676 7  -5411854.37222
  24001042.9764   -5364699.22146  -4007200.12661
  21371110.8664  -15949883.39148 -11828039.13162
 91  4 11  2 10 45.0030000  0  4G 2G 6G12G13
  23308076.3584    6963820.53747   5529658.52662
  22475550.194    -6954664.138 6  -5378066.96522
  23993333.546    -5405211.183 6  -4038767.81421
  21374448.1874  -15932345.87048 -11814373.52062
 91  4 11  2 11  0.0030000  0  4G 2G 6G12G13
  23314353.7184    6996814.12847   5555367.81361
  22483824.780    -6911178.743 6  -5344182.26922
  23985635.1714   -5445669.91946  -4070294.03661
  21377806.827   -15914701.386 8 -11800624.56622
 91  4 11  2 11 15.0030000  0  4G 2G 6G12G13
  23320643.9374    7029865.32147   5581121.98462
  22492123.233    -6867570.861 7  -5310202.12122
  23977946.7024   -5486077.25046  -4101780.19761
  21381183.5304  -15896952.43347 -11786794.20662
 91  4 11  2 11 30.0030000  0  4G 2G 6G12G13
  23326945.3974    7062971.19747   5606918.76361
  22500444.491    -6823843.735 7  -5276129.06422
  23970266.257    -5526435.787 6  -4133228.33421
  21384580.1164  -15879102.26947 -11772884.98162
 91  4 11  2 11 45.0030000  0  4G 2G 6G12G13
  23333255.7804    7096132.60947   5632758.82661
  22508788.187    -6779996.644 7  -5241962.51922
  23962595.960    -5566744.357 6  -4164637.53721
  21387995.8354  -15861150.34047 -11758896.45962
 91  4 11  2 12  0.0030000  0  4G 2G 6G12G13
  23339576.8974    7129352.17147   5658644.19561
  22517155.476    -6736027.357 7  -5207700.75922
  23954934.616    -5607000.017 6  -4196005.51121
  21391432.0224  -15843094.24447 -11744826.76762
 91  4 11  2 12 15.0030000  0  4G 2G 6G12G13
  23345909.0624    7162630.23047   5684575.15061
  22525545.522    -6691935.680 7  -5173343.63622
  23947285.093    -5647202.017 6  -4227331.67921
  21394887.9524  -15824934.09047 -11730675.99162
 91  4 11  2 12 30.0030000  0  4G 2G 6G12G13
  23352254.4524    7195971.96347   5710555.71761
  22533960.413    -6647716.808 6  -5138887.39122
  23939645.0464   -5687344.99846  -4258611.85161
  21398364.4294  -15806664.94747 -11716440.28762
 91  4 11  2 12 45.0030000  0  4G 2G 6G12G13
  23358611.1014    7229381.84747   5736589.39361
  22542399.077    -6603366.376 7  -5104328.63222
  23932018.7964   -5727424.18946  -4289842.31961
  21401862.6474  -15788282.66147 -11702116.42062
 91  4 11  2 13  0.0030000  0  4G 2G 6G12G13
  23364981.6164    7262859.10047   5762675.55761
  22550863.937    -6558885.493 6  -5069668.22922
  23924404.1164   -5767439.89146  -4321023.31961
  21405381.7494  -15769788.43647 -11687705.32562
 91  4 11  2 13 15.0030000  0  4G 2G 6G12G13
  23371365.0694    7296398.15547   5788809.88662
  22559351.304    -6514279.795 6  -5034910.56922
  23916798.6874   -5807397.39446  -4352158.97861
  21408920.3584  -15751187.75247 -11673211.28062
 91  4 11  2 13 30.0030000  0  4G 2G 6G12G13
  23377757.6874    7329998.35947   5814991.85762
  22567863.944    -6469550.301 6  -5000056.44222
  23909206.6874   -5847297.11646  -4383249.60361
  21412480.6944  -15732481.63247 -11658635.07762
 91  4 11  2 13 45.0030000  0  4G 2G 6G12G13
  23384163.0694    7363655.92947   5841218.53961
  22576398.819    -6424700.910 6  -4965108.88822
  23901624.3274   -5887142.32646  -4414297.74961
  21416059.4134  -15713674.22647 -11643979.94862
 91  4 11  2 14  0.0030000  0  4G 2G 6G12G13
  23390578.5384    7397373.07546   5867491.63762
  22584956.827    -6379729.800 6  -4930066.48922
  23894053.358    -5926930.646 6  -4445301.56521
  21419658.843   -15694763.634 7 -11629244.40822
 91  4 11  2 14 15.0030000  0  4G 2G 6G12G13
  23397005.9604    7431145.62847   5893807.90662
  22593536.897    -6334641.418 6  -4894932.70922
  23886491.741    -5966665.871 6  -4476264.00221
  21423274.976   -15675754.613 7 -11614432.17622
 91  4 11  2 14 30.0030000  0  4G 2G 6G12G13
  23403444.2414    7464977.65646   5920170.52861
  22602140.022    -6289431.758 6  -4859704.42622
  23878941.9524   -6006343.55946  -4507181.61261
  21426911.7884  -15656643.11647 -11599540.08962
 91  4 11  2 14 45.0030000  0  4G 2G 6G12G13
  23409891.7804    7498867.89747   5946578.51162
  22610765.546    -6244102.302 6  -4824382.79522
  23871401.491    -6045964.573 6  -4538055.05421
  21430568.687   -15637430.855 7 -11584569.48622
 91  4 11  2 15  0.0030000  0  4G 2G 6G12G13
  23416353.1474    7532816.32347   5973031.82661
  22619413.179    -6198653.578 6  -4788968.23322
  23863872.132    -6085528.993 6  -4568884.39721
  21434243.335   -15618118.333 7 -11569520.75622
 91  4 11  2 15 15.0030000  0  4G 2G 6G12G13
  23422823.4134    7566823.68546   5999531.07761
  22628085.077    -6153084.971 6  -4753460.25422
  23856354.851    -6125035.493 6  -4599668.61221
  21437937.929   -15598704.862 7 -11554393.36522
 91  4 11  2 15 30.0030000  0  4G 2G 6G12G13
  23429307.1164    7600889.61247   6026075.95861
  22636779.358    -6107397.075 6  -4717859.32222
  23848847.491    -6164484.169 6  -4630407.76421
  21441650.4834  -15579190.92047 -11539187.68662
 91  4 11  2 15 45.0030000  0  4G 2G 6G12G13
  23435800.4604    7635015.15647   6052667.29061
  22645497.179    -6061589.037 6  -4682164.77422
  23841351.358    -6203873.513 6  -4661100.68021
  21445383.280   -15559575.685 7 -11523903.07522
 91  4 11  2 16  0.0030000  0  4G 2G 6G12G13
  23442305.4444    7669199.11747   6079304.14461
  22654236.476    -6015662.386 6  -4646377.80122
  23833867.5694   -6243204.53646  -4691748.16661
  21449135.405   -15539860.983 7 -11508540.95922
 91  4 11  2 16 15.0030000  0  4G 2G 6G12G13
  23448822.4294    7703443.66946   6105988.21761
  22662998.6554   -5969615.19046  -4610496.89962
  23826394.046    -6282474.818 6  -4722348.30821
  21452905.546   -15520044.928 7 -11493099.86322
 91  4 11  2 16 30.0030000  0  4G 2G 6G12G13
  23455349.2574    7737746.77346   6132717.91161
  22671783.843    -5923449.691 6  -4574523.80622
  23818932.304    -6321685.991 6  -4752902.38721
  21456695.608   -15500129.756 7 -11477581.53422
 91  4 11  2 16 45.0030000  0  4G 2G 6G12G13
  23461888.9764    7772108.44946   6159493.24061
  22680591.374    -5877166.168 6  -4538458.75222
  23811482.257    -6360837.742 6  -4783410.16821
  21460503.476   -15480115.749 7 -11461986.19122
 91  4 11  2 17  0.0030000  0  4G 2G 6G12G13
  23468438.0854    7806528.65046   6186314.18461
  22689421.4214   -5830764.91046  -4502301.95762
  23804043.702    -6399929.675 6  -4813871.33421
  21464331.257   -15460003.188 7 -11446314.05122
 91  4 11  2 17 15.0030000  0  4G 2G 6G12G13
  23474999.9914    7841006.33446   6213179.91161
  22698272.7964   -5784247.12846  -4466054.36362
  23796615.812    -6438962.435 6  -4844286.38821
  21468176.554   -15439793.290 7 -11430566.06322
 91  4 11  2 17 30.0030000  0  4G 2G 6G12G13
  23481570.5224    7875538.26846   6240087.91161
  22707147.3044   -5737616.44846  -4429718.79462
  23789198.952    -6477939.112 7  -4874657.74121
  21472040.819   -15419489.951 7 -11414745.26722
 91  4 11  2 17 45.0030000  0  4G 2G 6G12G13
  23488152.1794    7910126.21146   6267039.56161
  22716041.780    -5690871.168 6  -4393293.93322
  23781792.647    -6516857.485 6  -4904983.67121
  21475922.374   -15399091.493 7 -11398850.35122
 91  4 11  2 18  0.0030000  0  4G 2G 6G12G13
  23494745.390     7944770.570 6   6294035.17121
  22724958.6404   -5644011.37947  -4356779.85262
  23774397.6244   -6555716.86847  -4935263.63361
  21479822.296   -15378598.030 7 -11382881.40322
 91  4 11  2 18 15.0030000  0  4G 2G 6G12G13
  23501346.9764    7979464.08946   6321069.08661
  22733897.2104   -5597044.47247  -4320182.29262
  23767013.335    -6594524.327 6  -4965503.13521
  21483738.296   -15358017.080 7 -11366844.28122
 91  4 11  2 18 30.0030000  0  4G 2G 6G12G13
  23507958.5624    8014207.58446   6348141.93861
  22742854.608    -5549969.876 7  -4283500.81422
  23759638.507    -6633278.526 7  -4995701.13021
  21487671.413   -15337348.034 7 -11350738.51722
 91  4 11  2 18 45.0030000  0  4G 2G 6G12G13
  23514578.6244    8048999.34246   6375252.40161
  22751832.2574   -5502789.40447  -4246736.84361
  23752273.6714   -6671980.61147  -5025858.50661
  21491621.241   -15316592.621 7 -11334565.44922
 91  4 11  2 19  0.0030000  0  4G 2G 6G12G13
  23521209.2104    8083840.88446   6402401.63261
  22760831.8044   -5455502.01847  -4209889.55861
  23744918.999    -6710629.128 6  -5055974.12521
  21495587.812   -15295749.999 7 -11318324.42422
 91  4 11  2 19 15.0030000  0  4G 2G 6G12G13
  23527848.616     8118733.410 7   6429590.62422
  22769850.8194   -5408106.83846  -4172958.25961
  23737575.6014   -6749222.57947  -5086046.88961
  21499570.3744  -15274819.39547 -11302014.85462
 91  4 11  2 19 30.0030000  0  4G 2G 6G12G13
  23534497.897     8153673.510 6   6456816.69621
  22778889.2574   -5360607.16946  -4135945.57161
  23730240.4054   -6787763.73047  -5116078.83461
  21503569.687   -15253804.086 8 -11285639.27022
 91  4 11  2 19 45.0030000  0  4G 2G 6G12G13
  23541156.9294    8188661.98346   6484080.43461
  22787948.4134   -5313002.71946  -4098851.23062
  23722916.5154   -6826251.53347  -5146069.24561
  21507585.358   -15232703.648 7 -11269197.35422
 91  4 11  2 20  0.0030000  0  4G 2G 6G12G13
  23547822.8434    8223697.51146   6511380.84561
  22797026.4214   -5265295.05146  -4061676.45662
  23715602.3824   -6864687.02947  -5176018.91061
  21511616.163   -15211519.762 7 -11252690.41422
 91  4 11  2 20 15.0030000  0  4G 2G 6G12G13
  23554498.7964    8258780.63346   6538718.34761
  22806125.2654   -5217483.70946  -4024420.88962
  23708299.6014   -6903069.23047  -5205927.01661
  21515662.663   -15190251.989 7 -11236118.10622
 91  4 11  2 20 30.0030000  0  4G 2G 6G12G13
  23561183.6474    8293907.52546   6566089.94661
  22815242.1634   -5169572.87846  -3987087.81562
  23701004.4134   -6941401.80447  -5235796.47261
  21519724.882   -15168904.739 7 -11219483.87222
 91  4 11  2 20 45.0030000  0  4G 2G 6G12G13
  23567877.5384    8329083.88746   6593500.09061
  22824378.7184   -5121557.27446  -3949673.09062
  23693720.5854   -6979678.61447  -5265622.46661
  21523803.843   -15147472.627 7 -11202783.51022
 91  4 11  2 21  0.0030000  0  4G 2G 6G12G13
  23574580.0854    8364307.89746   6620947.36861
  22833535.9134   -5073438.98646  -3912178.35362
  23686447.1014   -7017901.21347  -5295406.22961
  21527898.280   -15125957.869 7 -11186018.75122
 91  4 11  2 21 15.0030000  0  4G 2G 6G12G13
  23581292.8584    8399583.35446   6648434.73861
  22842712.6714   -5025214.45546  -3874600.83162
  23679184.6244   -7056065.35647  -5325144.43261
  21532007.772   -15104356.872 7 -11169186.79322
 91  4 11  2 21 30.0030000  0  4G 2G 6G12G13
  23588015.7964    8434910.32746   6675962.24661
  22851909.1634   -4976883.79746  -3836940.61562
  23671933.3514   -7094170.60047  -5354836.74061
  21536135.249   -15082669.623 7 -11152287.62522
 91  4 11  2 21 45.0030000  0  4G 2G 6G12G13
  23594747.4054    8470286.65446   6703528.21761
  22861126.3274   -4928449.45846  -3799199.60762
  23664693.390    -7132218.864 7  -5384484.65121
  21540277.655   -15060898.649 7 -11135323.21822
 91  4 11  2 22  0.0030000  0  4G 2G 6G12G13
  23601488.9214    8505710.13946   6731130.92361
  22870362.437    -4879913.960 6  -3761379.78322
  23657463.0934   -7170212.12647  -5414089.70361
  21544436.374   -15039046.603 7 -11118295.63922
 91  4 11  2 22 15.0030000  0  4G 2G 6G12G13
  23608238.0624    8541182.30246   6758771.57961
  22879617.8974   -4831275.97446  -3723480.08762
  23650242.5384   -7208148.28647  -5443650.26261
  21548609.890   -15017112.194 7 -11101203.87922
 91  4 11  2 22 30.0030000  0  4G 2G 6G12G13
  23614997.3274    8576700.68646   6786448.23461
  22888892.5694   -4782538.16346  -3685502.60762
  23643036.147    -7246029.618 7  -5473168.09921
  21552799.218   -14995098.226 7 -11084050.12522
 91  4 11  2 22 45.0030000  0  4G 2G 6G12G13
  23621765.1324    8612265.18646   6814160.82561
  22898184.9604   -4733701.06646  -3647447.76162
  23635837.171    -7283855.808 7  -5502642.97621
  21557003.241   -14973005.073 8 -11066834.66622
 91  4 11  2 23  0.0030000  0  4G 2G 6G12G13
  23628543.2414    8647879.02946   6841911.87461
  22907497.6014   -4684761.70546  -3609313.23062
  23628649.460    -7321623.446 7  -5532072.21721
  21561223.319   -14950829.795 8 -11049555.21522
 91  4 11  2 23 15.0030000  0  4G 2G 6G12G13
  23635330.2884    8683550.40946   6869707.74361
  22916832.7024   -4635712.20246  -3571092.87462
  23621474.858    -7359324.040 7  -5561449.22321
  21565461.1714  -14928564.79048 -11032205.85462
 91  4 11  2 23 30.0030000  0  4G 2G 6G12G13
  23642128.2494    8719273.88546   6897544.22061
  22926186.1474   -4586557.99746  -3532790.93762
  23614314.866    -7396962.393 7  -5590777.71821
  21569712.819   -14906215.656 8 -11014790.93022
 91  4 11  2 23 45.0030000  0  4G 2G 6G12G13
  23648936.0694    8755047.98946   6925420.15261
  22935560.0774   -4537300.92646  -3494408.83462
  23607162.937    -7434539.707 7  -5620058.66721
  21573981.5694  -14883783.97248 -10997311.68662
 91  4 11  2 24  0.0030000  0  4G 2G 6G12G13
  23655753.5154    8790876.14946   6953338.19261
  22944953.6164   -4487937.90946  -3455944.18762
  23600023.593    -7472052.213 7  -5649289.11321
  21578266.7334  -14861266.70448 -10979765.75462
 91  4 11  2 24 15.0030000  0  4G 2G 6G12G13
  23662581.5224    8826755.77046   6981296.33661
  22954366.5384   -4438471.76546  -3417399.16961
  23592897.687    -7509502.267 7  -5678470.89821
  21582567.4834  -14838666.56248 -10962155.24562
 91  4 11  2 24 30.0030000  0  4G 2G 6G12G13
  23669418.5384    8862686.59846   7009294.38161
  22963798.6404   -4388903.02646  -3378774.21861
  23585783.640    -7546889.780 7  -5707603.94921
  21586884.3974  -14815984.20748 -10944480.67462
 91  4 11  2 24 45.0030000  0  4G 2G 6G12G13
  23676265.2184    8898664.90946   7037329.42661
  22973250.3974   -4339235.88646  -3340072.58961
  23578678.897    -7584218.117 7  -5736690.88621
  21591214.9214  -14793223.86448 -10926745.33462
 91  4 11  2 25  0.0030000  0  4G 2G 6G12G13
  23683120.2104    8934688.26746   7065399.57861
  22982720.2184   -4289472.74546  -3301296.15161
  23571586.702    -7621489.063 7  -5765733.10721
  21595560.507   -14770387.935 8 -10908951.09322
 91  4 11  2 25 15.0030000  0  4G 2G 6G12G13
  23689984.9834    8970762.53946   7093509.40261
  22992208.4134   -4239608.09046  -3262440.61162
  23564506.757    -7658696.545 7  -5794725.87021
  21599922.140   -14747470.901 8 -10891093.64822
 91  4 11  2 25 30.0030000  0  4G 2G 6G12G13
  23696858.2104    9006881.97546   7121654.41061
  23001715.7964   -4189648.10346  -3223510.79062
  23557436.7654   -7695846.18147  -5823673.56561
  21604296.507   -14724479.096 8 -10873177.94722
 91  4 11  2 25 45.0030000  0  4G 2G 6G12G13
  23703740.7724    9043047.59846   7149835.41161
  23011241.0934   -4139591.95746  -3184506.04062
  23550378.8904   -7732936.52547  -5852575.06261
  21608686.1634  -14701411.75348 -10855203.38962
 91  4 11  2 26  0.0030000  0  4G 2G 6G12G13
  23710631.4914    9079260.27046   7178053.07661
  23020784.5154   -4089439.11246  -3145425.93862
  23543331.897    -7769966.360 7  -5881429.41621
  21613090.585   -14678268.271 8 -10837169.48922
 91  4 11  2 26 15.0030000  0  4G 2G 6G12G13
  23717531.3664    9115520.82446   7206308.04361
  23030347.1554   -4039188.98246  -3106270.03261
  23536296.2104   -7806934.57347  -5910235.73561
  21617508.7494  -14655048.03348 -10819075.78762
 91  4 11  2 26 30.0030000  0  4G 2G 6G12G13
  23724441.1404    9151828.07246   7234599.39561
  23039928.1874   -3988842.98246  -3067039.41862
  23529273.6014   -7843841.79747  -5938994.54661
  21621941.577   -14631752.462 8 -10800923.38322
 91  4 11  2 26 45.0030000  0  4G 2G 6G12G13
  23731358.9684    9188181.85446   7262927.03061
  23049526.5934   -3938401.53246  -3027734.43161
  23522262.3824   -7880688.00547  -5967705.81061
  21626389.3044  -14608382.24248 -10782712.81362
 91  4 11  2 27  0.0030000  0  4G 2G 6G12G13
  23738284.9914    9224584.20646   7291292.49361
  23059144.7184   -3887863.11346  -2988353.87661
  23515262.8824   -7917470.92647  -5996367.75361
  21630850.421   -14584935.861 8 -10764442.89222
 91  4 11  2 27 15.0030000  0  4G 2G 6G12G13
  23745221.3354    9261033.19946   7319694.30261
  23068778.9834   -3837229.65146  -2948899.27061
  23508274.3744   -7954191.96047  -6024981.48261
  21635326.4524  -14561414.98248 -10746114.93062
 91  4 11  2 27 30.0030000  0  4G 2G 6G12G13
  23752167.0774    9297533.10446   7348135.78761
  23078433.3974   -3786497.18246  -2909367.51761
  23501300.468    -7990846.467 7  -6053543.36621
  21639817.7654  -14537815.76548 -10727725.92262
 91  4 11  2 27 45.0030000  0  4G 2G 6G12G13
  23759122.1794    9334079.48946   7376613.48961
  23088104.5774   -3735670.37146  -2869762.24661
  23494335.9054   -8027438.55047  -6082056.61261
  21644322.6404  -14514142.79748 -10709279.44862
 91  4 11  2 28  0.0030000  0  4G 2G 6G12G13
  23766086.2264    9370678.23146   7405131.98761
  23097796.4134   -3684743.72646  -2830079.18161
  23487386.4524   -8063961.88347  -6110516.28161
  21648842.1474  -14490390.54448 -10690771.18862
 91  4 11  2 28 15.0030000  0  4G 2G 6G12G13
  23773059.5774    9407326.75746   7433689.27661
  23107505.9764   -3633720.02346  -2790320.49361
  23480448.1944   -8100418.68147  -6138924.11461
  21653376.897   -14466561.952 8 -10672203.44422
 91  4 11  2 28 30.0030000  0  4G 2G 6G12G13
  23780043.4134    9444024.59146   7462284.98661
  23117233.9134   -3582600.14646  -2750486.86461
  23473523.6944   -8136809.24347  -6167280.33161
  21657925.8354  -14442657.79248 -10653576.81962
 91  4 11  2 28 45.0030000  0  4G 2G 6G12G13
  23787036.1634    9480768.40746   7490916.53061
  23126979.335    -3531387.727 6  -2710581.12521
  23466611.6794   -8173136.62047  -6195587.31561
  21662487.8514  -14418681.84248 -10634894.24562
 91  4 11  2 29  0.0030000  0  4G 2G 6G12G13
  23794036.9764    9517557.51446   7519583.36261
  23136741.983    -3480083.833 6  -2670604.10321
  23459710.2964   -8209401.08547  -6223845.28061
  21667064.0224  -14394635.14248 -10616156.54862
 91  4 11  2 29 15.0030000  0  4G 2G 6G12G13
  23801047.1404    9554397.94146   7548290.18361
  23146523.5384   -3428682.65046  -2630551.27561
  23452822.8664   -8245596.21547  -6252049.21461
  21671655.233   -14370511.945 8 -10597359.24422
 91  4 11  2 29 30.0030000  0  4G 2G 6G12G13
  23808067.8354    9591289.12646   7577036.55961
  23156323.2574   -3377184.80846  -2590423.12461
  23445947.7654   -8281722.11147  -6280199.19861
  21676259.421   -14346312.945 8 -10578502.86422
 91  4 11  2 29 45.0030000  0  4G 2G 6G12G13
  23815096.1164    9628227.02546   7605819.34261
  23166139.9444   -3325594.73946  -2550223.11061
  23439084.8904   -8317782.57147  -6308298.19461
  21680878.507   -14322042.496 8 -10559590.81422
 91  4 11  2 30  0.0030000  0  4G 2G 6G12G13
  23822133.8434    9665208.39646   7634635.99561
  23175974.3824   -3273916.01346  -2509954.01661
  23432235.3904   -8353780.46847  -6336348.43961
  21685509.272   -14297704.102 8 -10540625.82022
 91  4 11  2 30 15.0030000  0  4G 2G 6G12G13
  23829178.8354    9702229.99446   7663483.98361
  23185824.7724   -3222152.19146  -2469618.60861
  23425396.8904   -8389718.75947  -6364352.24161
  21690152.022   -14273301.364 8 -10521610.68722
 91  4 11  2 30 30.0030000  0  4G 2G 6G12G13
  23836231.8584    9739295.31146   7692366.04561
  23195692.8124   -3170299.91446  -2429214.27761
  23418570.3664   -8425593.35647  -6392306.40761
  21694809.077   -14248830.848 8 -10502542.73922
 91  4 11  2 30 45.0030000  0  4G 2G 6G12G13
  23843296.4214    9776411.68046   7721287.89061
  23205577.1014   -3118352.10346  -2388735.49761
  23411756.3274   -8461396.59347  -6420204.96461
  21699479.882   -14224285.887 8 -10483416.78122
 91  4 11  2 31  0.0030000  0  4G 2G 6G12G13
  23850367.0154    9813577.49946   7750248.25761
  23215480.6244   -3066310.81946  -2348183.88861
  23404956.4604   -8497129.86647  -6448049.01261
  21704164.819   -14199668.297 8 -10464234.23222
 91  4 11  2 31 15.0030000  0  4G 2G 6G12G13
  23857450.4294    9850796.41446   7779250.01361
  23225401.4134   -3014172.74446  -2307556.85661
  23398170.7804   -8532789.16847  -6475835.41761
  21708864.257   -14174974.731 8 -10444992.47522
 91  4 11  2 31 30.0030000  0  4G 2G 6G12G13
  23864541.4524    9888068.91646   7808293.51261
  23235343.1634   -2961937.59946  -2266854.18561
  23391399.6634   -8568373.61947  -6503563.49762
  21713577.140   -14150204.896 8 -10425691.29022
 91  4 11  2 31 45.0030000  0  4G 2G 6G12G13
  23871645.3904    9925397.40546   7837380.64161
  23245300.718    -2909603.125 6  -2226074.11821
  23384642.8194   -8603880.37847  -6531231.03461
  21718305.413   -14125356.603 8 -10406328.97022
 91  4 11  2 32  0.0030000  0  4G 2G 6G12G13
  23878759.4994    9962779.75046   7866509.73061
  23255278.858    -2857171.856 6  -2185218.62321
  23377899.9374   -8639311.25847  -6558839.44761
  21723049.554   -14100432.270 8 -10386907.39622
 91  4 11  2 32 15.0030000  0  4G 2G 6G12G13
  23885883.905    10000220.746 6   7895684.52721
  23265274.6014   -2804639.29946  -2144284.20261
  23371173.0464   -8674661.21447  -6586384.80762
  21727807.5774  -14075427.54148 -10367423.18362
 91  4 11  2 32 30.0030000  0  4G 2G 6G12G13
  23893019.7724   10037721.30346   7924905.73161
  23275291.851    -2752004.890 6  -2103270.42621
  23364461.2264   -8709928.96847  -6613866.11861
  21732580.7414  -14050341.75348 -10347875.80462
 91  4 11  2 32 45.0030000  0  4G 2G 6G12G13
  23900168.265    10075279.247 6   7954171.64321
  23285326.4054   -2699271.15046  -2062179.23761
  23357766.2884   -8745116.29047  -6641284.75261
  21737369.116   -14025177.365 8 -10328267.17922
 91  4 11  2 33  0.0030000  0  4G 2G 6G12G13
  23907325.2724   10112894.63846   7983482.33461
  23295379.741    -2646438.133 6  -2021010.69721
  23351085.7024   -8780222.63847  -6668640.28661
  21742172.882   -13999934.718 8 -10308597.56922
 91  4 11  2 33 15.0030000  0  4G 2G 6G12G13
  23914495.1474   10150571.02546   8012840.55061
  23305453.991    -2593502.761 6  -1979762.40121
  23344420.5544   -8815244.33047  -6695929.85962
  21746991.562   -13974610.606 8 -10288864.48522
 91  4 11  2 33 30.0030000  0  4G 2G 6G12G13
  23921675.8124   10188301.84246   8042241.17561
  23315544.8044   -2540471.87746  -1938439.67761
  23337771.1244   -8850187.52147  -6723158.25961
  21751824.460   -13949211.901 8 -10269073.27522
 91  4 11  2 33 45.0030000  0  4G 2G 6G12G13
  23928865.3904   10226084.03846   8071681.84361
  23325653.757    -2487348.740 6  -1897045.06821
  23331135.9994   -8885054.89847  -6750327.57662
  21756672.327   -13923741.877 8 -10249226.48722
 91  4 11  2 34  0.0030000  0  4G 2G 6G12G13
  23936066.5154   10263925.27846   8101168.51761
  23335781.640    -2434125.973 6  -1855572.82821
  23324517.8044   -8919838.41947  -6777431.55762
  21761533.226   -13898193.063 8 -10229318.31222
 91  4 11  2 34 15.0030000  0  4G 2G 6G12G13
  23943275.6244   10301819.59846   8130696.55361
  23345928.3514   -2380809.93546  -1814027.91061
  23317912.8974   -8954543.75247  -6804474.61262
  21766409.351   -13872571.800 8 -10209353.67922
 91  4 11  2 34 30.0030000  0  4G 2G 6G12G13
  23950497.1324   10339766.76146   8160265.76461
  23356090.601    -2327401.033 6  -1772410.62621
  23311324.6014   -8989170.65747  -6831456.55462
  21771298.0384  -13846878.47748 -10189332.90262
 91  4 11  2 34 45.0030000  0  4G 2G 6G12G13
  23957729.4994   10377766.28546   8189875.77661
  23366272.3194   -2273900.04246  -1730721.58561
  23304749.6714   -9023719.21747  -6858377.44462
  21776200.874   -13821113.828 8 -10169256.53922
 91  4 11  2 35  0.0030000  0  4G 2G 6G12G13
  23964970.1794   10415819.40346   8219527.54161
  23376471.460    -2220306.082 6  -1688960.11321
  23298190.1554   -9058187.85547  -6885236.06462
  21781117.2964  -13795276.99048 -10149123.93462
 91  4 11  2 35 15.0030000  0  4G 2G 6G12G13
  23972221.312    10453927.156 6   8249221.87021
  23386687.679    -2166618.194 6  -1647125.44121
  23291646.1874   -9092575.04547  -6912031.21262
  21786048.069   -13769367.203 8 -10128934.47722
 91  4 11  2 35 30.0030000  0  4G 2G 6G12G13
  23979482.9834   10492085.47146   8278955.62361
  23396921.085    -2112840.927 6  -1605221.11721
  23285118.108    -9126884.653 7  -6938765.91422
  21790991.460   -13743388.782 8 -10108691.53922
 91  4 11  2 35 45.0030000  0  4G 2G 6G12G13
  23986755.022    10530299.422 6   8308732.71921
  23407172.968    -2058969.477 6  -1563243.41321
  23278605.0384   -9161111.26947  -6965435.94062
  21795948.9134  -13717336.90748 -10088391.37162
 91  4 11  2 36  0.0030000  0  4G 2G 6G12G13
  23994036.741    10568567.226 6   8338551.77121
  23417440.749    -2005006.104 6  -1521194.07121
  23272106.7574   -9195256.40347  -6992042.47962
  21800919.7334  -13691213.87448 -10068035.74862
 91  4 11  2 36 15.0030000  0  4G 2G 6G12G13
  24001330.8584   10606888.95946   8368412.84961
  23427726.515    -1950950.758 6  -1479073.07321
  23265625.1404   -9229319.47947  -7018585.07662
  21805903.7184  -13665019.62748 -10047624.63962
 91  4 11  2 36 30.0030000  0  4G 2G 6G12G13
  24008632.6554   10645264.52746   8398315.88261
  23438030.733    -1896803.932 6  -1436880.78721
  23259158.3744   -9263300.25047  -7045063.53762
  21810902.5694  -13638754.77948 -10027158.51662
 91  4 11  2 36 45.0030000  0  4G 2G 6G12G13
  24015944.944    10683693.295 6   8428260.36821
  23448352.1404   -1842566.66846  -1394618.02961
  23252707.5154   -9297199.08147  -7071478.14462
  21815914.163   -13612420.217 8 -10006638.06522
